<?xml version="1.0" encoding="UTF-8" standalone="no" ?>
<gpx xmlns="http://www.topografix.com/GPX/1/1" xmlns:xsi="http://www.w3.org/2001/XMLSchema-instance" xsi:schemaLocation="http://www.topografix.com/GPX/1/1 http://www.topografix.com/GPX/1/1/gpx.xsd" version="1.1" creator="VisuGPX - https://www.visugpx.com">
  <metadata>
    <name>Sortie autour de Blanquefort de 15 kms</name>
    <desc><![CDATA[Un circuit pas très long, parfait pour une sortie pédestre mais avec quelques passages assez physiques. http://les4fantastiques.over-blog.org/]]></desc>
  </metadata>
  <trk>
    <name><![CDATA[Sortie autour de Blanquefort de 15 kms_1]]></name>
    <trkseg>
      <trkpt lat="44.58497" lon="0.96463">
        <ele>207</ele>
        <time>2012-01-22T07:28:38Z</time>
      </trkpt>
      <trkpt lat="44.58472" lon="0.96478">
        <ele>200</ele>
        <time>2012-01-22T07:31:37Z</time>
      </trkpt>
      <trkpt lat="44.5847" lon="0.96478">
        <ele>200</ele>
        <time>2012-01-22T07:31:38Z</time>
      </trkpt>
      <trkpt lat="44.58467" lon="0.96478">
        <ele>200</ele>
        <time>2012-01-22T07:31:41Z</time>
      </trkpt>
      <trkpt lat="44.58465" lon="0.96478">
        <ele>200</ele>
        <time>2012-01-22T07:31:42Z</time>
      </trkpt>
      <trkpt lat="44.58464" lon="0.96479">
        <ele>200</ele>
        <time>2012-01-22T07:31:43Z</time>
      </trkpt>
      <trkpt lat="44.58463" lon="0.9648">
        <ele>200</ele>
        <time>2012-01-22T07:31:44Z</time>
      </trkpt>
      <trkpt lat="44.58459" lon="0.96482">
        <ele>200</ele>
        <time>2012-01-22T07:31:47Z</time>
      </trkpt>
      <trkpt lat="44.58457" lon="0.9648">
        <ele>200</ele>
        <time>2012-01-22T07:31:48Z</time>
      </trkpt>
      <trkpt lat="44.58454" lon="0.96476">
        <ele>200</ele>
        <time>2012-01-22T07:31:53Z</time>
      </trkpt>
      <trkpt lat="44.58447" lon="0.96471">
        <ele>200</ele>
        <time>2012-01-22T07:31:55Z</time>
      </trkpt>
      <trkpt lat="44.58444" lon="0.9647">
        <ele>200</ele>
        <time>2012-01-22T07:31:58Z</time>
      </trkpt>
      <trkpt lat="44.58442" lon="0.96468">
        <ele>200</ele>
        <time>2012-01-22T07:31:59Z</time>
      </trkpt>
      <trkpt lat="44.58441" lon="0.96468">
        <ele>200</ele>
        <time>2012-01-22T07:32:00Z</time>
      </trkpt>
      <trkpt lat="44.58438" lon="0.9647">
        <ele>200</ele>
        <time>2012-01-22T07:32:01Z</time>
      </trkpt>
      <trkpt lat="44.58429" lon="0.9646">
        <ele>200</ele>
        <time>2012-01-22T07:32:06Z</time>
      </trkpt>
      <trkpt lat="44.58427" lon="0.96457">
        <ele>200</ele>
        <time>2012-01-22T07:32:07Z</time>
      </trkpt>
      <trkpt lat="44.58425" lon="0.96457">
        <ele>200</ele>
        <time>2012-01-22T07:32:08Z</time>
      </trkpt>
      <trkpt lat="44.58421" lon="0.96454">
        <ele>200</ele>
        <time>2012-01-22T07:32:11Z</time>
      </trkpt>
      <trkpt lat="44.58416" lon="0.96456">
        <ele>201</ele>
        <time>2012-01-22T07:32:12Z</time>
      </trkpt>
      <trkpt lat="44.58415" lon="0.96454">
        <ele>202</ele>
        <time>2012-01-22T07:32:13Z</time>
      </trkpt>
      <trkpt lat="44.58413" lon="0.96454">
        <ele>203</ele>
        <time>2012-01-22T07:32:14Z</time>
      </trkpt>
      <trkpt lat="44.5841" lon="0.96451">
        <ele>204</ele>
        <time>2012-01-22T07:32:17Z</time>
      </trkpt>
      <trkpt lat="44.58406" lon="0.96448">
        <ele>205</ele>
        <time>2012-01-22T07:32:18Z</time>
      </trkpt>
      <trkpt lat="44.58403" lon="0.96448">
        <ele>206</ele>
        <time>2012-01-22T07:32:19Z</time>
      </trkpt>
      <trkpt lat="44.58398" lon="0.96448">
        <ele>208</ele>
        <time>2012-01-22T07:32:23Z</time>
      </trkpt>
      <trkpt lat="44.58396" lon="0.96454">
        <ele>209</ele>
        <time>2012-01-22T07:32:24Z</time>
      </trkpt>
      <trkpt lat="44.58395" lon="0.96457">
        <ele>210</ele>
        <time>2012-01-22T07:32:25Z</time>
      </trkpt>
      <trkpt lat="44.58395" lon="0.9646">
        <ele>212</ele>
        <time>2012-01-22T07:32:27Z</time>
      </trkpt>
      <trkpt lat="44.58395" lon="0.96464">
        <ele>213</ele>
        <time>2012-01-22T07:32:31Z</time>
      </trkpt>
      <trkpt lat="44.58392" lon="0.96469">
        <ele>215</ele>
        <time>2012-01-22T07:32:32Z</time>
      </trkpt>
      <trkpt lat="44.58391" lon="0.96472">
        <ele>217</ele>
        <time>2012-01-22T07:32:34Z</time>
      </trkpt>
      <trkpt lat="44.5839" lon="0.96477">
        <ele>219</ele>
        <time>2012-01-22T07:32:38Z</time>
      </trkpt>
      <trkpt lat="44.5839" lon="0.9648">
        <ele>220</ele>
        <time>2012-01-22T07:32:39Z</time>
      </trkpt>
      <trkpt lat="44.58389" lon="0.96482">
        <ele>221</ele>
        <time>2012-01-22T07:32:40Z</time>
      </trkpt>
      <trkpt lat="44.58389" lon="0.96485">
        <ele>222</ele>
        <time>2012-01-22T07:32:41Z</time>
      </trkpt>
      <trkpt lat="44.58385" lon="0.96487">
        <ele>223</ele>
        <time>2012-01-22T07:32:45Z</time>
      </trkpt>
      <trkpt lat="44.58382" lon="0.96491">
        <ele>223</ele>
        <time>2012-01-22T07:32:46Z</time>
      </trkpt>
      <trkpt lat="44.58382" lon="0.96493">
        <ele>223</ele>
        <time>2012-01-22T07:32:47Z</time>
      </trkpt>
      <trkpt lat="44.58381" lon="0.96495">
        <ele>223</ele>
        <time>2012-01-22T07:32:48Z</time>
      </trkpt>
      <trkpt lat="44.5838" lon="0.96495">
        <ele>223</ele>
        <time>2012-01-22T07:32:49Z</time>
      </trkpt>
      <trkpt lat="44.58376" lon="0.96501">
        <ele>223</ele>
        <time>2012-01-22T07:32:54Z</time>
      </trkpt>
      <trkpt lat="44.58372" lon="0.96507">
        <ele>223</ele>
        <time>2012-01-22T07:32:55Z</time>
      </trkpt>
      <trkpt lat="44.58369" lon="0.96512">
        <ele>224</ele>
        <time>2012-01-22T07:32:59Z</time>
      </trkpt>
      <trkpt lat="44.58366" lon="0.96516">
        <ele>225</ele>
        <time>2012-01-22T07:33:00Z</time>
      </trkpt>
      <trkpt lat="44.58364" lon="0.96517">
        <ele>226</ele>
        <time>2012-01-22T07:33:01Z</time>
      </trkpt>
      <trkpt lat="44.58362" lon="0.9652">
        <ele>227</ele>
        <time>2012-01-22T07:33:05Z</time>
      </trkpt>
      <trkpt lat="44.58358" lon="0.96523">
        <ele>227</ele>
        <time>2012-01-22T07:33:06Z</time>
      </trkpt>
      <trkpt lat="44.58356" lon="0.96524">
        <ele>227</ele>
        <time>2012-01-22T07:33:07Z</time>
      </trkpt>
      <trkpt lat="44.58353" lon="0.96526">
        <ele>227</ele>
        <time>2012-01-22T07:33:11Z</time>
      </trkpt>
      <trkpt lat="44.58351" lon="0.9653">
        <ele>227</ele>
        <time>2012-01-22T07:33:12Z</time>
      </trkpt>
      <trkpt lat="44.58349" lon="0.96531">
        <ele>227</ele>
        <time>2012-01-22T07:33:13Z</time>
      </trkpt>
      <trkpt lat="44.58346" lon="0.96537">
        <ele>227</ele>
        <time>2012-01-22T07:33:17Z</time>
      </trkpt>
      <trkpt lat="44.58342" lon="0.96544">
        <ele>227</ele>
        <time>2012-01-22T07:33:18Z</time>
      </trkpt>
      <trkpt lat="44.5834" lon="0.96545">
        <ele>227</ele>
        <time>2012-01-22T07:33:19Z</time>
      </trkpt>
      <trkpt lat="44.58338" lon="0.96548">
        <ele>227</ele>
        <time>2012-01-22T07:33:20Z</time>
      </trkpt>
      <trkpt lat="44.58334" lon="0.96553">
        <ele>227</ele>
        <time>2012-01-22T07:33:24Z</time>
      </trkpt>
      <trkpt lat="44.58329" lon="0.9656">
        <ele>226</ele>
        <time>2012-01-22T07:33:25Z</time>
      </trkpt>
      <trkpt lat="44.58326" lon="0.96563">
        <ele>225</ele>
        <time>2012-01-22T07:33:26Z</time>
      </trkpt>
      <trkpt lat="44.58323" lon="0.96568">
        <ele>224</ele>
        <time>2012-01-22T07:33:27Z</time>
      </trkpt>
      <trkpt lat="44.58306" lon="0.96587">
        <ele>223</ele>
        <time>2012-01-22T07:33:32Z</time>
      </trkpt>
      <trkpt lat="44.58303" lon="0.96593">
        <ele>223</ele>
        <time>2012-01-22T07:33:33Z</time>
      </trkpt>
      <trkpt lat="44.583" lon="0.96599">
        <ele>223</ele>
        <time>2012-01-22T07:33:34Z</time>
      </trkpt>
      <trkpt lat="44.58297" lon="0.9661">
        <ele>223</ele>
        <time>2012-01-22T07:33:38Z</time>
      </trkpt>
      <trkpt lat="44.58298" lon="0.96621">
        <ele>223</ele>
        <time>2012-01-22T07:33:39Z</time>
      </trkpt>
      <trkpt lat="44.58297" lon="0.96624">
        <ele>223</ele>
        <time>2012-01-22T07:33:40Z</time>
      </trkpt>
      <trkpt lat="44.58287" lon="0.96633">
        <ele>223</ele>
        <time>2012-01-22T07:33:45Z</time>
      </trkpt>
      <trkpt lat="44.58284" lon="0.96635">
        <ele>223</ele>
        <time>2012-01-22T07:33:46Z</time>
      </trkpt>
      <trkpt lat="44.58281" lon="0.96637">
        <ele>223</ele>
        <time>2012-01-22T07:33:47Z</time>
      </trkpt>
      <trkpt lat="44.58273" lon="0.96642">
        <ele>223</ele>
        <time>2012-01-22T07:33:51Z</time>
      </trkpt>
      <trkpt lat="44.58258" lon="0.96649">
        <ele>223</ele>
        <time>2012-01-22T07:33:52Z</time>
      </trkpt>
      <trkpt lat="44.58252" lon="0.96651">
        <ele>222</ele>
        <time>2012-01-22T07:33:53Z</time>
      </trkpt>
      <trkpt lat="44.58242" lon="0.96651">
        <ele>221</ele>
        <time>2012-01-22T07:33:58Z</time>
      </trkpt>
      <trkpt lat="44.58227" lon="0.96658">
        <ele>220</ele>
        <time>2012-01-22T07:33:59Z</time>
      </trkpt>
      <trkpt lat="44.58223" lon="0.96659">
        <ele>219</ele>
        <time>2012-01-22T07:34:00Z</time>
      </trkpt>
      <trkpt lat="44.58214" lon="0.96664">
        <ele>217</ele>
        <time>2012-01-22T07:34:05Z</time>
      </trkpt>
      <trkpt lat="44.58211" lon="0.96666">
        <ele>215</ele>
        <time>2012-01-22T07:34:06Z</time>
      </trkpt>
      <trkpt lat="44.58209" lon="0.96669">
        <ele>213</ele>
        <time>2012-01-22T07:34:07Z</time>
      </trkpt>
      <trkpt lat="44.58207" lon="0.96672">
        <ele>212</ele>
        <time>2012-01-22T07:34:08Z</time>
      </trkpt>
      <trkpt lat="44.58196" lon="0.96689">
        <ele>211</ele>
        <time>2012-01-22T07:34:13Z</time>
      </trkpt>
      <trkpt lat="44.58194" lon="0.96693">
        <ele>210</ele>
        <time>2012-01-22T07:34:14Z</time>
      </trkpt>
      <trkpt lat="44.58192" lon="0.96701">
        <ele>209</ele>
        <time>2012-01-22T07:34:19Z</time>
      </trkpt>
      <trkpt lat="44.58191" lon="0.96719">
        <ele>209</ele>
        <time>2012-01-22T07:34:20Z</time>
      </trkpt>
      <trkpt lat="44.58192" lon="0.96721">
        <ele>209</ele>
        <time>2012-01-22T07:34:21Z</time>
      </trkpt>
      <trkpt lat="44.58194" lon="0.96724">
        <ele>209</ele>
        <time>2012-01-22T07:34:22Z</time>
      </trkpt>
      <trkpt lat="44.58195" lon="0.96725">
        <ele>208</ele>
        <time>2012-01-22T07:34:23Z</time>
      </trkpt>
      <trkpt lat="44.58199" lon="0.96732">
        <ele>208</ele>
        <time>2012-01-22T07:34:29Z</time>
      </trkpt>
      <trkpt lat="44.58207" lon="0.96742">
        <ele>207</ele>
        <time>2012-01-22T07:34:30Z</time>
      </trkpt>
      <trkpt lat="44.58209" lon="0.96745">
        <ele>207</ele>
        <time>2012-01-22T07:34:31Z</time>
      </trkpt>
      <trkpt lat="44.5821" lon="0.96747">
        <ele>206</ele>
        <time>2012-01-22T07:34:32Z</time>
      </trkpt>
      <trkpt lat="44.58214" lon="0.96752">
        <ele>205</ele>
        <time>2012-01-22T07:34:37Z</time>
      </trkpt>
      <trkpt lat="44.58225" lon="0.96759">
        <ele>204</ele>
        <time>2012-01-22T07:34:38Z</time>
      </trkpt>
      <trkpt lat="44.58228" lon="0.96759">
        <ele>203</ele>
        <time>2012-01-22T07:34:39Z</time>
      </trkpt>
      <trkpt lat="44.58232" lon="0.96761">
        <ele>202</ele>
        <time>2012-01-22T07:34:44Z</time>
      </trkpt>
      <trkpt lat="44.58242" lon="0.96751">
        <ele>201</ele>
        <time>2012-01-22T07:34:45Z</time>
      </trkpt>
      <trkpt lat="44.58246" lon="0.9675">
        <ele>200</ele>
        <time>2012-01-22T07:34:46Z</time>
      </trkpt>
      <trkpt lat="44.58249" lon="0.96748">
        <ele>199</ele>
        <time>2012-01-22T07:34:46Z</time>
      </trkpt>
      <trkpt lat="44.58251" lon="0.96747">
        <ele>198</ele>
        <time>2012-01-22T07:34:48Z</time>
      </trkpt>
      <trkpt lat="44.58254" lon="0.9675">
        <ele>196</ele>
        <time>2012-01-22T07:34:54Z</time>
      </trkpt>
      <trkpt lat="44.58262" lon="0.96759">
        <ele>195</ele>
        <time>2012-01-22T07:34:55Z</time>
      </trkpt>
      <trkpt lat="44.58263" lon="0.96764">
        <ele>192</ele>
        <time>2012-01-22T07:35:03Z</time>
      </trkpt>
      <trkpt lat="44.58265" lon="0.96762">
        <ele>191</ele>
        <time>2012-01-22T07:35:04Z</time>
      </trkpt>
      <trkpt lat="44.5826" lon="0.96769">
        <ele>191</ele>
        <time>2012-01-22T07:35:13Z</time>
      </trkpt>
      <trkpt lat="44.58259" lon="0.96771">
        <ele>190</ele>
        <time>2012-01-22T07:35:16Z</time>
      </trkpt>
      <trkpt lat="44.58258" lon="0.96773">
        <ele>187</ele>
        <time>2012-01-22T07:35:26Z</time>
      </trkpt>
      <trkpt lat="44.58257" lon="0.96772">
        <ele>184</ele>
        <time>2012-01-22T07:35:34Z</time>
      </trkpt>
      <trkpt lat="44.58255" lon="0.96773">
        <ele>183</ele>
        <time>2012-01-22T07:35:40Z</time>
      </trkpt>
      <trkpt lat="44.58248" lon="0.96774">
        <ele>182</ele>
        <time>2012-01-22T07:35:42Z</time>
      </trkpt>
      <trkpt lat="44.58247" lon="0.96773">
        <ele>181</ele>
        <time>2012-01-22T07:35:43Z</time>
      </trkpt>
      <trkpt lat="44.58245" lon="0.96773">
        <ele>180</ele>
        <time>2012-01-22T07:35:44Z</time>
      </trkpt>
      <trkpt lat="44.58243" lon="0.96772">
        <ele>179</ele>
        <time>2012-01-22T07:35:45Z</time>
      </trkpt>
      <trkpt lat="44.58239" lon="0.96771">
        <ele>178</ele>
        <time>2012-01-22T07:35:50Z</time>
      </trkpt>
      <trkpt lat="44.58238" lon="0.96772">
        <ele>178</ele>
        <time>2012-01-22T07:35:53Z</time>
      </trkpt>
      <trkpt lat="44.58236" lon="0.96772">
        <ele>178</ele>
        <time>2012-01-22T07:35:54Z</time>
      </trkpt>
      <trkpt lat="44.58232" lon="0.96772">
        <ele>179</ele>
        <time>2012-01-22T07:36:01Z</time>
      </trkpt>
      <trkpt lat="44.58231" lon="0.96773">
        <ele>181</ele>
        <time>2012-01-22T07:36:03Z</time>
      </trkpt>
      <trkpt lat="44.58228" lon="0.96773">
        <ele>182</ele>
        <time>2012-01-22T07:36:07Z</time>
      </trkpt>
      <trkpt lat="44.58222" lon="0.96771">
        <ele>182</ele>
        <time>2012-01-22T07:36:08Z</time>
      </trkpt>
      <trkpt lat="44.5822" lon="0.96771">
        <ele>182</ele>
        <time>2012-01-22T07:36:09Z</time>
      </trkpt>
      <trkpt lat="44.58218" lon="0.96772">
        <ele>182</ele>
        <time>2012-01-22T07:36:10Z</time>
      </trkpt>
      <trkpt lat="44.58215" lon="0.96772">
        <ele>182</ele>
        <time>2012-01-22T07:36:14Z</time>
      </trkpt>
      <trkpt lat="44.58211" lon="0.96771">
        <ele>183</ele>
        <time>2012-01-22T07:36:15Z</time>
      </trkpt>
      <trkpt lat="44.5821" lon="0.9677">
        <ele>183</ele>
        <time>2012-01-22T07:36:17Z</time>
      </trkpt>
      <trkpt lat="44.58207" lon="0.96767">
        <ele>183</ele>
        <time>2012-01-22T07:36:25Z</time>
      </trkpt>
      <trkpt lat="44.58208" lon="0.96768">
        <ele>186</ele>
        <time>2012-01-22T07:36:34Z</time>
      </trkpt>
      <trkpt lat="44.58207" lon="0.96768">
        <ele>188</ele>
        <time>2012-01-22T07:36:36Z</time>
      </trkpt>
      <trkpt lat="44.58201" lon="0.96768">
        <ele>189</ele>
        <time>2012-01-22T07:36:42Z</time>
      </trkpt>
      <trkpt lat="44.582" lon="0.96769">
        <ele>191</ele>
        <time>2012-01-22T07:36:44Z</time>
      </trkpt>
      <trkpt lat="44.58191" lon="0.96767">
        <ele>192</ele>
        <time>2012-01-22T07:36:50Z</time>
      </trkpt>
      <trkpt lat="44.58189" lon="0.96767">
        <ele>192</ele>
        <time>2012-01-22T07:36:51Z</time>
      </trkpt>
      <trkpt lat="44.58182" lon="0.96766">
        <ele>192</ele>
        <time>2012-01-22T07:36:58Z</time>
      </trkpt>
      <trkpt lat="44.58176" lon="0.96763">
        <ele>192</ele>
        <time>2012-01-22T07:36:59Z</time>
      </trkpt>
      <trkpt lat="44.58173" lon="0.96763">
        <ele>192</ele>
        <time>2012-01-22T07:37:04Z</time>
      </trkpt>
      <trkpt lat="44.58169" lon="0.9676">
        <ele>192</ele>
        <time>2012-01-22T07:37:05Z</time>
      </trkpt>
      <trkpt lat="44.58168" lon="0.96759">
        <ele>192</ele>
        <time>2012-01-22T07:37:08Z</time>
      </trkpt>
      <trkpt lat="44.58167" lon="0.96757">
        <ele>192</ele>
        <time>2012-01-22T07:37:14Z</time>
      </trkpt>
      <trkpt lat="44.58165" lon="0.96756">
        <ele>191</ele>
        <time>2012-01-22T07:37:17Z</time>
      </trkpt>
      <trkpt lat="44.58165" lon="0.96754">
        <ele>191</ele>
        <time>2012-01-22T07:37:23Z</time>
      </trkpt>
      <trkpt lat="44.58162" lon="0.96753">
        <ele>191</ele>
        <time>2012-01-22T07:37:24Z</time>
      </trkpt>
      <trkpt lat="44.58162" lon="0.96751">
        <ele>191</ele>
        <time>2012-01-22T07:37:33Z</time>
      </trkpt>
      <trkpt lat="44.58159" lon="0.96748">
        <ele>191</ele>
        <time>2012-01-22T07:37:41Z</time>
      </trkpt>
      <trkpt lat="44.58159" lon="0.9675">
        <ele>193</ele>
        <time>2012-01-22T07:37:45Z</time>
      </trkpt>
      <trkpt lat="44.58158" lon="0.96751">
        <ele>195</ele>
        <time>2012-01-22T07:37:52Z</time>
      </trkpt>
      <trkpt lat="44.58148" lon="0.9675">
        <ele>196</ele>
        <time>2012-01-22T07:38:07Z</time>
      </trkpt>
      <trkpt lat="44.58146" lon="0.96749">
        <ele>196</ele>
        <time>2012-01-22T07:38:08Z</time>
      </trkpt>
      <trkpt lat="44.58137" lon="0.96748">
        <ele>196</ele>
        <time>2012-01-22T07:38:13Z</time>
      </trkpt>
      <trkpt lat="44.58136" lon="0.96746">
        <ele>196</ele>
        <time>2012-01-22T07:38:14Z</time>
      </trkpt>
      <trkpt lat="44.58134" lon="0.96746">
        <ele>196</ele>
        <time>2012-01-22T07:38:15Z</time>
      </trkpt>
      <trkpt lat="44.58125" lon="0.96746">
        <ele>196</ele>
        <time>2012-01-22T07:38:20Z</time>
      </trkpt>
      <trkpt lat="44.58123" lon="0.96746">
        <ele>195</ele>
        <time>2012-01-22T07:38:21Z</time>
      </trkpt>
      <trkpt lat="44.58121" lon="0.96746">
        <ele>194</ele>
        <time>2012-01-22T07:38:22Z</time>
      </trkpt>
      <trkpt lat="44.58118" lon="0.96746">
        <ele>193</ele>
        <time>2012-01-22T07:38:27Z</time>
      </trkpt>
      <trkpt lat="44.58109" lon="0.96746">
        <ele>192</ele>
        <time>2012-01-22T07:38:28Z</time>
      </trkpt>
      <trkpt lat="44.58106" lon="0.96746">
        <ele>191</ele>
        <time>2012-01-22T07:38:29Z</time>
      </trkpt>
      <trkpt lat="44.58093" lon="0.96746">
        <ele>190</ele>
        <time>2012-01-22T07:38:34Z</time>
      </trkpt>
      <trkpt lat="44.5809" lon="0.96747">
        <ele>189</ele>
        <time>2012-01-22T07:38:35Z</time>
      </trkpt>
      <trkpt lat="44.58088" lon="0.96747">
        <ele>188</ele>
        <time>2012-01-22T07:38:36Z</time>
      </trkpt>
      <trkpt lat="44.58083" lon="0.96745">
        <ele>187</ele>
        <time>2012-01-22T07:38:41Z</time>
      </trkpt>
      <trkpt lat="44.58072" lon="0.96742">
        <ele>186</ele>
        <time>2012-01-22T07:38:42Z</time>
      </trkpt>
      <trkpt lat="44.58068" lon="0.96742">
        <ele>185</ele>
        <time>2012-01-22T07:38:44Z</time>
      </trkpt>
      <trkpt lat="44.58065" lon="0.96741">
        <ele>183</ele>
        <time>2012-01-22T07:38:50Z</time>
      </trkpt>
      <trkpt lat="44.58056" lon="0.96739">
        <ele>182</ele>
        <time>2012-01-22T07:38:51Z</time>
      </trkpt>
      <trkpt lat="44.58053" lon="0.96739">
        <ele>181</ele>
        <time>2012-01-22T07:38:52Z</time>
      </trkpt>
      <trkpt lat="44.5805" lon="0.9674">
        <ele>180</ele>
        <time>2012-01-22T07:38:53Z</time>
      </trkpt>
      <trkpt lat="44.58043" lon="0.96742">
        <ele>179</ele>
        <time>2012-01-22T07:38:59Z</time>
      </trkpt>
      <trkpt lat="44.58029" lon="0.9675">
        <ele>178</ele>
        <time>2012-01-22T07:39:00Z</time>
      </trkpt>
      <trkpt lat="44.58027" lon="0.96753">
        <ele>177</ele>
        <time>2012-01-22T07:39:01Z</time>
      </trkpt>
      <trkpt lat="44.5802" lon="0.96756">
        <ele>177</ele>
        <time>2012-01-22T07:39:07Z</time>
      </trkpt>
      <trkpt lat="44.58004" lon="0.96764">
        <ele>176</ele>
        <time>2012-01-22T07:39:08Z</time>
      </trkpt>
      <trkpt lat="44.57994" lon="0.96769">
        <ele>176</ele>
        <time>2012-01-22T07:39:13Z</time>
      </trkpt>
      <trkpt lat="44.57979" lon="0.96776">
        <ele>175</ele>
        <time>2012-01-22T07:39:14Z</time>
      </trkpt>
      <trkpt lat="44.57975" lon="0.96778">
        <ele>174</ele>
        <time>2012-01-22T07:39:15Z</time>
      </trkpt>
      <trkpt lat="44.57967" lon="0.96781">
        <ele>173</ele>
        <time>2012-01-22T07:39:20Z</time>
      </trkpt>
      <trkpt lat="44.57957" lon="0.96798">
        <ele>172</ele>
        <time>2012-01-22T07:39:21Z</time>
      </trkpt>
      <trkpt lat="44.57955" lon="0.96803">
        <ele>171</ele>
        <time>2012-01-22T07:39:22Z</time>
      </trkpt>
      <trkpt lat="44.57952" lon="0.96807">
        <ele>170</ele>
        <time>2012-01-22T07:39:23Z</time>
      </trkpt>
      <trkpt lat="44.57949" lon="0.9681">
        <ele>169</ele>
        <time>2012-01-22T07:39:24Z</time>
      </trkpt>
      <trkpt lat="44.57944" lon="0.96815">
        <ele>168</ele>
        <time>2012-01-22T07:39:25Z</time>
      </trkpt>
      <trkpt lat="44.57936" lon="0.96823">
        <ele>167</ele>
        <time>2012-01-22T07:39:30Z</time>
      </trkpt>
      <trkpt lat="44.57916" lon="0.96836">
        <ele>165</ele>
        <time>2012-01-22T07:39:31Z</time>
      </trkpt>
      <trkpt lat="44.5791" lon="0.96839">
        <ele>163</ele>
        <time>2012-01-22T07:39:32Z</time>
      </trkpt>
      <trkpt lat="44.57874" lon="0.96854">
        <ele>161</ele>
        <time>2012-01-22T07:39:37Z</time>
      </trkpt>
      <trkpt lat="44.57868" lon="0.96852">
        <ele>159</ele>
        <time>2012-01-22T07:39:39Z</time>
      </trkpt>
      <trkpt lat="44.57863" lon="0.96848">
        <ele>156</ele>
        <time>2012-01-22T07:39:40Z</time>
      </trkpt>
      <trkpt lat="44.57858" lon="0.96843">
        <ele>153</ele>
        <time>2012-01-22T07:39:41Z</time>
      </trkpt>
      <trkpt lat="44.57853" lon="0.96837">
        <ele>150</ele>
        <time>2012-01-22T07:39:42Z</time>
      </trkpt>
      <trkpt lat="44.57827" lon="0.96788">
        <ele>147</ele>
        <time>2012-01-22T07:39:48Z</time>
      </trkpt>
      <trkpt lat="44.57823" lon="0.96779">
        <ele>145</ele>
        <time>2012-01-22T07:39:49Z</time>
      </trkpt>
      <trkpt lat="44.5782" lon="0.96771">
        <ele>143</ele>
        <time>2012-01-22T07:39:50Z</time>
      </trkpt>
      <trkpt lat="44.57814" lon="0.96757">
        <ele>141</ele>
        <time>2012-01-22T07:39:54Z</time>
      </trkpt>
      <trkpt lat="44.57806" lon="0.96732">
        <ele>139</ele>
        <time>2012-01-22T07:39:55Z</time>
      </trkpt>
      <trkpt lat="44.57804" lon="0.96724">
        <ele>137</ele>
        <time>2012-01-22T07:39:56Z</time>
      </trkpt>
      <trkpt lat="44.57796" lon="0.96713">
        <ele>135</ele>
        <time>2012-01-22T07:40:01Z</time>
      </trkpt>
      <trkpt lat="44.57781" lon="0.96694">
        <ele>133</ele>
        <time>2012-01-22T07:40:02Z</time>
      </trkpt>
      <trkpt lat="44.57779" lon="0.96689">
        <ele>131</ele>
        <time>2012-01-22T07:40:03Z</time>
      </trkpt>
      <trkpt lat="44.57778" lon="0.96685">
        <ele>129</ele>
        <time>2012-01-22T07:40:04Z</time>
      </trkpt>
      <trkpt lat="44.57774" lon="0.96683">
        <ele>127</ele>
        <time>2012-01-22T07:40:08Z</time>
      </trkpt>
      <trkpt lat="44.57767" lon="0.96692">
        <ele>125</ele>
        <time>2012-01-22T07:40:09Z</time>
      </trkpt>
      <trkpt lat="44.57763" lon="0.96697">
        <ele>124</ele>
        <time>2012-01-22T07:40:10Z</time>
      </trkpt>
      <trkpt lat="44.5776" lon="0.96702">
        <ele>123</ele>
        <time>2012-01-22T07:40:11Z</time>
      </trkpt>
      <trkpt lat="44.57747" lon="0.96711">
        <ele>122</ele>
        <time>2012-01-22T07:40:16Z</time>
      </trkpt>
      <trkpt lat="44.57739" lon="0.96718">
        <ele>121</ele>
        <time>2012-01-22T07:40:17Z</time>
      </trkpt>
      <trkpt lat="44.57738" lon="0.96723">
        <ele>120</ele>
        <time>2012-01-22T07:40:18Z</time>
      </trkpt>
      <trkpt lat="44.57739" lon="0.96733">
        <ele>119</ele>
        <time>2012-01-22T07:40:20Z</time>
      </trkpt>
      <trkpt lat="44.57741" lon="0.96744">
        <ele>118</ele>
        <time>2012-01-22T07:40:25Z</time>
      </trkpt>
      <trkpt lat="44.57745" lon="0.96762">
        <ele>117</ele>
        <time>2012-01-22T07:40:25Z</time>
      </trkpt>
      <trkpt lat="44.57747" lon="0.9677">
        <ele>116</ele>
        <time>2012-01-22T07:40:31Z</time>
      </trkpt>
      <trkpt lat="44.57753" lon="0.96787">
        <ele>115</ele>
        <time>2012-01-22T07:40:32Z</time>
      </trkpt>
      <trkpt lat="44.57754" lon="0.9679">
        <ele>115</ele>
        <time>2012-01-22T07:40:33Z</time>
      </trkpt>
      <trkpt lat="44.57758" lon="0.96799">
        <ele>115</ele>
        <time>2012-01-22T07:40:37Z</time>
      </trkpt>
      <trkpt lat="44.57764" lon="0.96811">
        <ele>115</ele>
        <time>2012-01-22T07:40:38Z</time>
      </trkpt>
      <trkpt lat="44.57766" lon="0.96816">
        <ele>115</ele>
        <time>2012-01-22T07:40:39Z</time>
      </trkpt>
      <trkpt lat="44.57771" lon="0.96824">
        <ele>115</ele>
        <time>2012-01-22T07:40:44Z</time>
      </trkpt>
      <trkpt lat="44.5778" lon="0.96842">
        <ele>115</ele>
        <time>2012-01-22T07:40:45Z</time>
      </trkpt>
      <trkpt lat="44.57783" lon="0.96846">
        <ele>115</ele>
        <time>2012-01-22T07:40:46Z</time>
      </trkpt>
      <trkpt lat="44.57788" lon="0.96855">
        <ele>115</ele>
        <time>2012-01-22T07:40:51Z</time>
      </trkpt>
      <trkpt lat="44.57797" lon="0.9687">
        <ele>115</ele>
        <time>2012-01-22T07:40:52Z</time>
      </trkpt>
      <trkpt lat="44.578" lon="0.96874">
        <ele>114</ele>
        <time>2012-01-22T07:40:53Z</time>
      </trkpt>
      <trkpt lat="44.57812" lon="0.96891">
        <ele>114</ele>
        <time>2012-01-22T07:40:58Z</time>
      </trkpt>
      <trkpt lat="44.57815" lon="0.96894">
        <ele>113</ele>
        <time>2012-01-22T07:40:59Z</time>
      </trkpt>
      <trkpt lat="44.57821" lon="0.96902">
        <ele>113</ele>
        <time>2012-01-22T07:41:04Z</time>
      </trkpt>
      <trkpt lat="44.57835" lon="0.96913">
        <ele>112</ele>
        <time>2012-01-22T07:41:05Z</time>
      </trkpt>
      <trkpt lat="44.57837" lon="0.96915">
        <ele>111</ele>
        <time>2012-01-22T07:41:06Z</time>
      </trkpt>
      <trkpt lat="44.57839" lon="0.96916">
        <ele>110</ele>
        <time>2012-01-22T07:41:07Z</time>
      </trkpt>
      <trkpt lat="44.57844" lon="0.96918">
        <ele>110</ele>
        <time>2012-01-22T07:41:12Z</time>
      </trkpt>
      <trkpt lat="44.57854" lon="0.96923">
        <ele>109</ele>
        <time>2012-01-22T07:41:13Z</time>
      </trkpt>
      <trkpt lat="44.57857" lon="0.96925">
        <ele>109</ele>
        <time>2012-01-22T07:41:14Z</time>
      </trkpt>
      <trkpt lat="44.57859" lon="0.96927">
        <ele>109</ele>
        <time>2012-01-22T07:41:19Z</time>
      </trkpt>
      <trkpt lat="44.57861" lon="0.96927">
        <ele>109</ele>
        <time>2012-01-22T07:41:21Z</time>
      </trkpt>
      <trkpt lat="44.57859" lon="0.96926">
        <ele>109</ele>
        <time>2012-01-22T07:41:29Z</time>
      </trkpt>
      <trkpt lat="44.57861" lon="0.96926">
        <ele>109</ele>
        <time>2012-01-22T07:41:30Z</time>
      </trkpt>
      <trkpt lat="44.57862" lon="0.96925">
        <ele>107</ele>
        <time>2012-01-22T07:41:38Z</time>
      </trkpt>
      <trkpt lat="44.57861" lon="0.96925">
        <ele>106</ele>
        <time>2012-01-22T07:41:49Z</time>
      </trkpt>
      <trkpt lat="44.57861" lon="0.96927">
        <ele>106</ele>
        <time>2012-01-22T07:41:56Z</time>
      </trkpt>
      <trkpt lat="44.57861" lon="0.96929">
        <ele>106</ele>
        <time>2012-01-22T07:41:57Z</time>
      </trkpt>
      <trkpt lat="44.57859" lon="0.96928">
        <ele>106</ele>
        <time>2012-01-22T07:42:04Z</time>
      </trkpt>
      <trkpt lat="44.57858" lon="0.96926">
        <ele>106</ele>
        <time>2012-01-22T07:42:05Z</time>
      </trkpt>
      <trkpt lat="44.57859" lon="0.96927">
        <ele>104</ele>
        <time>2012-01-22T07:42:13Z</time>
      </trkpt>
      <trkpt lat="44.57861" lon="0.9693">
        <ele>102</ele>
        <time>2012-01-22T07:42:21Z</time>
      </trkpt>
      <trkpt lat="44.57867" lon="0.9693">
        <ele>102</ele>
        <time>2012-01-22T07:42:23Z</time>
      </trkpt>
      <trkpt lat="44.57876" lon="0.96933">
        <ele>102</ele>
        <time>2012-01-22T07:42:29Z</time>
      </trkpt>
      <trkpt lat="44.57894" lon="0.96938">
        <ele>102</ele>
        <time>2012-01-22T07:42:30Z</time>
      </trkpt>
      <trkpt lat="44.57902" lon="0.96938">
        <ele>102</ele>
        <time>2012-01-22T07:42:35Z</time>
      </trkpt>
      <trkpt lat="44.57915" lon="0.96939">
        <ele>102</ele>
        <time>2012-01-22T07:42:36Z</time>
      </trkpt>
      <trkpt lat="44.57919" lon="0.9694">
        <ele>102</ele>
        <time>2012-01-22T07:42:37Z</time>
      </trkpt>
      <trkpt lat="44.57925" lon="0.9694">
        <ele>102</ele>
        <time>2012-01-22T07:42:42Z</time>
      </trkpt>
      <trkpt lat="44.57938" lon="0.96944">
        <ele>102</ele>
        <time>2012-01-22T07:42:43Z</time>
      </trkpt>
      <trkpt lat="44.57941" lon="0.96944">
        <ele>102</ele>
        <time>2012-01-22T07:42:44Z</time>
      </trkpt>
      <trkpt lat="44.57947" lon="0.96946">
        <ele>102</ele>
        <time>2012-01-22T07:42:49Z</time>
      </trkpt>
      <trkpt lat="44.57953" lon="0.96947">
        <ele>102</ele>
        <time>2012-01-22T07:42:50Z</time>
      </trkpt>
      <trkpt lat="44.57955" lon="0.96948">
        <ele>102</ele>
        <time>2012-01-22T07:43:00Z</time>
      </trkpt>
      <trkpt lat="44.57956" lon="0.96948">
        <ele>102</ele>
        <time>2012-01-22T07:43:01Z</time>
      </trkpt>
      <trkpt lat="44.57958" lon="0.96948">
        <ele>102</ele>
        <time>2012-01-22T07:43:02Z</time>
      </trkpt>
      <trkpt lat="44.57959" lon="0.96948">
        <ele>102</ele>
        <time>2012-01-22T07:43:03Z</time>
      </trkpt>
      <trkpt lat="44.57964" lon="0.96948">
        <ele>102</ele>
        <time>2012-01-22T07:43:09Z</time>
      </trkpt>
      <trkpt lat="44.57974" lon="0.96951">
        <ele>102</ele>
        <time>2012-01-22T07:43:10Z</time>
      </trkpt>
      <trkpt lat="44.57981" lon="0.96954">
        <ele>102</ele>
        <time>2012-01-22T07:43:15Z</time>
      </trkpt>
      <trkpt lat="44.57993" lon="0.96959">
        <ele>102</ele>
        <time>2012-01-22T07:43:16Z</time>
      </trkpt>
      <trkpt lat="44.57996" lon="0.96961">
        <ele>102</ele>
        <time>2012-01-22T07:43:17Z</time>
      </trkpt>
      <trkpt lat="44.58013" lon="0.96969">
        <ele>102</ele>
        <time>2012-01-22T07:43:23Z</time>
      </trkpt>
      <trkpt lat="44.58015" lon="0.9697">
        <ele>102</ele>
        <time>2012-01-22T07:43:24Z</time>
      </trkpt>
      <trkpt lat="44.58019" lon="0.96971">
        <ele>102</ele>
        <time>2012-01-22T07:43:25Z</time>
      </trkpt>
      <trkpt lat="44.58025" lon="0.96974">
        <ele>103</ele>
        <time>2012-01-22T07:43:30Z</time>
      </trkpt>
      <trkpt lat="44.58039" lon="0.96977">
        <ele>103</ele>
        <time>2012-01-22T07:43:30Z</time>
      </trkpt>
      <trkpt lat="44.58044" lon="0.96979">
        <ele>104</ele>
        <time>2012-01-22T07:43:32Z</time>
      </trkpt>
      <trkpt lat="44.58055" lon="0.96984">
        <ele>104</ele>
        <time>2012-01-22T07:43:37Z</time>
      </trkpt>
      <trkpt lat="44.58077" lon="0.96994">
        <ele>105</ele>
        <time>2012-01-22T07:43:38Z</time>
      </trkpt>
      <trkpt lat="44.58082" lon="0.96997">
        <ele>105</ele>
        <time>2012-01-22T07:43:39Z</time>
      </trkpt>
      <trkpt lat="44.58087" lon="0.97">
        <ele>105</ele>
        <time>2012-01-22T07:43:40Z</time>
      </trkpt>
      <trkpt lat="44.58097" lon="0.97005">
        <ele>105</ele>
        <time>2012-01-22T07:43:45Z</time>
      </trkpt>
      <trkpt lat="44.58115" lon="0.97012">
        <ele>105</ele>
        <time>2012-01-22T07:43:46Z</time>
      </trkpt>
      <trkpt lat="44.58119" lon="0.97012">
        <ele>106</ele>
        <time>2012-01-22T07:43:47Z</time>
      </trkpt>
      <trkpt lat="44.58128" lon="0.97012">
        <ele>106</ele>
        <time>2012-01-22T07:43:52Z</time>
      </trkpt>
      <trkpt lat="44.58148" lon="0.9701">
        <ele>107</ele>
        <time>2012-01-22T07:43:53Z</time>
      </trkpt>
      <trkpt lat="44.58153" lon="0.97009">
        <ele>108</ele>
        <time>2012-01-22T07:43:54Z</time>
      </trkpt>
      <trkpt lat="44.58162" lon="0.97005">
        <ele>109</ele>
        <time>2012-01-22T07:44:00Z</time>
      </trkpt>
      <trkpt lat="44.58184" lon="0.9699">
        <ele>109</ele>
        <time>2012-01-22T07:44:01Z</time>
      </trkpt>
      <trkpt lat="44.58189" lon="0.96986">
        <ele>109</ele>
        <time>2012-01-22T07:44:02Z</time>
      </trkpt>
      <trkpt lat="44.58194" lon="0.96984">
        <ele>109</ele>
        <time>2012-01-22T07:44:03Z</time>
      </trkpt>
      <trkpt lat="44.58204" lon="0.96979">
        <ele>109</ele>
        <time>2012-01-22T07:44:08Z</time>
      </trkpt>
      <trkpt lat="44.58223" lon="0.96971">
        <ele>109</ele>
        <time>2012-01-22T07:44:09Z</time>
      </trkpt>
      <trkpt lat="44.58228" lon="0.9697">
        <ele>109</ele>
        <time>2012-01-22T07:44:10Z</time>
      </trkpt>
      <trkpt lat="44.5825" lon="0.96962">
        <ele>109</ele>
        <time>2012-01-22T07:44:15Z</time>
      </trkpt>
      <trkpt lat="44.58254" lon="0.96962">
        <ele>109</ele>
        <time>2012-01-22T07:44:16Z</time>
      </trkpt>
      <trkpt lat="44.58263" lon="0.96959">
        <ele>109</ele>
        <time>2012-01-22T07:44:21Z</time>
      </trkpt>
      <trkpt lat="44.58283" lon="0.96954">
        <ele>109</ele>
        <time>2012-01-22T07:44:22Z</time>
      </trkpt>
      <trkpt lat="44.58288" lon="0.96952">
        <ele>108</ele>
        <time>2012-01-22T07:44:23Z</time>
      </trkpt>
      <trkpt lat="44.58297" lon="0.96949">
        <ele>108</ele>
        <time>2012-01-22T07:44:27Z</time>
      </trkpt>
      <trkpt lat="44.5831" lon="0.96943">
        <ele>108</ele>
        <time>2012-01-22T07:44:28Z</time>
      </trkpt>
      <trkpt lat="44.58315" lon="0.96943">
        <ele>108</ele>
        <time>2012-01-22T07:44:28Z</time>
      </trkpt>
      <trkpt lat="44.58334" lon="0.96938">
        <ele>108</ele>
        <time>2012-01-22T07:44:34Z</time>
      </trkpt>
      <trkpt lat="44.58338" lon="0.96938">
        <ele>108</ele>
        <time>2012-01-22T07:44:35Z</time>
      </trkpt>
      <trkpt lat="44.58345" lon="0.96934">
        <ele>108</ele>
        <time>2012-01-22T07:44:40Z</time>
      </trkpt>
      <trkpt lat="44.58364" lon="0.96924">
        <ele>108</ele>
        <time>2012-01-22T07:44:41Z</time>
      </trkpt>
      <trkpt lat="44.58371" lon="0.96921">
        <ele>109</ele>
        <time>2012-01-22T07:44:42Z</time>
      </trkpt>
      <trkpt lat="44.58383" lon="0.96915">
        <ele>109</ele>
        <time>2012-01-22T07:44:46Z</time>
      </trkpt>
      <trkpt lat="44.58399" lon="0.96904">
        <ele>109</ele>
        <time>2012-01-22T07:44:46Z</time>
      </trkpt>
      <trkpt lat="44.58406" lon="0.96901">
        <ele>109</ele>
        <time>2012-01-22T07:44:48Z</time>
      </trkpt>
      <trkpt lat="44.58416" lon="0.96899">
        <ele>109</ele>
        <time>2012-01-22T07:44:53Z</time>
      </trkpt>
      <trkpt lat="44.58436" lon="0.96887">
        <ele>109</ele>
        <time>2012-01-22T07:44:54Z</time>
      </trkpt>
      <trkpt lat="44.5844" lon="0.96884">
        <ele>109</ele>
        <time>2012-01-22T07:44:54Z</time>
      </trkpt>
      <trkpt lat="44.5845" lon="0.96878">
        <ele>109</ele>
        <time>2012-01-22T07:44:59Z</time>
      </trkpt>
      <trkpt lat="44.58463" lon="0.96872">
        <ele>109</ele>
        <time>2012-01-22T07:44:59Z</time>
      </trkpt>
      <trkpt lat="44.58467" lon="0.96871">
        <ele>109</ele>
        <time>2012-01-22T07:45:01Z</time>
      </trkpt>
      <trkpt lat="44.58474" lon="0.96868">
        <ele>109</ele>
        <time>2012-01-22T07:45:06Z</time>
      </trkpt>
      <trkpt lat="44.5849" lon="0.96859">
        <ele>109</ele>
        <time>2012-01-22T07:45:07Z</time>
      </trkpt>
      <trkpt lat="44.58494" lon="0.96857">
        <ele>109</ele>
        <time>2012-01-22T07:45:08Z</time>
      </trkpt>
      <trkpt lat="44.58502" lon="0.96852">
        <ele>109</ele>
        <time>2012-01-22T07:45:12Z</time>
      </trkpt>
      <trkpt lat="44.58513" lon="0.96846">
        <ele>109</ele>
        <time>2012-01-22T07:45:13Z</time>
      </trkpt>
      <trkpt lat="44.58517" lon="0.96844">
        <ele>109</ele>
        <time>2012-01-22T07:45:13Z</time>
      </trkpt>
      <trkpt lat="44.58525" lon="0.96837">
        <ele>109</ele>
        <time>2012-01-22T07:45:19Z</time>
      </trkpt>
      <trkpt lat="44.5854" lon="0.96832">
        <ele>109</ele>
        <time>2012-01-22T07:45:20Z</time>
      </trkpt>
      <trkpt lat="44.58544" lon="0.9683">
        <ele>109</ele>
        <time>2012-01-22T07:45:20Z</time>
      </trkpt>
      <trkpt lat="44.58568" lon="0.96821">
        <ele>109</ele>
        <time>2012-01-22T07:45:26Z</time>
      </trkpt>
      <trkpt lat="44.58573" lon="0.9682">
        <ele>109</ele>
        <time>2012-01-22T07:45:27Z</time>
      </trkpt>
      <trkpt lat="44.58583" lon="0.96817">
        <ele>109</ele>
        <time>2012-01-22T07:45:32Z</time>
      </trkpt>
      <trkpt lat="44.586" lon="0.96808">
        <ele>109</ele>
        <time>2012-01-22T07:45:33Z</time>
      </trkpt>
      <trkpt lat="44.58604" lon="0.96805">
        <ele>109</ele>
        <time>2012-01-22T07:45:33Z</time>
      </trkpt>
      <trkpt lat="44.58612" lon="0.96798">
        <ele>109</ele>
        <time>2012-01-22T07:45:39Z</time>
      </trkpt>
      <trkpt lat="44.58626" lon="0.96786">
        <ele>109</ele>
        <time>2012-01-22T07:45:39Z</time>
      </trkpt>
      <trkpt lat="44.58629" lon="0.96781">
        <ele>109</ele>
        <time>2012-01-22T07:45:41Z</time>
      </trkpt>
      <trkpt lat="44.58631" lon="0.96776">
        <ele>109</ele>
        <time>2012-01-22T07:45:42Z</time>
      </trkpt>
      <trkpt lat="44.58636" lon="0.96767">
        <ele>109</ele>
        <time>2012-01-22T07:45:47Z</time>
      </trkpt>
      <trkpt lat="44.58645" lon="0.9675">
        <ele>109</ele>
        <time>2012-01-22T07:45:48Z</time>
      </trkpt>
      <trkpt lat="44.58648" lon="0.96747">
        <ele>109</ele>
        <time>2012-01-22T07:45:48Z</time>
      </trkpt>
      <trkpt lat="44.58659" lon="0.96732">
        <ele>109</ele>
        <time>2012-01-22T07:45:54Z</time>
      </trkpt>
      <trkpt lat="44.58663" lon="0.96729">
        <ele>109</ele>
        <time>2012-01-22T07:45:55Z</time>
      </trkpt>
      <trkpt lat="44.58669" lon="0.9672">
        <ele>109</ele>
        <time>2012-01-22T07:46:00Z</time>
      </trkpt>
      <trkpt lat="44.58682" lon="0.96708">
        <ele>109</ele>
        <time>2012-01-22T07:46:01Z</time>
      </trkpt>
      <trkpt lat="44.58686" lon="0.96704">
        <ele>109</ele>
        <time>2012-01-22T07:46:02Z</time>
      </trkpt>
      <trkpt lat="44.5869" lon="0.967">
        <ele>109</ele>
        <time>2012-01-22T07:46:03Z</time>
      </trkpt>
      <trkpt lat="44.58706" lon="0.96686">
        <ele>109</ele>
        <time>2012-01-22T07:46:08Z</time>
      </trkpt>
      <trkpt lat="44.58709" lon="0.96683">
        <ele>109</ele>
        <time>2012-01-22T07:46:09Z</time>
      </trkpt>
      <trkpt lat="44.58715" lon="0.96679">
        <ele>109</ele>
        <time>2012-01-22T07:46:14Z</time>
      </trkpt>
      <trkpt lat="44.58725" lon="0.96664">
        <ele>109</ele>
        <time>2012-01-22T07:46:14Z</time>
      </trkpt>
      <trkpt lat="44.58727" lon="0.96659">
        <ele>109</ele>
        <time>2012-01-22T07:46:15Z</time>
      </trkpt>
      <trkpt lat="44.58728" lon="0.96654">
        <ele>109</ele>
        <time>2012-01-22T07:46:17Z</time>
      </trkpt>
      <trkpt lat="44.58731" lon="0.96648">
        <ele>110</ele>
        <time>2012-01-22T07:46:22Z</time>
      </trkpt>
      <trkpt lat="44.58739" lon="0.96636">
        <ele>111</ele>
        <time>2012-01-22T07:46:23Z</time>
      </trkpt>
      <trkpt lat="44.58742" lon="0.96635">
        <ele>111</ele>
        <time>2012-01-22T07:46:24Z</time>
      </trkpt>
      <trkpt lat="44.58744" lon="0.96634">
        <ele>112</ele>
        <time>2012-01-22T07:46:25Z</time>
      </trkpt>
      <trkpt lat="44.58746" lon="0.96634">
        <ele>113</ele>
        <time>2012-01-22T07:46:26Z</time>
      </trkpt>
      <trkpt lat="44.58748" lon="0.96633">
        <ele>113</ele>
        <time>2012-01-22T07:46:27Z</time>
      </trkpt>
      <trkpt lat="44.58753" lon="0.96631">
        <ele>113</ele>
        <time>2012-01-22T07:46:32Z</time>
      </trkpt>
      <trkpt lat="44.58762" lon="0.96624">
        <ele>114</ele>
        <time>2012-01-22T07:46:32Z</time>
      </trkpt>
      <trkpt lat="44.58764" lon="0.96622">
        <ele>114</ele>
        <time>2012-01-22T07:46:34Z</time>
      </trkpt>
      <trkpt lat="44.58766" lon="0.9662">
        <ele>114</ele>
        <time>2012-01-22T07:46:34Z</time>
      </trkpt>
      <trkpt lat="44.58771" lon="0.96619">
        <ele>114</ele>
        <time>2012-01-22T07:46:40Z</time>
      </trkpt>
      <trkpt lat="44.58787" lon="0.96619">
        <ele>114</ele>
        <time>2012-01-22T07:46:41Z</time>
      </trkpt>
      <trkpt lat="44.58791" lon="0.96619">
        <ele>114</ele>
        <time>2012-01-22T07:46:42Z</time>
      </trkpt>
      <trkpt lat="44.58799" lon="0.96621">
        <ele>114</ele>
        <time>2012-01-22T07:46:47Z</time>
      </trkpt>
      <trkpt lat="44.58814" lon="0.96622">
        <ele>114</ele>
        <time>2012-01-22T07:46:47Z</time>
      </trkpt>
      <trkpt lat="44.58817" lon="0.96621">
        <ele>114</ele>
        <time>2012-01-22T07:46:48Z</time>
      </trkpt>
      <trkpt lat="44.5882" lon="0.9662">
        <ele>114</ele>
        <time>2012-01-22T07:46:50Z</time>
      </trkpt>
      <trkpt lat="44.58828" lon="0.9662">
        <ele>114</ele>
        <time>2012-01-22T07:46:55Z</time>
      </trkpt>
      <trkpt lat="44.58852" lon="0.9662">
        <ele>114</ele>
        <time>2012-01-22T07:46:56Z</time>
      </trkpt>
      <trkpt lat="44.58857" lon="0.96619">
        <ele>114</ele>
        <time>2012-01-22T07:46:56Z</time>
      </trkpt>
      <trkpt lat="44.58865" lon="0.9662">
        <ele>114</ele>
        <time>2012-01-22T07:47:02Z</time>
      </trkpt>
      <trkpt lat="44.58886" lon="0.9663">
        <ele>114</ele>
        <time>2012-01-22T07:47:02Z</time>
      </trkpt>
      <trkpt lat="44.58891" lon="0.96633">
        <ele>114</ele>
        <time>2012-01-22T07:47:04Z</time>
      </trkpt>
      <trkpt lat="44.58895" lon="0.96635">
        <ele>114</ele>
        <time>2012-01-22T07:47:05Z</time>
      </trkpt>
      <trkpt lat="44.58903" lon="0.9664">
        <ele>113</ele>
        <time>2012-01-22T07:47:10Z</time>
      </trkpt>
      <trkpt lat="44.58915" lon="0.96645">
        <ele>113</ele>
        <time>2012-01-22T07:47:10Z</time>
      </trkpt>
      <trkpt lat="44.58918" lon="0.96644">
        <ele>113</ele>
        <time>2012-01-22T07:47:12Z</time>
      </trkpt>
      <trkpt lat="44.58921" lon="0.96645">
        <ele>112</ele>
        <time>2012-01-22T07:47:13Z</time>
      </trkpt>
      <trkpt lat="44.58924" lon="0.96646">
        <ele>112</ele>
        <time>2012-01-22T07:47:13Z</time>
      </trkpt>
      <trkpt lat="44.58945" lon="0.96649">
        <ele>111</ele>
        <time>2012-01-22T07:47:20Z</time>
      </trkpt>
      <trkpt lat="44.58949" lon="0.9665">
        <ele>111</ele>
        <time>2012-01-22T07:47:21Z</time>
      </trkpt>
      <trkpt lat="44.58956" lon="0.96652">
        <ele>111</ele>
        <time>2012-01-22T07:47:26Z</time>
      </trkpt>
      <trkpt lat="44.58973" lon="0.96658">
        <ele>111</ele>
        <time>2012-01-22T07:47:26Z</time>
      </trkpt>
      <trkpt lat="44.58978" lon="0.9666">
        <ele>111</ele>
        <time>2012-01-22T07:47:27Z</time>
      </trkpt>
      <trkpt lat="44.58986" lon="0.96663">
        <ele>111</ele>
        <time>2012-01-22T07:47:33Z</time>
      </trkpt>
      <trkpt lat="44.59005" lon="0.96671">
        <ele>111</ele>
        <time>2012-01-22T07:47:33Z</time>
      </trkpt>
      <trkpt lat="44.59009" lon="0.96673">
        <ele>111</ele>
        <time>2012-01-22T07:47:34Z</time>
      </trkpt>
      <trkpt lat="44.59018" lon="0.96676">
        <ele>111</ele>
        <time>2012-01-22T07:47:40Z</time>
      </trkpt>
      <trkpt lat="44.59036" lon="0.96679">
        <ele>111</ele>
        <time>2012-01-22T07:47:40Z</time>
      </trkpt>
      <trkpt lat="44.5904" lon="0.96679">
        <ele>111</ele>
        <time>2012-01-22T07:47:41Z</time>
      </trkpt>
      <trkpt lat="44.5905" lon="0.96679">
        <ele>111</ele>
        <time>2012-01-22T07:47:47Z</time>
      </trkpt>
      <trkpt lat="44.59068" lon="0.96675">
        <ele>111</ele>
        <time>2012-01-22T07:47:47Z</time>
      </trkpt>
      <trkpt lat="44.59072" lon="0.96673">
        <ele>111</ele>
        <time>2012-01-22T07:47:48Z</time>
      </trkpt>
      <trkpt lat="44.59077" lon="0.96671">
        <ele>111</ele>
        <time>2012-01-22T07:47:50Z</time>
      </trkpt>
      <trkpt lat="44.59087" lon="0.96664">
        <ele>111</ele>
        <time>2012-01-22T07:47:55Z</time>
      </trkpt>
      <trkpt lat="44.59106" lon="0.9665">
        <ele>111</ele>
        <time>2012-01-22T07:47:55Z</time>
      </trkpt>
      <trkpt lat="44.5911" lon="0.96646">
        <ele>111</ele>
        <time>2012-01-22T07:47:56Z</time>
      </trkpt>
      <trkpt lat="44.59136" lon="0.96621">
        <ele>111</ele>
        <time>2012-01-22T07:48:02Z</time>
      </trkpt>
      <trkpt lat="44.59139" lon="0.96616">
        <ele>111</ele>
        <time>2012-01-22T07:48:03Z</time>
      </trkpt>
      <trkpt lat="44.59157" lon="0.96589">
        <ele>111</ele>
        <time>2012-01-22T07:48:10Z</time>
      </trkpt>
      <trkpt lat="44.59159" lon="0.96584">
        <ele>111</ele>
        <time>2012-01-22T07:48:10Z</time>
      </trkpt>
      <trkpt lat="44.59161" lon="0.96579">
        <ele>111</ele>
        <time>2012-01-22T07:48:11Z</time>
      </trkpt>
      <trkpt lat="44.59165" lon="0.96569">
        <ele>111</ele>
        <time>2012-01-22T07:48:17Z</time>
      </trkpt>
      <trkpt lat="44.59172" lon="0.96549">
        <ele>111</ele>
        <time>2012-01-22T07:48:17Z</time>
      </trkpt>
      <trkpt lat="44.59172" lon="0.96544">
        <ele>111</ele>
        <time>2012-01-22T07:48:18Z</time>
      </trkpt>
      <trkpt lat="44.59175" lon="0.96535">
        <ele>111</ele>
        <time>2012-01-22T07:48:24Z</time>
      </trkpt>
      <trkpt lat="44.59179" lon="0.96516">
        <ele>112</ele>
        <time>2012-01-22T07:48:24Z</time>
      </trkpt>
      <trkpt lat="44.5918" lon="0.96511">
        <ele>112</ele>
        <time>2012-01-22T07:48:25Z</time>
      </trkpt>
      <trkpt lat="44.59188" lon="0.9648">
        <ele>112</ele>
        <time>2012-01-22T07:48:32Z</time>
      </trkpt>
      <trkpt lat="44.59189" lon="0.96475">
        <ele>113</ele>
        <time>2012-01-22T07:48:32Z</time>
      </trkpt>
      <trkpt lat="44.59191" lon="0.96465">
        <ele>113</ele>
        <time>2012-01-22T07:48:39Z</time>
      </trkpt>
      <trkpt lat="44.59206" lon="0.96438">
        <ele>113</ele>
        <time>2012-01-22T07:48:39Z</time>
      </trkpt>
      <trkpt lat="44.59211" lon="0.96434">
        <ele>113</ele>
        <time>2012-01-22T07:48:40Z</time>
      </trkpt>
      <trkpt lat="44.59217" lon="0.9643">
        <ele>113</ele>
        <time>2012-01-22T07:48:42Z</time>
      </trkpt>
      <trkpt lat="44.59223" lon="0.9643">
        <ele>113</ele>
        <time>2012-01-22T07:48:43Z</time>
      </trkpt>
      <trkpt lat="44.59236" lon="0.96432">
        <ele>113</ele>
        <time>2012-01-22T07:48:49Z</time>
      </trkpt>
      <trkpt lat="44.59267" lon="0.96444">
        <ele>113</ele>
        <time>2012-01-22T07:48:50Z</time>
      </trkpt>
      <trkpt lat="44.59276" lon="0.96446">
        <ele>113</ele>
        <time>2012-01-22T07:48:52Z</time>
      </trkpt>
      <trkpt lat="44.59298" lon="0.96418">
        <ele>113</ele>
        <time>2012-01-22T07:48:59Z</time>
      </trkpt>
      <trkpt lat="44.59301" lon="0.96413">
        <ele>113</ele>
        <time>2012-01-22T07:49:00Z</time>
      </trkpt>
      <trkpt lat="44.59303" lon="0.96409">
        <ele>113</ele>
        <time>2012-01-22T07:49:00Z</time>
      </trkpt>
      <trkpt lat="44.59309" lon="0.96399">
        <ele>114</ele>
        <time>2012-01-22T07:49:06Z</time>
      </trkpt>
      <trkpt lat="44.59319" lon="0.96381">
        <ele>115</ele>
        <time>2012-01-22T07:49:06Z</time>
      </trkpt>
      <trkpt lat="44.59322" lon="0.96377">
        <ele>116</ele>
        <time>2012-01-22T07:49:07Z</time>
      </trkpt>
      <trkpt lat="44.59338" lon="0.96354">
        <ele>117</ele>
        <time>2012-01-22T07:49:14Z</time>
      </trkpt>
      <trkpt lat="44.59341" lon="0.9635">
        <ele>118</ele>
        <time>2012-01-22T07:49:14Z</time>
      </trkpt>
      <trkpt lat="44.59343" lon="0.96346">
        <ele>119</ele>
        <time>2012-01-22T07:49:16Z</time>
      </trkpt>
      <trkpt lat="44.59349" lon="0.96338">
        <ele>120</ele>
        <time>2012-01-22T07:49:20Z</time>
      </trkpt>
      <trkpt lat="44.59357" lon="0.96326">
        <ele>121</ele>
        <time>2012-01-22T07:49:20Z</time>
      </trkpt>
      <trkpt lat="44.5936" lon="0.96321">
        <ele>122</ele>
        <time>2012-01-22T07:49:21Z</time>
      </trkpt>
      <trkpt lat="44.59366" lon="0.96311">
        <ele>122</ele>
        <time>2012-01-22T07:49:26Z</time>
      </trkpt>
      <trkpt lat="44.59374" lon="0.96295">
        <ele>122</ele>
        <time>2012-01-22T07:49:27Z</time>
      </trkpt>
      <trkpt lat="44.59376" lon="0.9629">
        <ele>122</ele>
        <time>2012-01-22T07:49:27Z</time>
      </trkpt>
      <trkpt lat="44.59381" lon="0.96279">
        <ele>122</ele>
        <time>2012-01-22T07:49:33Z</time>
      </trkpt>
      <trkpt lat="44.59388" lon="0.96259">
        <ele>122</ele>
        <time>2012-01-22T07:49:33Z</time>
      </trkpt>
      <trkpt lat="44.5939" lon="0.96253">
        <ele>122</ele>
        <time>2012-01-22T07:49:34Z</time>
      </trkpt>
      <trkpt lat="44.59392" lon="0.96241">
        <ele>122</ele>
        <time>2012-01-22T07:49:39Z</time>
      </trkpt>
      <trkpt lat="44.59395" lon="0.96221">
        <ele>122</ele>
        <time>2012-01-22T07:49:39Z</time>
      </trkpt>
      <trkpt lat="44.59396" lon="0.96215">
        <ele>122</ele>
        <time>2012-01-22T07:49:40Z</time>
      </trkpt>
      <trkpt lat="44.59398" lon="0.96202">
        <ele>122</ele>
        <time>2012-01-22T07:49:45Z</time>
      </trkpt>
      <trkpt lat="44.59401" lon="0.96183">
        <ele>122</ele>
        <time>2012-01-22T07:49:45Z</time>
      </trkpt>
      <trkpt lat="44.59402" lon="0.96177">
        <ele>122</ele>
        <time>2012-01-22T07:49:46Z</time>
      </trkpt>
      <trkpt lat="44.59421" lon="0.96165">
        <ele>122</ele>
        <time>2012-01-22T07:49:52Z</time>
      </trkpt>
      <trkpt lat="44.59425" lon="0.96165">
        <ele>122</ele>
        <time>2012-01-22T07:49:53Z</time>
      </trkpt>
      <trkpt lat="44.59429" lon="0.96166">
        <ele>122</ele>
        <time>2012-01-22T07:49:54Z</time>
      </trkpt>
      <trkpt lat="44.59438" lon="0.96167">
        <ele>122</ele>
        <time>2012-01-22T07:49:58Z</time>
      </trkpt>
      <trkpt lat="44.59449" lon="0.96167">
        <ele>122</ele>
        <time>2012-01-22T07:49:58Z</time>
      </trkpt>
      <trkpt lat="44.59454" lon="0.96167">
        <ele>122</ele>
        <time>2012-01-22T07:49:59Z</time>
      </trkpt>
      <trkpt lat="44.59462" lon="0.96167">
        <ele>122</ele>
        <time>2012-01-22T07:50:05Z</time>
      </trkpt>
      <trkpt lat="44.59477" lon="0.96169">
        <ele>122</ele>
        <time>2012-01-22T07:50:05Z</time>
      </trkpt>
      <trkpt lat="44.59479" lon="0.96171">
        <ele>122</ele>
        <time>2012-01-22T07:50:07Z</time>
      </trkpt>
      <trkpt lat="44.59479" lon="0.96174">
        <ele>123</ele>
        <time>2012-01-22T07:50:08Z</time>
      </trkpt>
      <trkpt lat="44.5948" lon="0.96181">
        <ele>124</ele>
        <time>2012-01-22T07:50:14Z</time>
      </trkpt>
      <trkpt lat="44.59476" lon="0.96199">
        <ele>124</ele>
        <time>2012-01-22T07:50:15Z</time>
      </trkpt>
      <trkpt lat="44.59475" lon="0.96204">
        <ele>124</ele>
        <time>2012-01-22T07:50:16Z</time>
      </trkpt>
      <trkpt lat="44.59473" lon="0.96215">
        <ele>124</ele>
        <time>2012-01-22T07:50:21Z</time>
      </trkpt>
      <trkpt lat="44.59468" lon="0.96237">
        <ele>124</ele>
        <time>2012-01-22T07:50:21Z</time>
      </trkpt>
      <trkpt lat="44.59465" lon="0.96248">
        <ele>124</ele>
        <time>2012-01-22T07:50:27Z</time>
      </trkpt>
      <trkpt lat="44.59461" lon="0.96264">
        <ele>124</ele>
        <time>2012-01-22T07:50:27Z</time>
      </trkpt>
      <trkpt lat="44.5946" lon="0.96267">
        <ele>124</ele>
        <time>2012-01-22T07:50:28Z</time>
      </trkpt>
      <trkpt lat="44.59457" lon="0.96276">
        <ele>124</ele>
        <time>2012-01-22T07:50:33Z</time>
      </trkpt>
      <trkpt lat="44.59454" lon="0.96286">
        <ele>124</ele>
        <time>2012-01-22T07:50:33Z</time>
      </trkpt>
      <trkpt lat="44.59453" lon="0.9629">
        <ele>124</ele>
        <time>2012-01-22T07:50:34Z</time>
      </trkpt>
      <trkpt lat="44.59447" lon="0.96303">
        <ele>124</ele>
        <time>2012-01-22T07:50:40Z</time>
      </trkpt>
      <trkpt lat="44.59446" lon="0.96305">
        <ele>125</ele>
        <time>2012-01-22T07:50:42Z</time>
      </trkpt>
      <trkpt lat="44.59445" lon="0.96306">
        <ele>126</ele>
        <time>2012-01-22T07:50:42Z</time>
      </trkpt>
      <trkpt lat="44.59444" lon="0.96309">
        <ele>127</ele>
        <time>2012-01-22T07:50:48Z</time>
      </trkpt>
      <trkpt lat="44.5944" lon="0.96316">
        <ele>128</ele>
        <time>2012-01-22T07:50:48Z</time>
      </trkpt>
      <trkpt lat="44.59438" lon="0.96318">
        <ele>129</ele>
        <time>2012-01-22T07:50:50Z</time>
      </trkpt>
      <trkpt lat="44.59438" lon="0.9632">
        <ele>130</ele>
        <time>2012-01-22T07:50:51Z</time>
      </trkpt>
      <trkpt lat="44.59434" lon="0.96325">
        <ele>131</ele>
        <time>2012-01-22T07:50:55Z</time>
      </trkpt>
      <trkpt lat="44.59429" lon="0.96329">
        <ele>133</ele>
        <time>2012-01-22T07:50:56Z</time>
      </trkpt>
      <trkpt lat="44.59427" lon="0.9633">
        <ele>135</ele>
        <time>2012-01-22T07:50:57Z</time>
      </trkpt>
      <trkpt lat="44.59425" lon="0.96331">
        <ele>136</ele>
        <time>2012-01-22T07:50:57Z</time>
      </trkpt>
      <trkpt lat="44.59418" lon="0.96341">
        <ele>137</ele>
        <time>2012-01-22T07:51:03Z</time>
      </trkpt>
      <trkpt lat="44.59416" lon="0.96343">
        <ele>138</ele>
        <time>2012-01-22T07:51:04Z</time>
      </trkpt>
      <trkpt lat="44.59413" lon="0.96347">
        <ele>139</ele>
        <time>2012-01-22T07:51:09Z</time>
      </trkpt>
      <trkpt lat="44.59409" lon="0.96359">
        <ele>140</ele>
        <time>2012-01-22T07:51:09Z</time>
      </trkpt>
      <trkpt lat="44.59408" lon="0.96362">
        <ele>141</ele>
        <time>2012-01-22T07:51:11Z</time>
      </trkpt>
      <trkpt lat="44.59407" lon="0.96366">
        <ele>142</ele>
        <time>2012-01-22T07:51:11Z</time>
      </trkpt>
      <trkpt lat="44.59406" lon="0.96372">
        <ele>142</ele>
        <time>2012-01-22T07:51:16Z</time>
      </trkpt>
      <trkpt lat="44.59404" lon="0.96382">
        <ele>143</ele>
        <time>2012-01-22T07:51:17Z</time>
      </trkpt>
      <trkpt lat="44.59404" lon="0.96385">
        <ele>144</ele>
        <time>2012-01-22T07:51:17Z</time>
      </trkpt>
      <trkpt lat="44.59408" lon="0.96391">
        <ele>144</ele>
        <time>2012-01-22T07:51:23Z</time>
      </trkpt>
      <trkpt lat="44.59416" lon="0.96396">
        <ele>145</ele>
        <time>2012-01-22T07:51:24Z</time>
      </trkpt>
      <trkpt lat="44.5942" lon="0.96396">
        <ele>145</ele>
        <time>2012-01-22T07:51:25Z</time>
      </trkpt>
      <trkpt lat="44.59423" lon="0.96396">
        <ele>145</ele>
        <time>2012-01-22T07:51:26Z</time>
      </trkpt>
      <trkpt lat="44.59445" lon="0.96396">
        <ele>145</ele>
        <time>2012-01-22T07:51:31Z</time>
      </trkpt>
      <trkpt lat="44.5945" lon="0.96396">
        <ele>145</ele>
        <time>2012-01-22T07:51:31Z</time>
      </trkpt>
      <trkpt lat="44.59456" lon="0.96396">
        <ele>145</ele>
        <time>2012-01-22T07:51:32Z</time>
      </trkpt>
      <trkpt lat="44.59468" lon="0.96398">
        <ele>144</ele>
        <time>2012-01-22T07:51:37Z</time>
      </trkpt>
      <trkpt lat="44.59487" lon="0.96401">
        <ele>143</ele>
        <time>2012-01-22T07:51:37Z</time>
      </trkpt>
      <trkpt lat="44.59494" lon="0.96402">
        <ele>142</ele>
        <time>2012-01-22T07:51:38Z</time>
      </trkpt>
      <trkpt lat="44.59507" lon="0.96405">
        <ele>141</ele>
        <time>2012-01-22T07:51:44Z</time>
      </trkpt>
      <trkpt lat="44.59535" lon="0.96416">
        <ele>140</ele>
        <time>2012-01-22T07:51:44Z</time>
      </trkpt>
      <trkpt lat="44.59541" lon="0.9642">
        <ele>139</ele>
        <time>2012-01-22T07:51:45Z</time>
      </trkpt>
      <trkpt lat="44.59554" lon="0.96426">
        <ele>138</ele>
        <time>2012-01-22T07:51:50Z</time>
      </trkpt>
      <trkpt lat="44.59573" lon="0.96437">
        <ele>136</ele>
        <time>2012-01-22T07:51:50Z</time>
      </trkpt>
      <trkpt lat="44.59579" lon="0.96442">
        <ele>134</ele>
        <time>2012-01-22T07:51:51Z</time>
      </trkpt>
      <trkpt lat="44.59589" lon="0.9645">
        <ele>132</ele>
        <time>2012-01-22T07:51:57Z</time>
      </trkpt>
      <trkpt lat="44.59613" lon="0.9647">
        <ele>130</ele>
        <time>2012-01-22T07:51:57Z</time>
      </trkpt>
      <trkpt lat="44.59619" lon="0.96474">
        <ele>129</ele>
        <time>2012-01-22T07:51:58Z</time>
      </trkpt>
      <trkpt lat="44.59631" lon="0.96481">
        <ele>128</ele>
        <time>2012-01-22T07:52:03Z</time>
      </trkpt>
      <trkpt lat="44.59648" lon="0.96492">
        <ele>127</ele>
        <time>2012-01-22T07:52:04Z</time>
      </trkpt>
      <trkpt lat="44.59653" lon="0.96496">
        <ele>125</ele>
        <time>2012-01-22T07:52:04Z</time>
      </trkpt>
      <trkpt lat="44.59661" lon="0.96501">
        <ele>124</ele>
        <time>2012-01-22T07:52:10Z</time>
      </trkpt>
      <trkpt lat="44.59671" lon="0.96509">
        <ele>122</ele>
        <time>2012-01-22T07:52:10Z</time>
      </trkpt>
      <trkpt lat="44.59673" lon="0.96511">
        <ele>121</ele>
        <time>2012-01-22T07:52:11Z</time>
      </trkpt>
      <trkpt lat="44.59683" lon="0.96526">
        <ele>120</ele>
        <time>2012-01-22T07:52:17Z</time>
      </trkpt>
      <trkpt lat="44.59684" lon="0.9653">
        <ele>119</ele>
        <time>2012-01-22T07:52:18Z</time>
      </trkpt>
      <trkpt lat="44.59685" lon="0.96534">
        <ele>118</ele>
        <time>2012-01-22T07:52:19Z</time>
      </trkpt>
      <trkpt lat="44.59684" lon="0.96551">
        <ele>117</ele>
        <time>2012-01-22T07:52:23Z</time>
      </trkpt>
      <trkpt lat="44.59683" lon="0.96554">
        <ele>117</ele>
        <time>2012-01-22T07:52:25Z</time>
      </trkpt>
      <trkpt lat="44.59683" lon="0.9656">
        <ele>117</ele>
        <time>2012-01-22T07:52:27Z</time>
      </trkpt>
      <trkpt lat="44.59684" lon="0.96571">
        <ele>117</ele>
        <time>2012-01-22T07:52:32Z</time>
      </trkpt>
      <trkpt lat="44.59686" lon="0.96574">
        <ele>118</ele>
        <time>2012-01-22T07:52:33Z</time>
      </trkpt>
      <trkpt lat="44.59687" lon="0.96576">
        <ele>119</ele>
        <time>2012-01-22T07:52:34Z</time>
      </trkpt>
      <trkpt lat="44.59688" lon="0.96578">
        <ele>120</ele>
        <time>2012-01-22T07:52:35Z</time>
      </trkpt>
      <trkpt lat="44.59691" lon="0.96582">
        <ele>121</ele>
        <time>2012-01-22T07:52:40Z</time>
      </trkpt>
      <trkpt lat="44.59697" lon="0.96592">
        <ele>122</ele>
        <time>2012-01-22T07:52:40Z</time>
      </trkpt>
      <trkpt lat="44.59699" lon="0.96594">
        <ele>123</ele>
        <time>2012-01-22T07:52:41Z</time>
      </trkpt>
      <trkpt lat="44.59701" lon="0.96604">
        <ele>123</ele>
        <time>2012-01-22T07:52:47Z</time>
      </trkpt>
      <trkpt lat="44.59701" lon="0.96605">
        <ele>124</ele>
        <time>2012-01-22T07:52:48Z</time>
      </trkpt>
      <trkpt lat="44.59699" lon="0.96604">
        <ele>125</ele>
        <time>2012-01-22T07:52:50Z</time>
      </trkpt>
      <trkpt lat="44.59682" lon="0.966">
        <ele>126</ele>
        <time>2012-01-22T07:52:55Z</time>
      </trkpt>
      <trkpt lat="44.59676" lon="0.96599">
        <ele>127</ele>
        <time>2012-01-22T07:52:58Z</time>
      </trkpt>
      <trkpt lat="44.59673" lon="0.96599">
        <ele>128</ele>
        <time>2012-01-22T07:52:59Z</time>
      </trkpt>
      <trkpt lat="44.5966" lon="0.966">
        <ele>129</ele>
        <time>2012-01-22T07:53:04Z</time>
      </trkpt>
      <trkpt lat="44.59658" lon="0.966">
        <ele>130</ele>
        <time>2012-01-22T07:53:04Z</time>
      </trkpt>
      <trkpt lat="44.59657" lon="0.96601">
        <ele>130</ele>
        <time>2012-01-22T07:53:06Z</time>
      </trkpt>
      <trkpt lat="44.59655" lon="0.96602">
        <ele>130</ele>
        <time>2012-01-22T07:53:07Z</time>
      </trkpt>
      <trkpt lat="44.59643" lon="0.96607">
        <ele>130</ele>
        <time>2012-01-22T07:53:12Z</time>
      </trkpt>
      <trkpt lat="44.59642" lon="0.96609">
        <ele>131</ele>
        <time>2012-01-22T07:53:14Z</time>
      </trkpt>
      <trkpt lat="44.5964" lon="0.9661">
        <ele>132</ele>
        <time>2012-01-22T07:53:15Z</time>
      </trkpt>
      <trkpt lat="44.59637" lon="0.96614">
        <ele>133</ele>
        <time>2012-01-22T07:53:20Z</time>
      </trkpt>
      <trkpt lat="44.59632" lon="0.96622">
        <ele>134</ele>
        <time>2012-01-22T07:53:20Z</time>
      </trkpt>
      <trkpt lat="44.59633" lon="0.96624">
        <ele>135</ele>
        <time>2012-01-22T07:53:22Z</time>
      </trkpt>
      <trkpt lat="44.59633" lon="0.96627">
        <ele>136</ele>
        <time>2012-01-22T07:53:23Z</time>
      </trkpt>
      <trkpt lat="44.59633" lon="0.96632">
        <ele>136</ele>
        <time>2012-01-22T07:53:28Z</time>
      </trkpt>
      <trkpt lat="44.59627" lon="0.9664">
        <ele>136</ele>
        <time>2012-01-22T07:53:28Z</time>
      </trkpt>
      <trkpt lat="44.59625" lon="0.96641">
        <ele>136</ele>
        <time>2012-01-22T07:53:29Z</time>
      </trkpt>
      <trkpt lat="44.59623" lon="0.96643">
        <ele>136</ele>
        <time>2012-01-22T07:53:31Z</time>
      </trkpt>
      <trkpt lat="44.59621" lon="0.96644">
        <ele>136</ele>
        <time>2012-01-22T07:53:31Z</time>
      </trkpt>
      <trkpt lat="44.59613" lon="0.96645">
        <ele>137</ele>
        <time>2012-01-22T07:53:37Z</time>
      </trkpt>
      <trkpt lat="44.59612" lon="0.96645">
        <ele>139</ele>
        <time>2012-01-22T07:53:39Z</time>
      </trkpt>
      <trkpt lat="44.5961" lon="0.96645">
        <ele>140</ele>
        <time>2012-01-22T07:53:40Z</time>
      </trkpt>
      <trkpt lat="44.59607" lon="0.96644">
        <ele>141</ele>
        <time>2012-01-22T07:53:45Z</time>
      </trkpt>
      <trkpt lat="44.59599" lon="0.96649">
        <ele>141</ele>
        <time>2012-01-22T07:53:46Z</time>
      </trkpt>
      <trkpt lat="44.59599" lon="0.96652">
        <ele>142</ele>
        <time>2012-01-22T07:53:47Z</time>
      </trkpt>
      <trkpt lat="44.59599" lon="0.96654">
        <ele>142</ele>
        <time>2012-01-22T07:53:48Z</time>
      </trkpt>
      <trkpt lat="44.59599" lon="0.96657">
        <ele>143</ele>
        <time>2012-01-22T07:53:49Z</time>
      </trkpt>
      <trkpt lat="44.59601" lon="0.96662">
        <ele>143</ele>
        <time>2012-01-22T07:53:54Z</time>
      </trkpt>
      <trkpt lat="44.59605" lon="0.96671">
        <ele>144</ele>
        <time>2012-01-22T07:53:54Z</time>
      </trkpt>
      <trkpt lat="44.59606" lon="0.96672">
        <ele>145</ele>
        <time>2012-01-22T07:53:55Z</time>
      </trkpt>
      <trkpt lat="44.59607" lon="0.96676">
        <ele>146</ele>
        <time>2012-01-22T07:54:01Z</time>
      </trkpt>
      <trkpt lat="44.59609" lon="0.96684">
        <ele>147</ele>
        <time>2012-01-22T07:54:01Z</time>
      </trkpt>
      <trkpt lat="44.5961" lon="0.96686">
        <ele>148</ele>
        <time>2012-01-22T07:54:02Z</time>
      </trkpt>
      <trkpt lat="44.5961" lon="0.96688">
        <ele>149</ele>
        <time>2012-01-22T07:54:04Z</time>
      </trkpt>
      <trkpt lat="44.59611" lon="0.96693">
        <ele>150</ele>
        <time>2012-01-22T07:54:09Z</time>
      </trkpt>
      <trkpt lat="44.59614" lon="0.96703">
        <ele>151</ele>
        <time>2012-01-22T07:54:09Z</time>
      </trkpt>
      <trkpt lat="44.59615" lon="0.96705">
        <ele>152</ele>
        <time>2012-01-22T07:54:10Z</time>
      </trkpt>
      <trkpt lat="44.59615" lon="0.96707">
        <ele>153</ele>
        <time>2012-01-22T07:54:11Z</time>
      </trkpt>
      <trkpt lat="44.5962" lon="0.9672">
        <ele>154</ele>
        <time>2012-01-22T07:54:17Z</time>
      </trkpt>
      <trkpt lat="44.59621" lon="0.96722">
        <ele>155</ele>
        <time>2012-01-22T07:54:17Z</time>
      </trkpt>
      <trkpt lat="44.59623" lon="0.96724">
        <ele>156</ele>
        <time>2012-01-22T07:54:19Z</time>
      </trkpt>
      <trkpt lat="44.59624" lon="0.96726">
        <ele>156</ele>
        <time>2012-01-22T07:54:20Z</time>
      </trkpt>
      <trkpt lat="44.59627" lon="0.96729">
        <ele>157</ele>
        <time>2012-01-22T07:54:25Z</time>
      </trkpt>
      <trkpt lat="44.59631" lon="0.96736">
        <ele>158</ele>
        <time>2012-01-22T07:54:25Z</time>
      </trkpt>
      <trkpt lat="44.59633" lon="0.96737">
        <ele>159</ele>
        <time>2012-01-22T07:54:26Z</time>
      </trkpt>
      <trkpt lat="44.59636" lon="0.9674">
        <ele>159</ele>
        <time>2012-01-22T07:54:33Z</time>
      </trkpt>
      <trkpt lat="44.59644" lon="0.96749">
        <ele>159</ele>
        <time>2012-01-22T07:54:34Z</time>
      </trkpt>
      <trkpt lat="44.59645" lon="0.9675">
        <ele>159</ele>
        <time>2012-01-22T07:54:35Z</time>
      </trkpt>
      <trkpt lat="44.59648" lon="0.96752">
        <ele>159</ele>
        <time>2012-01-22T07:54:40Z</time>
      </trkpt>
      <trkpt lat="44.59654" lon="0.96757">
        <ele>159</ele>
        <time>2012-01-22T07:54:40Z</time>
      </trkpt>
      <trkpt lat="44.59655" lon="0.96759">
        <ele>159</ele>
        <time>2012-01-22T07:54:41Z</time>
      </trkpt>
      <trkpt lat="44.59658" lon="0.96762">
        <ele>159</ele>
        <time>2012-01-22T07:54:47Z</time>
      </trkpt>
      <trkpt lat="44.59668" lon="0.96773">
        <ele>159</ele>
        <time>2012-01-22T07:54:48Z</time>
      </trkpt>
      <trkpt lat="44.5967" lon="0.96777">
        <ele>159</ele>
        <time>2012-01-22T07:54:48Z</time>
      </trkpt>
      <trkpt lat="44.59675" lon="0.96785">
        <ele>159</ele>
        <time>2012-01-22T07:54:54Z</time>
      </trkpt>
      <trkpt lat="44.59682" lon="0.968">
        <ele>159</ele>
        <time>2012-01-22T07:54:54Z</time>
      </trkpt>
      <trkpt lat="44.59684" lon="0.96804">
        <ele>159</ele>
        <time>2012-01-22T07:54:55Z</time>
      </trkpt>
      <trkpt lat="44.59687" lon="0.96811">
        <ele>159</ele>
        <time>2012-01-22T07:55:01Z</time>
      </trkpt>
      <trkpt lat="44.59695" lon="0.96825">
        <ele>159</ele>
        <time>2012-01-22T07:55:01Z</time>
      </trkpt>
      <trkpt lat="44.59698" lon="0.96829">
        <ele>159</ele>
        <time>2012-01-22T07:55:02Z</time>
      </trkpt>
      <trkpt lat="44.59703" lon="0.96836">
        <ele>159</ele>
        <time>2012-01-22T07:55:08Z</time>
      </trkpt>
      <trkpt lat="44.59713" lon="0.96841">
        <ele>159</ele>
        <time>2012-01-22T07:55:08Z</time>
      </trkpt>
      <trkpt lat="44.59716" lon="0.96842">
        <ele>158</ele>
        <time>2012-01-22T07:55:10Z</time>
      </trkpt>
      <trkpt lat="44.59719" lon="0.96842">
        <ele>158</ele>
        <time>2012-01-22T07:55:11Z</time>
      </trkpt>
      <trkpt lat="44.59725" lon="0.96842">
        <ele>157</ele>
        <time>2012-01-22T07:55:16Z</time>
      </trkpt>
      <trkpt lat="44.59737" lon="0.96841">
        <ele>157</ele>
        <time>2012-01-22T07:55:16Z</time>
      </trkpt>
      <trkpt lat="44.5974" lon="0.9684">
        <ele>157</ele>
        <time>2012-01-22T07:55:17Z</time>
      </trkpt>
      <trkpt lat="44.59743" lon="0.96842">
        <ele>157</ele>
        <time>2012-01-22T07:55:23Z</time>
      </trkpt>
      <trkpt lat="44.59742" lon="0.96848">
        <ele>157</ele>
        <time>2012-01-22T07:55:24Z</time>
      </trkpt>
      <trkpt lat="44.59739" lon="0.96848">
        <ele>157</ele>
        <time>2012-01-22T07:55:25Z</time>
      </trkpt>
      <trkpt lat="44.59736" lon="0.96849">
        <ele>157</ele>
        <time>2012-01-22T07:55:26Z</time>
      </trkpt>
      <trkpt lat="44.59731" lon="0.96852">
        <ele>157</ele>
        <time>2012-01-22T07:55:31Z</time>
      </trkpt>
      <trkpt lat="44.5972" lon="0.96859">
        <ele>158</ele>
        <time>2012-01-22T07:55:31Z</time>
      </trkpt>
      <trkpt lat="44.59718" lon="0.96861">
        <ele>159</ele>
        <time>2012-01-22T07:55:32Z</time>
      </trkpt>
      <trkpt lat="44.59716" lon="0.96864">
        <ele>160</ele>
        <time>2012-01-22T07:55:34Z</time>
      </trkpt>
      <trkpt lat="44.59713" lon="0.96869">
        <ele>161</ele>
        <time>2012-01-22T07:55:39Z</time>
      </trkpt>
      <trkpt lat="44.59709" lon="0.96884">
        <ele>162</ele>
        <time>2012-01-22T07:55:39Z</time>
      </trkpt>
      <trkpt lat="44.59708" lon="0.96887">
        <ele>162</ele>
        <time>2012-01-22T07:55:41Z</time>
      </trkpt>
      <trkpt lat="44.59707" lon="0.9689">
        <ele>162</ele>
        <time>2012-01-22T07:55:42Z</time>
      </trkpt>
      <trkpt lat="44.59704" lon="0.96897">
        <ele>162</ele>
        <time>2012-01-22T07:55:47Z</time>
      </trkpt>
      <trkpt lat="44.59702" lon="0.96915">
        <ele>162</ele>
        <time>2012-01-22T07:55:47Z</time>
      </trkpt>
      <trkpt lat="44.59701" lon="0.96919">
        <ele>162</ele>
        <time>2012-01-22T07:55:48Z</time>
      </trkpt>
      <trkpt lat="44.597" lon="0.96922">
        <ele>162</ele>
        <time>2012-01-22T07:55:49Z</time>
      </trkpt>
      <trkpt lat="44.59699" lon="0.9693">
        <ele>162</ele>
        <time>2012-01-22T07:55:55Z</time>
      </trkpt>
      <trkpt lat="44.59703" lon="0.96946">
        <ele>162</ele>
        <time>2012-01-22T07:55:55Z</time>
      </trkpt>
      <trkpt lat="44.59704" lon="0.96952">
        <ele>162</ele>
        <time>2012-01-22T07:55:56Z</time>
      </trkpt>
      <trkpt lat="44.59706" lon="0.96957">
        <ele>162</ele>
        <time>2012-01-22T07:55:57Z</time>
      </trkpt>
      <trkpt lat="44.59707" lon="0.96965">
        <ele>162</ele>
        <time>2012-01-22T07:56:03Z</time>
      </trkpt>
      <trkpt lat="44.59713" lon="0.96983">
        <ele>163</ele>
        <time>2012-01-22T07:56:03Z</time>
      </trkpt>
      <trkpt lat="44.59714" lon="0.96988">
        <ele>164</ele>
        <time>2012-01-22T07:56:04Z</time>
      </trkpt>
      <trkpt lat="44.59715" lon="0.97">
        <ele>165</ele>
        <time>2012-01-22T07:56:10Z</time>
      </trkpt>
      <trkpt lat="44.59713" lon="0.97021">
        <ele>166</ele>
        <time>2012-01-22T07:56:10Z</time>
      </trkpt>
      <trkpt lat="44.59712" lon="0.97027">
        <ele>167</ele>
        <time>2012-01-22T07:56:11Z</time>
      </trkpt>
      <trkpt lat="44.59711" lon="0.97032">
        <ele>168</ele>
        <time>2012-01-22T07:56:12Z</time>
      </trkpt>
      <trkpt lat="44.59709" lon="0.97041">
        <ele>169</ele>
        <time>2012-01-22T07:56:18Z</time>
      </trkpt>
      <trkpt lat="44.59701" lon="0.97068">
        <ele>170</ele>
        <time>2012-01-22T07:56:18Z</time>
      </trkpt>
      <trkpt lat="44.59699" lon="0.97076">
        <ele>171</ele>
        <time>2012-01-22T07:56:19Z</time>
      </trkpt>
      <trkpt lat="44.59695" lon="0.97089">
        <ele>172</ele>
        <time>2012-01-22T07:56:25Z</time>
      </trkpt>
      <trkpt lat="44.59686" lon="0.97117">
        <ele>173</ele>
        <time>2012-01-22T07:56:25Z</time>
      </trkpt>
      <trkpt lat="44.59683" lon="0.97124">
        <ele>174</ele>
        <time>2012-01-22T07:56:26Z</time>
      </trkpt>
      <trkpt lat="44.59678" lon="0.97139">
        <ele>175</ele>
        <time>2012-01-22T07:56:32Z</time>
      </trkpt>
      <trkpt lat="44.59668" lon="0.97166">
        <ele>176</ele>
        <time>2012-01-22T07:56:32Z</time>
      </trkpt>
      <trkpt lat="44.59665" lon="0.97174">
        <ele>176</ele>
        <time>2012-01-22T07:56:33Z</time>
      </trkpt>
      <trkpt lat="44.5966" lon="0.97185">
        <ele>176</ele>
        <time>2012-01-22T07:56:39Z</time>
      </trkpt>
      <trkpt lat="44.59652" lon="0.97207">
        <ele>176</ele>
        <time>2012-01-22T07:56:39Z</time>
      </trkpt>
      <trkpt lat="44.5965" lon="0.97211">
        <ele>176</ele>
        <time>2012-01-22T07:56:40Z</time>
      </trkpt>
      <trkpt lat="44.59645" lon="0.97216">
        <ele>176</ele>
        <time>2012-01-22T07:56:46Z</time>
      </trkpt>
      <trkpt lat="44.59635" lon="0.97225">
        <ele>176</ele>
        <time>2012-01-22T07:56:46Z</time>
      </trkpt>
      <trkpt lat="44.59633" lon="0.97228">
        <ele>176</ele>
        <time>2012-01-22T07:56:48Z</time>
      </trkpt>
      <trkpt lat="44.59619" lon="0.97247">
        <ele>176</ele>
        <time>2012-01-22T07:56:53Z</time>
      </trkpt>
      <trkpt lat="44.59617" lon="0.9725">
        <ele>176</ele>
        <time>2012-01-22T07:56:54Z</time>
      </trkpt>
      <trkpt lat="44.59605" lon="0.97272">
        <ele>177</ele>
        <time>2012-01-22T07:57:01Z</time>
      </trkpt>
      <trkpt lat="44.59603" lon="0.97275">
        <ele>177</ele>
        <time>2012-01-22T07:57:01Z</time>
      </trkpt>
      <trkpt lat="44.59602" lon="0.97277">
        <ele>177</ele>
        <time>2012-01-22T07:57:02Z</time>
      </trkpt>
      <trkpt lat="44.59598" lon="0.97283">
        <ele>177</ele>
        <time>2012-01-22T07:57:08Z</time>
      </trkpt>
      <trkpt lat="44.59588" lon="0.97292">
        <ele>177</ele>
        <time>2012-01-22T07:57:08Z</time>
      </trkpt>
      <trkpt lat="44.59585" lon="0.97294">
        <ele>177</ele>
        <time>2012-01-22T07:57:10Z</time>
      </trkpt>
      <trkpt lat="44.59584" lon="0.97295">
        <ele>178</ele>
        <time>2012-01-22T07:57:11Z</time>
      </trkpt>
      <trkpt lat="44.59582" lon="0.97295">
        <ele>179</ele>
        <time>2012-01-22T07:57:12Z</time>
      </trkpt>
      <trkpt lat="44.5958" lon="0.97298">
        <ele>180</ele>
        <time>2012-01-22T07:57:13Z</time>
      </trkpt>
      <trkpt lat="44.59576" lon="0.97301">
        <ele>181</ele>
        <time>2012-01-22T07:57:18Z</time>
      </trkpt>
      <trkpt lat="44.59569" lon="0.97306">
        <ele>181</ele>
        <time>2012-01-22T07:57:18Z</time>
      </trkpt>
      <trkpt lat="44.59568" lon="0.97308">
        <ele>182</ele>
        <time>2012-01-22T07:57:20Z</time>
      </trkpt>
      <trkpt lat="44.59565" lon="0.97309">
        <ele>183</ele>
        <time>2012-01-22T07:57:21Z</time>
      </trkpt>
      <trkpt lat="44.59557" lon="0.97327">
        <ele>184</ele>
        <time>2012-01-22T07:57:27Z</time>
      </trkpt>
      <trkpt lat="44.59555" lon="0.9733">
        <ele>185</ele>
        <time>2012-01-22T07:57:28Z</time>
      </trkpt>
      <trkpt lat="44.59552" lon="0.97333">
        <ele>186</ele>
        <time>2012-01-22T07:57:28Z</time>
      </trkpt>
      <trkpt lat="44.59549" lon="0.9734">
        <ele>186</ele>
        <time>2012-01-22T07:57:34Z</time>
      </trkpt>
      <trkpt lat="44.59537" lon="0.97348">
        <ele>187</ele>
        <time>2012-01-22T07:57:34Z</time>
      </trkpt>
      <trkpt lat="44.59534" lon="0.9735">
        <ele>188</ele>
        <time>2012-01-22T07:57:35Z</time>
      </trkpt>
      <trkpt lat="44.59528" lon="0.97353">
        <ele>189</ele>
        <time>2012-01-22T07:57:41Z</time>
      </trkpt>
      <trkpt lat="44.59518" lon="0.97365">
        <ele>190</ele>
        <time>2012-01-22T07:57:41Z</time>
      </trkpt>
      <trkpt lat="44.59516" lon="0.97368">
        <ele>191</ele>
        <time>2012-01-22T07:57:42Z</time>
      </trkpt>
      <trkpt lat="44.59508" lon="0.97384">
        <ele>192</ele>
        <time>2012-01-22T07:57:48Z</time>
      </trkpt>
      <trkpt lat="44.59504" lon="0.97386">
        <ele>193</ele>
        <time>2012-01-22T07:57:49Z</time>
      </trkpt>
      <trkpt lat="44.59501" lon="0.97389">
        <ele>194</ele>
        <time>2012-01-22T07:57:50Z</time>
      </trkpt>
      <trkpt lat="44.59497" lon="0.97394">
        <ele>195</ele>
        <time>2012-01-22T07:57:56Z</time>
      </trkpt>
      <trkpt lat="44.59487" lon="0.97402">
        <ele>196</ele>
        <time>2012-01-22T07:57:57Z</time>
      </trkpt>
      <trkpt lat="44.59484" lon="0.97403">
        <ele>197</ele>
        <time>2012-01-22T07:57:58Z</time>
      </trkpt>
      <trkpt lat="44.59481" lon="0.97405">
        <ele>198</ele>
        <time>2012-01-22T07:57:59Z</time>
      </trkpt>
      <trkpt lat="44.59477" lon="0.97409">
        <ele>199</ele>
        <time>2012-01-22T07:58:05Z</time>
      </trkpt>
      <trkpt lat="44.59464" lon="0.97421">
        <ele>199</ele>
        <time>2012-01-22T07:58:05Z</time>
      </trkpt>
      <trkpt lat="44.59461" lon="0.97424">
        <ele>199</ele>
        <time>2012-01-22T07:58:06Z</time>
      </trkpt>
      <trkpt lat="44.59458" lon="0.97428">
        <ele>199</ele>
        <time>2012-01-22T07:58:12Z</time>
      </trkpt>
      <trkpt lat="44.59451" lon="0.97435">
        <ele>199</ele>
        <time>2012-01-22T07:58:12Z</time>
      </trkpt>
      <trkpt lat="44.59449" lon="0.97437">
        <ele>199</ele>
        <time>2012-01-22T07:58:14Z</time>
      </trkpt>
      <trkpt lat="44.59449" lon="0.97439">
        <ele>199</ele>
        <time>2012-01-22T07:58:14Z</time>
      </trkpt>
      <trkpt lat="44.59448" lon="0.97441">
        <ele>199</ele>
        <time>2012-01-22T07:58:15Z</time>
      </trkpt>
      <trkpt lat="44.59445" lon="0.97446">
        <ele>199</ele>
        <time>2012-01-22T07:58:21Z</time>
      </trkpt>
      <trkpt lat="44.5944" lon="0.97455">
        <ele>199</ele>
        <time>2012-01-22T07:58:21Z</time>
      </trkpt>
      <trkpt lat="44.59437" lon="0.97457">
        <ele>199</ele>
        <time>2012-01-22T07:58:22Z</time>
      </trkpt>
      <trkpt lat="44.59434" lon="0.97461">
        <ele>199</ele>
        <time>2012-01-22T07:58:28Z</time>
      </trkpt>
      <trkpt lat="44.5943" lon="0.9747">
        <ele>198</ele>
        <time>2012-01-22T07:58:28Z</time>
      </trkpt>
      <trkpt lat="44.59429" lon="0.97472">
        <ele>197</ele>
        <time>2012-01-22T07:58:29Z</time>
      </trkpt>
      <trkpt lat="44.59429" lon="0.97475">
        <ele>196</ele>
        <time>2012-01-22T07:58:30Z</time>
      </trkpt>
      <trkpt lat="44.59426" lon="0.97479">
        <ele>196</ele>
        <time>2012-01-22T07:58:36Z</time>
      </trkpt>
      <trkpt lat="44.59422" lon="0.97487">
        <ele>196</ele>
        <time>2012-01-22T07:58:36Z</time>
      </trkpt>
      <trkpt lat="44.5942" lon="0.97489">
        <ele>196</ele>
        <time>2012-01-22T07:58:37Z</time>
      </trkpt>
      <trkpt lat="44.59419" lon="0.9749">
        <ele>195</ele>
        <time>2012-01-22T07:58:38Z</time>
      </trkpt>
      <trkpt lat="44.59418" lon="0.97493">
        <ele>194</ele>
        <time>2012-01-22T07:58:44Z</time>
      </trkpt>
      <trkpt lat="44.59412" lon="0.975">
        <ele>193</ele>
        <time>2012-01-22T07:58:44Z</time>
      </trkpt>
      <trkpt lat="44.59411" lon="0.97501">
        <ele>192</ele>
        <time>2012-01-22T07:58:45Z</time>
      </trkpt>
      <trkpt lat="44.5941" lon="0.97505">
        <ele>191</ele>
        <time>2012-01-22T07:58:51Z</time>
      </trkpt>
      <trkpt lat="44.59409" lon="0.97518">
        <ele>190</ele>
        <time>2012-01-22T07:58:53Z</time>
      </trkpt>
      <trkpt lat="44.59409" lon="0.9752">
        <ele>189</ele>
        <time>2012-01-22T07:58:54Z</time>
      </trkpt>
      <trkpt lat="44.59406" lon="0.97523">
        <ele>188</ele>
        <time>2012-01-22T07:59:01Z</time>
      </trkpt>
      <trkpt lat="44.594" lon="0.9753">
        <ele>188</ele>
        <time>2012-01-22T07:59:01Z</time>
      </trkpt>
      <trkpt lat="44.59398" lon="0.97534">
        <ele>188</ele>
        <time>2012-01-22T07:59:07Z</time>
      </trkpt>
      <trkpt lat="44.59394" lon="0.97539">
        <ele>188</ele>
        <time>2012-01-22T07:59:07Z</time>
      </trkpt>
      <trkpt lat="44.59393" lon="0.9754">
        <ele>188</ele>
        <time>2012-01-22T07:59:08Z</time>
      </trkpt>
      <trkpt lat="44.5939" lon="0.97542">
        <ele>188</ele>
        <time>2012-01-22T07:59:15Z</time>
      </trkpt>
      <trkpt lat="44.59388" lon="0.97548">
        <ele>188</ele>
        <time>2012-01-22T07:59:15Z</time>
      </trkpt>
      <trkpt lat="44.59387" lon="0.9755">
        <ele>189</ele>
        <time>2012-01-22T07:59:16Z</time>
      </trkpt>
      <trkpt lat="44.59386" lon="0.97552">
        <ele>189</ele>
        <time>2012-01-22T07:59:17Z</time>
      </trkpt>
      <trkpt lat="44.59383" lon="0.97555">
        <ele>189</ele>
        <time>2012-01-22T07:59:24Z</time>
      </trkpt>
      <trkpt lat="44.59377" lon="0.97565">
        <ele>190</ele>
        <time>2012-01-22T07:59:24Z</time>
      </trkpt>
      <trkpt lat="44.59374" lon="0.97574">
        <ele>190</ele>
        <time>2012-01-22T07:59:30Z</time>
      </trkpt>
      <trkpt lat="44.59373" lon="0.97576">
        <ele>190</ele>
        <time>2012-01-22T07:59:31Z</time>
      </trkpt>
      <trkpt lat="44.59372" lon="0.97578">
        <ele>190</ele>
        <time>2012-01-22T07:59:32Z</time>
      </trkpt>
      <trkpt lat="44.5937" lon="0.97584">
        <ele>190</ele>
        <time>2012-01-22T07:59:38Z</time>
      </trkpt>
      <trkpt lat="44.59365" lon="0.97591">
        <ele>190</ele>
        <time>2012-01-22T07:59:38Z</time>
      </trkpt>
      <trkpt lat="44.59364" lon="0.97593">
        <ele>190</ele>
        <time>2012-01-22T07:59:39Z</time>
      </trkpt>
      <trkpt lat="44.59357" lon="0.97608">
        <ele>190</ele>
        <time>2012-01-22T07:59:45Z</time>
      </trkpt>
      <trkpt lat="44.59353" lon="0.97613">
        <ele>190</ele>
        <time>2012-01-22T07:59:53Z</time>
      </trkpt>
      <trkpt lat="44.59348" lon="0.97623">
        <ele>190</ele>
        <time>2012-01-22T07:59:53Z</time>
      </trkpt>
      <trkpt lat="44.59347" lon="0.97626">
        <ele>190</ele>
        <time>2012-01-22T07:59:54Z</time>
      </trkpt>
      <trkpt lat="44.59344" lon="0.97632">
        <ele>190</ele>
        <time>2012-01-22T08:00:00Z</time>
      </trkpt>
      <trkpt lat="44.59338" lon="0.97642">
        <ele>191</ele>
        <time>2012-01-22T08:00:00Z</time>
      </trkpt>
      <trkpt lat="44.59337" lon="0.97645">
        <ele>192</ele>
        <time>2012-01-22T08:00:01Z</time>
      </trkpt>
      <trkpt lat="44.59336" lon="0.9765">
        <ele>193</ele>
        <time>2012-01-22T08:00:08Z</time>
      </trkpt>
      <trkpt lat="44.59333" lon="0.97658">
        <ele>194</ele>
        <time>2012-01-22T08:00:08Z</time>
      </trkpt>
      <trkpt lat="44.59332" lon="0.9766">
        <ele>195</ele>
        <time>2012-01-22T08:00:09Z</time>
      </trkpt>
      <trkpt lat="44.5933" lon="0.97663">
        <ele>195</ele>
        <time>2012-01-22T08:00:15Z</time>
      </trkpt>
      <trkpt lat="44.59327" lon="0.97672">
        <ele>195</ele>
        <time>2012-01-22T08:00:15Z</time>
      </trkpt>
      <trkpt lat="44.59324" lon="0.97675">
        <ele>195</ele>
        <time>2012-01-22T08:00:16Z</time>
      </trkpt>
      <trkpt lat="44.59323" lon="0.97676">
        <ele>196</ele>
        <time>2012-01-22T08:00:17Z</time>
      </trkpt>
      <trkpt lat="44.59321" lon="0.97677">
        <ele>196</ele>
        <time>2012-01-22T08:00:18Z</time>
      </trkpt>
      <trkpt lat="44.59315" lon="0.97676">
        <ele>197</ele>
        <time>2012-01-22T08:00:26Z</time>
      </trkpt>
      <trkpt lat="44.59314" lon="0.97675">
        <ele>198</ele>
        <time>2012-01-22T08:00:27Z</time>
      </trkpt>
      <trkpt lat="44.59312" lon="0.97674">
        <ele>199</ele>
        <time>2012-01-22T08:00:28Z</time>
      </trkpt>
      <trkpt lat="44.593" lon="0.97671">
        <ele>200</ele>
        <time>2012-01-22T08:00:33Z</time>
      </trkpt>
      <trkpt lat="44.59298" lon="0.97671">
        <ele>202</ele>
        <time>2012-01-22T08:00:35Z</time>
      </trkpt>
      <trkpt lat="44.59297" lon="0.9767">
        <ele>203</ele>
        <time>2012-01-22T08:00:37Z</time>
      </trkpt>
      <trkpt lat="44.59293" lon="0.97671">
        <ele>205</ele>
        <time>2012-01-22T08:00:44Z</time>
      </trkpt>
      <trkpt lat="44.59285" lon="0.97677">
        <ele>206</ele>
        <time>2012-01-22T08:00:45Z</time>
      </trkpt>
      <trkpt lat="44.59285" lon="0.97679">
        <ele>207</ele>
        <time>2012-01-22T08:00:45Z</time>
      </trkpt>
      <trkpt lat="44.59283" lon="0.97685">
        <ele>209</ele>
        <time>2012-01-22T08:00:53Z</time>
      </trkpt>
      <trkpt lat="44.59276" lon="0.97694">
        <ele>210</ele>
        <time>2012-01-22T08:00:55Z</time>
      </trkpt>
      <trkpt lat="44.59275" lon="0.97695">
        <ele>211</ele>
        <time>2012-01-22T08:00:56Z</time>
      </trkpt>
      <trkpt lat="44.59273" lon="0.97698">
        <ele>212</ele>
        <time>2012-01-22T08:01:02Z</time>
      </trkpt>
      <trkpt lat="44.59266" lon="0.97704">
        <ele>213</ele>
        <time>2012-01-22T08:01:02Z</time>
      </trkpt>
      <trkpt lat="44.59265" lon="0.97705">
        <ele>214</ele>
        <time>2012-01-22T08:01:03Z</time>
      </trkpt>
      <trkpt lat="44.59264" lon="0.97707">
        <ele>215</ele>
        <time>2012-01-22T08:01:05Z</time>
      </trkpt>
      <trkpt lat="44.59262" lon="0.9771">
        <ele>216</ele>
        <time>2012-01-22T08:01:11Z</time>
      </trkpt>
      <trkpt lat="44.59254" lon="0.97717">
        <ele>217</ele>
        <time>2012-01-22T08:01:12Z</time>
      </trkpt>
      <trkpt lat="44.59253" lon="0.97718">
        <ele>219</ele>
        <time>2012-01-22T08:01:14Z</time>
      </trkpt>
      <trkpt lat="44.59252" lon="0.97723">
        <ele>220</ele>
        <time>2012-01-22T08:01:20Z</time>
      </trkpt>
      <trkpt lat="44.59247" lon="0.97727">
        <ele>221</ele>
        <time>2012-01-22T08:01:22Z</time>
      </trkpt>
      <trkpt lat="44.59245" lon="0.97728">
        <ele>221</ele>
        <time>2012-01-22T08:01:22Z</time>
      </trkpt>
      <trkpt lat="44.59243" lon="0.97728">
        <ele>221</ele>
        <time>2012-01-22T08:01:24Z</time>
      </trkpt>
      <trkpt lat="44.59241" lon="0.9773">
        <ele>221</ele>
        <time>2012-01-22T08:01:29Z</time>
      </trkpt>
      <trkpt lat="44.59238" lon="0.97734">
        <ele>221</ele>
        <time>2012-01-22T08:01:30Z</time>
      </trkpt>
      <trkpt lat="44.59237" lon="0.97736">
        <ele>221</ele>
        <time>2012-01-22T08:01:31Z</time>
      </trkpt>
      <trkpt lat="44.59236" lon="0.97737">
        <ele>221</ele>
        <time>2012-01-22T08:01:32Z</time>
      </trkpt>
      <trkpt lat="44.59235" lon="0.97743">
        <ele>221</ele>
        <time>2012-01-22T08:01:36Z</time>
      </trkpt>
      <trkpt lat="44.59234" lon="0.97745">
        <ele>221</ele>
        <time>2012-01-22T08:01:39Z</time>
      </trkpt>
      <trkpt lat="44.59233" lon="0.97748">
        <ele>221</ele>
        <time>2012-01-22T08:01:40Z</time>
      </trkpt>
      <trkpt lat="44.59234" lon="0.9775">
        <ele>221</ele>
        <time>2012-01-22T08:01:46Z</time>
      </trkpt>
      <trkpt lat="44.59233" lon="0.97751">
        <ele>222</ele>
        <time>2012-01-22T08:01:47Z</time>
      </trkpt>
      <trkpt lat="44.59236" lon="0.97752">
        <ele>223</ele>
        <time>2012-01-22T08:01:54Z</time>
      </trkpt>
      <trkpt lat="44.59235" lon="0.9775">
        <ele>223</ele>
        <time>2012-01-22T08:02:01Z</time>
      </trkpt>
      <trkpt lat="44.59231" lon="0.97748">
        <ele>223</ele>
        <time>2012-01-22T08:02:02Z</time>
      </trkpt>
      <trkpt lat="44.5923" lon="0.9775">
        <ele>221</ele>
        <time>2012-01-22T08:02:04Z</time>
      </trkpt>
      <trkpt lat="44.5923" lon="0.97748">
        <ele>221</ele>
        <time>2012-01-22T08:02:11Z</time>
      </trkpt>
      <trkpt lat="44.59232" lon="0.9775">
        <ele>221</ele>
        <time>2012-01-22T08:02:20Z</time>
      </trkpt>
      <trkpt lat="44.59233" lon="0.97751">
        <ele>222</ele>
        <time>2012-01-22T08:02:26Z</time>
      </trkpt>
      <trkpt lat="44.59233" lon="0.97749">
        <ele>227</ele>
        <time>2012-01-22T08:02:36Z</time>
      </trkpt>
      <trkpt lat="44.59233" lon="0.97747">
        <ele>228</ele>
        <time>2012-01-22T08:02:41Z</time>
      </trkpt>
      <trkpt lat="44.59233" lon="0.97745">
        <ele>230</ele>
        <time>2012-01-22T08:02:44Z</time>
      </trkpt>
      <trkpt lat="44.59234" lon="0.97744">
        <ele>230</ele>
        <time>2012-01-22T08:02:50Z</time>
      </trkpt>
      <trkpt lat="44.59233" lon="0.97745">
        <ele>227</ele>
        <time>2012-01-22T08:02:58Z</time>
      </trkpt>
      <trkpt lat="44.59232" lon="0.97747">
        <ele>226</ele>
        <time>2012-01-22T08:02:59Z</time>
      </trkpt>
      <trkpt lat="44.59234" lon="0.97749">
        <ele>223</ele>
        <time>2012-01-22T08:03:06Z</time>
      </trkpt>
      <trkpt lat="44.59236" lon="0.97747">
        <ele>223</ele>
        <time>2012-01-22T08:03:14Z</time>
      </trkpt>
      <trkpt lat="44.59236" lon="0.97745">
        <ele>223</ele>
        <time>2012-01-22T08:03:24Z</time>
      </trkpt>
      <trkpt lat="44.59234" lon="0.97744">
        <ele>223</ele>
        <time>2012-01-22T08:03:30Z</time>
      </trkpt>
      <trkpt lat="44.59233" lon="0.97746">
        <ele>223</ele>
        <time>2012-01-22T08:03:33Z</time>
      </trkpt>
      <trkpt lat="44.59232" lon="0.97746">
        <ele>223</ele>
        <time>2012-01-22T08:03:39Z</time>
      </trkpt>
      <trkpt lat="44.59232" lon="0.97748">
        <ele>223</ele>
        <time>2012-01-22T08:03:57Z</time>
      </trkpt>
      <trkpt lat="44.5923" lon="0.97749">
        <ele>223</ele>
        <time>2012-01-22T08:04:20Z</time>
      </trkpt>
      <trkpt lat="44.5923" lon="0.97751">
        <ele>223</ele>
        <time>2012-01-22T08:04:21Z</time>
      </trkpt>
      <trkpt lat="44.59233" lon="0.97748">
        <ele>223</ele>
        <time>2012-01-22T08:04:27Z</time>
      </trkpt>
      <trkpt lat="44.59234" lon="0.97747">
        <ele>223</ele>
        <time>2012-01-22T08:04:36Z</time>
      </trkpt>
      <trkpt lat="44.59234" lon="0.97749">
        <ele>223</ele>
        <time>2012-01-22T08:04:37Z</time>
      </trkpt>
      <trkpt lat="44.59235" lon="0.9775">
        <ele>223</ele>
        <time>2012-01-22T08:04:43Z</time>
      </trkpt>
      <trkpt lat="44.59235" lon="0.97752">
        <ele>223</ele>
        <time>2012-01-22T08:04:46Z</time>
      </trkpt>
      <trkpt lat="44.59234" lon="0.97754">
        <ele>223</ele>
        <time>2012-01-22T08:05:00Z</time>
      </trkpt>
      <trkpt lat="44.59232" lon="0.97757">
        <ele>223</ele>
        <time>2012-01-22T08:05:01Z</time>
      </trkpt>
      <trkpt lat="44.59232" lon="0.97759">
        <ele>223</ele>
        <time>2012-01-22T08:05:02Z</time>
      </trkpt>
      <trkpt lat="44.59233" lon="0.97762">
        <ele>222</ele>
        <time>2012-01-22T08:05:09Z</time>
      </trkpt>
      <trkpt lat="44.59233" lon="0.9777">
        <ele>222</ele>
        <time>2012-01-22T08:05:10Z</time>
      </trkpt>
      <trkpt lat="44.59236" lon="0.97781">
        <ele>222</ele>
        <time>2012-01-22T08:05:14Z</time>
      </trkpt>
      <trkpt lat="44.59235" lon="0.97784">
        <ele>222</ele>
        <time>2012-01-22T08:05:15Z</time>
      </trkpt>
      <trkpt lat="44.59237" lon="0.9779">
        <ele>222</ele>
        <time>2012-01-22T08:05:21Z</time>
      </trkpt>
      <trkpt lat="44.5924" lon="0.978">
        <ele>222</ele>
        <time>2012-01-22T08:05:21Z</time>
      </trkpt>
      <trkpt lat="44.59241" lon="0.97803">
        <ele>222</ele>
        <time>2012-01-22T08:05:22Z</time>
      </trkpt>
      <trkpt lat="44.59243" lon="0.97809">
        <ele>222</ele>
        <time>2012-01-22T08:05:27Z</time>
      </trkpt>
      <trkpt lat="44.59245" lon="0.97818">
        <ele>222</ele>
        <time>2012-01-22T08:05:27Z</time>
      </trkpt>
      <trkpt lat="44.59245" lon="0.97821">
        <ele>222</ele>
        <time>2012-01-22T08:05:28Z</time>
      </trkpt>
      <trkpt lat="44.59247" lon="0.97826">
        <ele>222</ele>
        <time>2012-01-22T08:05:33Z</time>
      </trkpt>
      <trkpt lat="44.59248" lon="0.97834">
        <ele>222</ele>
        <time>2012-01-22T08:05:33Z</time>
      </trkpt>
      <trkpt lat="44.59248" lon="0.97837">
        <ele>222</ele>
        <time>2012-01-22T08:05:35Z</time>
      </trkpt>
      <trkpt lat="44.59249" lon="0.97839">
        <ele>222</ele>
        <time>2012-01-22T08:05:35Z</time>
      </trkpt>
      <trkpt lat="44.59251" lon="0.97845">
        <ele>222</ele>
        <time>2012-01-22T08:05:40Z</time>
      </trkpt>
      <trkpt lat="44.59256" lon="0.97854">
        <ele>222</ele>
        <time>2012-01-22T08:05:41Z</time>
      </trkpt>
      <trkpt lat="44.59257" lon="0.97856">
        <ele>222</ele>
        <time>2012-01-22T08:05:42Z</time>
      </trkpt>
      <trkpt lat="44.59259" lon="0.97859">
        <ele>223</ele>
        <time>2012-01-22T08:05:43Z</time>
      </trkpt>
      <trkpt lat="44.59268" lon="0.97871">
        <ele>223</ele>
        <time>2012-01-22T08:05:47Z</time>
      </trkpt>
      <trkpt lat="44.5927" lon="0.97874">
        <ele>223</ele>
        <time>2012-01-22T08:05:49Z</time>
      </trkpt>
      <trkpt lat="44.59272" lon="0.97877">
        <ele>223</ele>
        <time>2012-01-22T08:05:50Z</time>
      </trkpt>
      <trkpt lat="44.59273" lon="0.9788">
        <ele>223</ele>
        <time>2012-01-22T08:05:50Z</time>
      </trkpt>
      <trkpt lat="44.59274" lon="0.97901">
        <ele>223</ele>
        <time>2012-01-22T08:05:56Z</time>
      </trkpt>
      <trkpt lat="44.59273" lon="0.97905">
        <ele>223</ele>
        <time>2012-01-22T08:05:57Z</time>
      </trkpt>
      <trkpt lat="44.59273" lon="0.97909">
        <ele>224</ele>
        <time>2012-01-22T08:05:58Z</time>
      </trkpt>
      <trkpt lat="44.5927" lon="0.97929">
        <ele>225</ele>
        <time>2012-01-22T08:06:02Z</time>
      </trkpt>
      <trkpt lat="44.59269" lon="0.97934">
        <ele>226</ele>
        <time>2012-01-22T08:06:03Z</time>
      </trkpt>
      <trkpt lat="44.59268" lon="0.97938">
        <ele>227</ele>
        <time>2012-01-22T08:06:04Z</time>
      </trkpt>
      <trkpt lat="44.59267" lon="0.97946">
        <ele>228</ele>
        <time>2012-01-22T08:06:09Z</time>
      </trkpt>
      <trkpt lat="44.5927" lon="0.97959">
        <ele>229</ele>
        <time>2012-01-22T08:06:09Z</time>
      </trkpt>
      <trkpt lat="44.59272" lon="0.97963">
        <ele>230</ele>
        <time>2012-01-22T08:06:10Z</time>
      </trkpt>
      <trkpt lat="44.59273" lon="0.97967">
        <ele>231</ele>
        <time>2012-01-22T08:06:11Z</time>
      </trkpt>
      <trkpt lat="44.59275" lon="0.97974">
        <ele>232</ele>
        <time>2012-01-22T08:06:16Z</time>
      </trkpt>
      <trkpt lat="44.59279" lon="0.97981">
        <ele>232</ele>
        <time>2012-01-22T08:06:16Z</time>
      </trkpt>
      <trkpt lat="44.59281" lon="0.97984">
        <ele>232</ele>
        <time>2012-01-22T08:06:18Z</time>
      </trkpt>
      <trkpt lat="44.59282" lon="0.97986">
        <ele>232</ele>
        <time>2012-01-22T08:06:18Z</time>
      </trkpt>
      <trkpt lat="44.59285" lon="0.97992">
        <ele>232</ele>
        <time>2012-01-22T08:06:23Z</time>
      </trkpt>
      <trkpt lat="44.59294" lon="0.98001">
        <ele>232</ele>
        <time>2012-01-22T08:06:23Z</time>
      </trkpt>
      <trkpt lat="44.59299" lon="0.98004">
        <ele>232</ele>
        <time>2012-01-22T08:06:24Z</time>
      </trkpt>
      <trkpt lat="44.59304" lon="0.98007">
        <ele>232</ele>
        <time>2012-01-22T08:06:26Z</time>
      </trkpt>
      <trkpt lat="44.59312" lon="0.98013">
        <ele>232</ele>
        <time>2012-01-22T08:06:30Z</time>
      </trkpt>
      <trkpt lat="44.5932" lon="0.98024">
        <ele>232</ele>
        <time>2012-01-22T08:06:30Z</time>
      </trkpt>
      <trkpt lat="44.59322" lon="0.98029">
        <ele>232</ele>
        <time>2012-01-22T08:06:31Z</time>
      </trkpt>
      <trkpt lat="44.59324" lon="0.98033">
        <ele>232</ele>
        <time>2012-01-22T08:06:32Z</time>
      </trkpt>
      <trkpt lat="44.59324" lon="0.98043">
        <ele>232</ele>
        <time>2012-01-22T08:06:37Z</time>
      </trkpt>
      <trkpt lat="44.59328" lon="0.98055">
        <ele>232</ele>
        <time>2012-01-22T08:06:38Z</time>
      </trkpt>
      <trkpt lat="44.5933" lon="0.98059">
        <ele>232</ele>
        <time>2012-01-22T08:06:38Z</time>
      </trkpt>
      <trkpt lat="44.59332" lon="0.98063">
        <ele>232</ele>
        <time>2012-01-22T08:06:40Z</time>
      </trkpt>
      <trkpt lat="44.59334" lon="0.98071">
        <ele>232</ele>
        <time>2012-01-22T08:06:44Z</time>
      </trkpt>
      <trkpt lat="44.59337" lon="0.98084">
        <ele>232</ele>
        <time>2012-01-22T08:06:44Z</time>
      </trkpt>
      <trkpt lat="44.59339" lon="0.98087">
        <ele>232</ele>
        <time>2012-01-22T08:06:45Z</time>
      </trkpt>
      <trkpt lat="44.59345" lon="0.981">
        <ele>232</ele>
        <time>2012-01-22T08:06:51Z</time>
      </trkpt>
      <trkpt lat="44.59346" lon="0.98103">
        <ele>232</ele>
        <time>2012-01-22T08:06:51Z</time>
      </trkpt>
      <trkpt lat="44.59348" lon="0.98105">
        <ele>232</ele>
        <time>2012-01-22T08:06:52Z</time>
      </trkpt>
      <trkpt lat="44.5935" lon="0.9811">
        <ele>232</ele>
        <time>2012-01-22T08:06:57Z</time>
      </trkpt>
      <trkpt lat="44.59352" lon="0.98116">
        <ele>232</ele>
        <time>2012-01-22T08:06:57Z</time>
      </trkpt>
      <trkpt lat="44.59353" lon="0.9812">
        <ele>232</ele>
        <time>2012-01-22T08:06:58Z</time>
      </trkpt>
      <trkpt lat="44.59358" lon="0.98128">
        <ele>232</ele>
        <time>2012-01-22T08:07:03Z</time>
      </trkpt>
      <trkpt lat="44.59359" lon="0.9813">
        <ele>232</ele>
        <time>2012-01-22T08:07:04Z</time>
      </trkpt>
      <trkpt lat="44.59361" lon="0.98133">
        <ele>232</ele>
        <time>2012-01-22T08:07:06Z</time>
      </trkpt>
      <trkpt lat="44.59362" lon="0.98137">
        <ele>232</ele>
        <time>2012-01-22T08:07:13Z</time>
      </trkpt>
      <trkpt lat="44.59362" lon="0.98152">
        <ele>232</ele>
        <time>2012-01-22T08:07:13Z</time>
      </trkpt>
      <trkpt lat="44.5936" lon="0.98156">
        <ele>232</ele>
        <time>2012-01-22T08:07:15Z</time>
      </trkpt>
      <trkpt lat="44.59358" lon="0.98161">
        <ele>232</ele>
        <time>2012-01-22T08:07:21Z</time>
      </trkpt>
      <trkpt lat="44.59353" lon="0.98169">
        <ele>232</ele>
        <time>2012-01-22T08:07:21Z</time>
      </trkpt>
      <trkpt lat="44.5935" lon="0.98174">
        <ele>232</ele>
        <time>2012-01-22T08:07:27Z</time>
      </trkpt>
      <trkpt lat="44.59345" lon="0.98188">
        <ele>232</ele>
        <time>2012-01-22T08:07:27Z</time>
      </trkpt>
      <trkpt lat="44.59344" lon="0.98191">
        <ele>232</ele>
        <time>2012-01-22T08:07:28Z</time>
      </trkpt>
      <trkpt lat="44.59342" lon="0.98195">
        <ele>232</ele>
        <time>2012-01-22T08:07:29Z</time>
      </trkpt>
      <trkpt lat="44.59341" lon="0.98201">
        <ele>232</ele>
        <time>2012-01-22T08:07:34Z</time>
      </trkpt>
      <trkpt lat="44.59338" lon="0.98211">
        <ele>232</ele>
        <time>2012-01-22T08:07:35Z</time>
      </trkpt>
      <trkpt lat="44.59336" lon="0.98215">
        <ele>232</ele>
        <time>2012-01-22T08:07:35Z</time>
      </trkpt>
      <trkpt lat="44.59333" lon="0.98221">
        <ele>232</ele>
        <time>2012-01-22T08:07:41Z</time>
      </trkpt>
      <trkpt lat="44.59328" lon="0.98236">
        <ele>231</ele>
        <time>2012-01-22T08:07:41Z</time>
      </trkpt>
      <trkpt lat="44.59327" lon="0.98239">
        <ele>230</ele>
        <time>2012-01-22T08:07:42Z</time>
      </trkpt>
      <trkpt lat="44.59325" lon="0.98247">
        <ele>229</ele>
        <time>2012-01-22T08:07:47Z</time>
      </trkpt>
      <trkpt lat="44.59318" lon="0.98257">
        <ele>228</ele>
        <time>2012-01-22T08:07:47Z</time>
      </trkpt>
      <trkpt lat="44.59317" lon="0.98261">
        <ele>227</ele>
        <time>2012-01-22T08:07:48Z</time>
      </trkpt>
      <trkpt lat="44.59315" lon="0.98264">
        <ele>226</ele>
        <time>2012-01-22T08:07:50Z</time>
      </trkpt>
      <trkpt lat="44.5931" lon="0.98273">
        <ele>225</ele>
        <time>2012-01-22T08:07:54Z</time>
      </trkpt>
      <trkpt lat="44.59305" lon="0.98283">
        <ele>224</ele>
        <time>2012-01-22T08:07:54Z</time>
      </trkpt>
      <trkpt lat="44.59304" lon="0.98286">
        <ele>224</ele>
        <time>2012-01-22T08:07:55Z</time>
      </trkpt>
      <trkpt lat="44.59302" lon="0.98292">
        <ele>224</ele>
        <time>2012-01-22T08:08:01Z</time>
      </trkpt>
      <trkpt lat="44.59297" lon="0.98306">
        <ele>224</ele>
        <time>2012-01-22T08:08:01Z</time>
      </trkpt>
      <trkpt lat="44.59295" lon="0.98308">
        <ele>224</ele>
        <time>2012-01-22T08:08:02Z</time>
      </trkpt>
      <trkpt lat="44.59293" lon="0.9831">
        <ele>224</ele>
        <time>2012-01-22T08:08:04Z</time>
      </trkpt>
      <trkpt lat="44.59279" lon="0.98326">
        <ele>224</ele>
        <time>2012-01-22T08:08:09Z</time>
      </trkpt>
      <trkpt lat="44.59275" lon="0.98328">
        <ele>224</ele>
        <time>2012-01-22T08:08:09Z</time>
      </trkpt>
      <trkpt lat="44.59272" lon="0.9833">
        <ele>224</ele>
        <time>2012-01-22T08:08:10Z</time>
      </trkpt>
      <trkpt lat="44.59267" lon="0.98336">
        <ele>224</ele>
        <time>2012-01-22T08:08:15Z</time>
      </trkpt>
      <trkpt lat="44.59266" lon="0.98349">
        <ele>224</ele>
        <time>2012-01-22T08:08:15Z</time>
      </trkpt>
      <trkpt lat="44.59266" lon="0.98352">
        <ele>224</ele>
        <time>2012-01-22T08:08:16Z</time>
      </trkpt>
      <trkpt lat="44.59267" lon="0.98356">
        <ele>224</ele>
        <time>2012-01-22T08:08:17Z</time>
      </trkpt>
      <trkpt lat="44.59269" lon="0.98365">
        <ele>224</ele>
        <time>2012-01-22T08:08:22Z</time>
      </trkpt>
      <trkpt lat="44.59275" lon="0.98377">
        <ele>224</ele>
        <time>2012-01-22T08:08:22Z</time>
      </trkpt>
      <trkpt lat="44.59276" lon="0.98381">
        <ele>224</ele>
        <time>2012-01-22T08:08:23Z</time>
      </trkpt>
      <trkpt lat="44.59283" lon="0.98399">
        <ele>224</ele>
        <time>2012-01-22T08:08:28Z</time>
      </trkpt>
      <trkpt lat="44.59285" lon="0.98404">
        <ele>224</ele>
        <time>2012-01-22T08:08:29Z</time>
      </trkpt>
      <trkpt lat="44.59287" lon="0.98408">
        <ele>224</ele>
        <time>2012-01-22T08:08:30Z</time>
      </trkpt>
      <trkpt lat="44.59291" lon="0.98417">
        <ele>224</ele>
        <time>2012-01-22T08:08:35Z</time>
      </trkpt>
      <trkpt lat="44.59299" lon="0.98432">
        <ele>224</ele>
        <time>2012-01-22T08:08:35Z</time>
      </trkpt>
      <trkpt lat="44.59302" lon="0.98439">
        <ele>224</ele>
        <time>2012-01-22T08:08:36Z</time>
      </trkpt>
      <trkpt lat="44.5931" lon="0.98454">
        <ele>224</ele>
        <time>2012-01-22T08:08:42Z</time>
      </trkpt>
      <trkpt lat="44.59324" lon="0.98484">
        <ele>224</ele>
        <time>2012-01-22T08:08:42Z</time>
      </trkpt>
      <trkpt lat="44.59327" lon="0.98491">
        <ele>224</ele>
        <time>2012-01-22T08:08:43Z</time>
      </trkpt>
      <trkpt lat="44.59329" lon="0.98504">
        <ele>224</ele>
        <time>2012-01-22T08:08:48Z</time>
      </trkpt>
      <trkpt lat="44.5933" lon="0.98521">
        <ele>224</ele>
        <time>2012-01-22T08:08:49Z</time>
      </trkpt>
      <trkpt lat="44.5933" lon="0.98526">
        <ele>224</ele>
        <time>2012-01-22T08:08:50Z</time>
      </trkpt>
      <trkpt lat="44.5933" lon="0.98536">
        <ele>224</ele>
        <time>2012-01-22T08:08:55Z</time>
      </trkpt>
      <trkpt lat="44.59336" lon="0.98554">
        <ele>224</ele>
        <time>2012-01-22T08:08:55Z</time>
      </trkpt>
      <trkpt lat="44.59337" lon="0.98558">
        <ele>224</ele>
        <time>2012-01-22T08:08:57Z</time>
      </trkpt>
      <trkpt lat="44.59339" lon="0.98563">
        <ele>224</ele>
        <time>2012-01-22T08:08:58Z</time>
      </trkpt>
      <trkpt lat="44.59342" lon="0.98573">
        <ele>224</ele>
        <time>2012-01-22T08:09:03Z</time>
      </trkpt>
      <trkpt lat="44.59347" lon="0.98592">
        <ele>224</ele>
        <time>2012-01-22T08:09:03Z</time>
      </trkpt>
      <trkpt lat="44.59348" lon="0.98597">
        <ele>224</ele>
        <time>2012-01-22T08:09:04Z</time>
      </trkpt>
      <trkpt lat="44.5935" lon="0.98606">
        <ele>224</ele>
        <time>2012-01-22T08:09:09Z</time>
      </trkpt>
      <trkpt lat="44.59355" lon="0.98619">
        <ele>225</ele>
        <time>2012-01-22T08:09:09Z</time>
      </trkpt>
      <trkpt lat="44.59357" lon="0.98623">
        <ele>226</ele>
        <time>2012-01-22T08:09:10Z</time>
      </trkpt>
      <trkpt lat="44.5936" lon="0.98628">
        <ele>227</ele>
        <time>2012-01-22T08:09:12Z</time>
      </trkpt>
      <trkpt lat="44.59372" lon="0.98647">
        <ele>227</ele>
        <time>2012-01-22T08:09:16Z</time>
      </trkpt>
      <trkpt lat="44.59374" lon="0.98651">
        <ele>227</ele>
        <time>2012-01-22T08:09:17Z</time>
      </trkpt>
      <trkpt lat="44.59379" lon="0.98659">
        <ele>227</ele>
        <time>2012-01-22T08:09:23Z</time>
      </trkpt>
      <trkpt lat="44.59389" lon="0.98676">
        <ele>227</ele>
        <time>2012-01-22T08:09:23Z</time>
      </trkpt>
      <trkpt lat="44.59391" lon="0.9868">
        <ele>227</ele>
        <time>2012-01-22T08:09:24Z</time>
      </trkpt>
      <trkpt lat="44.59395" lon="0.98689">
        <ele>227</ele>
        <time>2012-01-22T08:09:29Z</time>
      </trkpt>
      <trkpt lat="44.59402" lon="0.98698">
        <ele>227</ele>
        <time>2012-01-22T08:09:29Z</time>
      </trkpt>
      <trkpt lat="44.59405" lon="0.987">
        <ele>227</ele>
        <time>2012-01-22T08:09:31Z</time>
      </trkpt>
      <trkpt lat="44.59406" lon="0.98703">
        <ele>227</ele>
        <time>2012-01-22T08:09:31Z</time>
      </trkpt>
      <trkpt lat="44.59406" lon="0.98709">
        <ele>227</ele>
        <time>2012-01-22T08:09:33Z</time>
      </trkpt>
      <trkpt lat="44.59402" lon="0.98715">
        <ele>227</ele>
        <time>2012-01-22T08:09:39Z</time>
      </trkpt>
      <trkpt lat="44.59394" lon="0.9873">
        <ele>227</ele>
        <time>2012-01-22T08:09:40Z</time>
      </trkpt>
      <trkpt lat="44.59392" lon="0.98734">
        <ele>227</ele>
        <time>2012-01-22T08:09:40Z</time>
      </trkpt>
      <trkpt lat="44.59389" lon="0.98743">
        <ele>227</ele>
        <time>2012-01-22T08:09:45Z</time>
      </trkpt>
      <trkpt lat="44.59383" lon="0.98756">
        <ele>227</ele>
        <time>2012-01-22T08:09:45Z</time>
      </trkpt>
      <trkpt lat="44.5938" lon="0.9876">
        <ele>227</ele>
        <time>2012-01-22T08:09:46Z</time>
      </trkpt>
      <trkpt lat="44.59375" lon="0.98765">
        <ele>227</ele>
        <time>2012-01-22T08:09:52Z</time>
      </trkpt>
      <trkpt lat="44.59366" lon="0.98775">
        <ele>227</ele>
        <time>2012-01-22T08:09:53Z</time>
      </trkpt>
      <trkpt lat="44.59364" lon="0.98772">
        <ele>227</ele>
        <time>2012-01-22T08:09:55Z</time>
      </trkpt>
      <trkpt lat="44.59362" lon="0.98767">
        <ele>227</ele>
        <time>2012-01-22T08:10:00Z</time>
      </trkpt>
      <trkpt lat="44.5935" lon="0.98758">
        <ele>226</ele>
        <time>2012-01-22T08:10:01Z</time>
      </trkpt>
      <trkpt lat="44.59347" lon="0.98756">
        <ele>225</ele>
        <time>2012-01-22T08:10:01Z</time>
      </trkpt>
      <trkpt lat="44.59343" lon="0.98756">
        <ele>224</ele>
        <time>2012-01-22T08:10:03Z</time>
      </trkpt>
      <trkpt lat="44.59327" lon="0.98756">
        <ele>223</ele>
        <time>2012-01-22T08:10:09Z</time>
      </trkpt>
      <trkpt lat="44.59307" lon="0.98762">
        <ele>222</ele>
        <time>2012-01-22T08:10:09Z</time>
      </trkpt>
      <trkpt lat="44.59303" lon="0.98765">
        <ele>221</ele>
        <time>2012-01-22T08:10:11Z</time>
      </trkpt>
      <trkpt lat="44.59295" lon="0.98774">
        <ele>220</ele>
        <time>2012-01-22T08:10:17Z</time>
      </trkpt>
      <trkpt lat="44.59275" lon="0.98793">
        <ele>218</ele>
        <time>2012-01-22T08:10:17Z</time>
      </trkpt>
      <trkpt lat="44.59266" lon="0.9881">
        <ele>217</ele>
        <time>2012-01-22T08:10:22Z</time>
      </trkpt>
      <trkpt lat="44.59265" lon="0.9881">
        <ele>216</ele>
        <time>2012-01-22T08:10:23Z</time>
      </trkpt>
      <trkpt lat="44.59264" lon="0.98813">
        <ele>212</ele>
        <time>2012-01-22T08:10:32Z</time>
      </trkpt>
      <trkpt lat="44.59265" lon="0.98812">
        <ele>211</ele>
        <time>2012-01-22T08:10:33Z</time>
      </trkpt>
      <trkpt lat="44.59266" lon="0.9881">
        <ele>211</ele>
        <time>2012-01-22T08:10:41Z</time>
      </trkpt>
      <trkpt lat="44.59263" lon="0.98813">
        <ele>209</ele>
        <time>2012-01-22T08:10:49Z</time>
      </trkpt>
      <trkpt lat="44.59259" lon="0.98814">
        <ele>205</ele>
        <time>2012-01-22T08:10:58Z</time>
      </trkpt>
      <trkpt lat="44.59261" lon="0.98813">
        <ele>204</ele>
        <time>2012-01-22T08:10:59Z</time>
      </trkpt>
      <trkpt lat="44.59261" lon="0.98812">
        <ele>204</ele>
        <time>2012-01-22T08:11:06Z</time>
      </trkpt>
      <trkpt lat="44.59261" lon="0.98818">
        <ele>204</ele>
        <time>2012-01-22T08:11:15Z</time>
      </trkpt>
      <trkpt lat="44.59261" lon="0.98821">
        <ele>204</ele>
        <time>2012-01-22T08:11:16Z</time>
      </trkpt>
      <trkpt lat="44.59261" lon="0.98826">
        <ele>204</ele>
        <time>2012-01-22T08:11:21Z</time>
      </trkpt>
      <trkpt lat="44.5926" lon="0.98841">
        <ele>204</ele>
        <time>2012-01-22T08:11:21Z</time>
      </trkpt>
      <trkpt lat="44.5926" lon="0.98844">
        <ele>204</ele>
        <time>2012-01-22T08:11:22Z</time>
      </trkpt>
      <trkpt lat="44.59259" lon="0.98851">
        <ele>203</ele>
        <time>2012-01-22T08:11:27Z</time>
      </trkpt>
      <trkpt lat="44.59257" lon="0.98859">
        <ele>203</ele>
        <time>2012-01-22T08:11:27Z</time>
      </trkpt>
      <trkpt lat="44.59257" lon="0.98863">
        <ele>202</ele>
        <time>2012-01-22T08:11:29Z</time>
      </trkpt>
      <trkpt lat="44.59256" lon="0.98867">
        <ele>202</ele>
        <time>2012-01-22T08:11:30Z</time>
      </trkpt>
      <trkpt lat="44.59256" lon="0.98871">
        <ele>202</ele>
        <time>2012-01-22T08:11:31Z</time>
      </trkpt>
      <trkpt lat="44.59255" lon="0.9888">
        <ele>202</ele>
        <time>2012-01-22T08:11:37Z</time>
      </trkpt>
      <trkpt lat="44.59251" lon="0.98902">
        <ele>202</ele>
        <time>2012-01-22T08:11:37Z</time>
      </trkpt>
      <trkpt lat="44.59251" lon="0.9891">
        <ele>202</ele>
        <time>2012-01-22T08:11:43Z</time>
      </trkpt>
      <trkpt lat="44.59248" lon="0.9893">
        <ele>202</ele>
        <time>2012-01-22T08:11:43Z</time>
      </trkpt>
      <trkpt lat="44.59246" lon="0.98937">
        <ele>202</ele>
        <time>2012-01-22T08:11:44Z</time>
      </trkpt>
      <trkpt lat="44.59243" lon="0.98949">
        <ele>202</ele>
        <time>2012-01-22T08:11:49Z</time>
      </trkpt>
      <trkpt lat="44.59241" lon="0.98968">
        <ele>202</ele>
        <time>2012-01-22T08:11:49Z</time>
      </trkpt>
      <trkpt lat="44.5924" lon="0.98974">
        <ele>203</ele>
        <time>2012-01-22T08:11:50Z</time>
      </trkpt>
      <trkpt lat="44.5924" lon="0.98986">
        <ele>204</ele>
        <time>2012-01-22T08:11:56Z</time>
      </trkpt>
      <trkpt lat="44.59235" lon="0.9901">
        <ele>205</ele>
        <time>2012-01-22T08:11:56Z</time>
      </trkpt>
      <trkpt lat="44.59232" lon="0.99015">
        <ele>206</ele>
        <time>2012-01-22T08:11:58Z</time>
      </trkpt>
      <trkpt lat="44.5923" lon="0.9902">
        <ele>207</ele>
        <time>2012-01-22T08:11:59Z</time>
      </trkpt>
      <trkpt lat="44.59229" lon="0.99027">
        <ele>208</ele>
        <time>2012-01-22T08:11:59Z</time>
      </trkpt>
      <trkpt lat="44.59228" lon="0.9904">
        <ele>208</ele>
        <time>2012-01-22T08:12:04Z</time>
      </trkpt>
      <trkpt lat="44.59224" lon="0.99055">
        <ele>208</ele>
        <time>2012-01-22T08:12:05Z</time>
      </trkpt>
      <trkpt lat="44.5922" lon="0.99063">
        <ele>208</ele>
        <time>2012-01-22T08:12:07Z</time>
      </trkpt>
      <trkpt lat="44.59219" lon="0.99066">
        <ele>207</ele>
        <time>2012-01-22T08:12:08Z</time>
      </trkpt>
      <trkpt lat="44.59217" lon="0.9907">
        <ele>206</ele>
        <time>2012-01-22T08:12:13Z</time>
      </trkpt>
      <trkpt lat="44.59214" lon="0.99079">
        <ele>205</ele>
        <time>2012-01-22T08:12:13Z</time>
      </trkpt>
      <trkpt lat="44.59213" lon="0.99081">
        <ele>203</ele>
        <time>2012-01-22T08:12:21Z</time>
      </trkpt>
      <trkpt lat="44.59213" lon="0.99085">
        <ele>202</ele>
        <time>2012-01-22T08:12:22Z</time>
      </trkpt>
      <trkpt lat="44.59212" lon="0.99087">
        <ele>201</ele>
        <time>2012-01-22T08:12:27Z</time>
      </trkpt>
      <trkpt lat="44.59212" lon="0.9909">
        <ele>200</ele>
        <time>2012-01-22T08:12:28Z</time>
      </trkpt>
      <trkpt lat="44.59211" lon="0.99091">
        <ele>200</ele>
        <time>2012-01-22T08:12:37Z</time>
      </trkpt>
      <trkpt lat="44.59204" lon="0.99102">
        <ele>200</ele>
        <time>2012-01-22T08:12:38Z</time>
      </trkpt>
      <trkpt lat="44.59201" lon="0.99107">
        <ele>200</ele>
        <time>2012-01-22T08:12:39Z</time>
      </trkpt>
      <trkpt lat="44.59199" lon="0.99111">
        <ele>199</ele>
        <time>2012-01-22T08:12:40Z</time>
      </trkpt>
      <trkpt lat="44.59196" lon="0.99119">
        <ele>198</ele>
        <time>2012-01-22T08:12:45Z</time>
      </trkpt>
      <trkpt lat="44.59181" lon="0.99139">
        <ele>197</ele>
        <time>2012-01-22T08:12:45Z</time>
      </trkpt>
      <trkpt lat="44.59177" lon="0.99144">
        <ele>196</ele>
        <time>2012-01-22T08:12:47Z</time>
      </trkpt>
      <trkpt lat="44.59174" lon="0.99148">
        <ele>195</ele>
        <time>2012-01-22T08:12:48Z</time>
      </trkpt>
      <trkpt lat="44.59167" lon="0.99158">
        <ele>194</ele>
        <time>2012-01-22T08:12:53Z</time>
      </trkpt>
      <trkpt lat="44.5916" lon="0.99177">
        <ele>193</ele>
        <time>2012-01-22T08:12:53Z</time>
      </trkpt>
      <trkpt lat="44.59158" lon="0.99181">
        <ele>192</ele>
        <time>2012-01-22T08:12:54Z</time>
      </trkpt>
      <trkpt lat="44.59155" lon="0.99186">
        <ele>191</ele>
        <time>2012-01-22T08:12:56Z</time>
      </trkpt>
      <trkpt lat="44.59151" lon="0.99189">
        <ele>190</ele>
        <time>2012-01-22T08:12:57Z</time>
      </trkpt>
      <trkpt lat="44.59143" lon="0.99193">
        <ele>189</ele>
        <time>2012-01-22T08:13:03Z</time>
      </trkpt>
      <trkpt lat="44.59122" lon="0.99199">
        <ele>188</ele>
        <time>2012-01-22T08:13:04Z</time>
      </trkpt>
      <trkpt lat="44.59118" lon="0.99205">
        <ele>187</ele>
        <time>2012-01-22T08:13:05Z</time>
      </trkpt>
      <trkpt lat="44.59114" lon="0.9921">
        <ele>186</ele>
        <time>2012-01-22T08:13:06Z</time>
      </trkpt>
      <trkpt lat="44.59105" lon="0.99243">
        <ele>185</ele>
        <time>2012-01-22T08:13:10Z</time>
      </trkpt>
      <trkpt lat="44.59105" lon="0.99253">
        <ele>184</ele>
        <time>2012-01-22T08:13:12Z</time>
      </trkpt>
      <trkpt lat="44.59106" lon="0.99261">
        <ele>183</ele>
        <time>2012-01-22T08:13:13Z</time>
      </trkpt>
      <trkpt lat="44.59106" lon="0.99278">
        <ele>182</ele>
        <time>2012-01-22T08:13:18Z</time>
      </trkpt>
      <trkpt lat="44.59105" lon="0.993">
        <ele>181</ele>
        <time>2012-01-22T08:13:18Z</time>
      </trkpt>
      <trkpt lat="44.59104" lon="0.99305">
        <ele>181</ele>
        <time>2012-01-22T08:13:19Z</time>
      </trkpt>
      <trkpt lat="44.59104" lon="0.99309">
        <ele>181</ele>
        <time>2012-01-22T08:13:20Z</time>
      </trkpt>
      <trkpt lat="44.59098" lon="0.99346">
        <ele>181</ele>
        <time>2012-01-22T08:13:25Z</time>
      </trkpt>
      <trkpt lat="44.59098" lon="0.99353">
        <ele>181</ele>
        <time>2012-01-22T08:13:26Z</time>
      </trkpt>
      <trkpt lat="44.59099" lon="0.9937">
        <ele>180</ele>
        <time>2012-01-22T08:13:32Z</time>
      </trkpt>
      <trkpt lat="44.59098" lon="0.994">
        <ele>179</ele>
        <time>2012-01-22T08:13:32Z</time>
      </trkpt>
      <trkpt lat="44.59099" lon="0.99408">
        <ele>177</ele>
        <time>2012-01-22T08:13:34Z</time>
      </trkpt>
      <trkpt lat="44.591" lon="0.99417">
        <ele>175</ele>
        <time>2012-01-22T08:13:35Z</time>
      </trkpt>
      <trkpt lat="44.59099" lon="0.99429">
        <ele>173</ele>
        <time>2012-01-22T08:13:36Z</time>
      </trkpt>
      <trkpt lat="44.59098" lon="0.99446">
        <ele>170</ele>
        <time>2012-01-22T08:13:40Z</time>
      </trkpt>
      <trkpt lat="44.5909" lon="0.99472">
        <ele>168</ele>
        <time>2012-01-22T08:13:41Z</time>
      </trkpt>
      <trkpt lat="44.59086" lon="0.99477">
        <ele>166</ele>
        <time>2012-01-22T08:13:43Z</time>
      </trkpt>
      <trkpt lat="44.59081" lon="0.99482">
        <ele>164</ele>
        <time>2012-01-22T08:13:44Z</time>
      </trkpt>
      <trkpt lat="44.59073" lon="0.99494">
        <ele>162</ele>
        <time>2012-01-22T08:13:49Z</time>
      </trkpt>
      <trkpt lat="44.59055" lon="0.99509">
        <ele>160</ele>
        <time>2012-01-22T08:13:49Z</time>
      </trkpt>
      <trkpt lat="44.59051" lon="0.9951">
        <ele>158</ele>
        <time>2012-01-22T08:13:51Z</time>
      </trkpt>
      <trkpt lat="44.59045" lon="0.9951">
        <ele>157</ele>
        <time>2012-01-22T08:13:52Z</time>
      </trkpt>
      <trkpt lat="44.59038" lon="0.99509">
        <ele>156</ele>
        <time>2012-01-22T08:13:53Z</time>
      </trkpt>
      <trkpt lat="44.59018" lon="0.99514">
        <ele>154</ele>
        <time>2012-01-22T08:13:58Z</time>
      </trkpt>
      <trkpt lat="44.59015" lon="0.99515">
        <ele>152</ele>
        <time>2012-01-22T08:13:59Z</time>
      </trkpt>
      <trkpt lat="44.59013" lon="0.99517">
        <ele>150</ele>
        <time>2012-01-22T08:14:00Z</time>
      </trkpt>
      <trkpt lat="44.5901" lon="0.99528">
        <ele>148</ele>
        <time>2012-01-22T08:14:05Z</time>
      </trkpt>
      <trkpt lat="44.59011" lon="0.99529">
        <ele>142</ele>
        <time>2012-01-22T08:14:10Z</time>
      </trkpt>
      <trkpt lat="44.59014" lon="0.99529">
        <ele>142</ele>
        <time>2012-01-22T08:14:16Z</time>
      </trkpt>
      <trkpt lat="44.59018" lon="0.99531">
        <ele>142</ele>
        <time>2012-01-22T08:14:17Z</time>
      </trkpt>
      <trkpt lat="44.59019" lon="0.99531">
        <ele>144</ele>
        <time>2012-01-22T08:14:24Z</time>
      </trkpt>
      <trkpt lat="44.5902" lon="0.99529">
        <ele>148</ele>
        <time>2012-01-22T08:14:33Z</time>
      </trkpt>
      <trkpt lat="44.59019" lon="0.99531">
        <ele>150</ele>
        <time>2012-01-22T08:14:41Z</time>
      </trkpt>
      <trkpt lat="44.59021" lon="0.99529">
        <ele>150</ele>
        <time>2012-01-22T08:14:42Z</time>
      </trkpt>
      <trkpt lat="44.59018" lon="0.99532">
        <ele>150</ele>
        <time>2012-01-22T08:14:49Z</time>
      </trkpt>
      <trkpt lat="44.59016" lon="0.99539">
        <ele>150</ele>
        <time>2012-01-22T08:14:49Z</time>
      </trkpt>
      <trkpt lat="44.59015" lon="0.99541">
        <ele>150</ele>
        <time>2012-01-22T08:14:50Z</time>
      </trkpt>
      <trkpt lat="44.59014" lon="0.99543">
        <ele>149</ele>
        <time>2012-01-22T08:14:52Z</time>
      </trkpt>
      <trkpt lat="44.59018" lon="0.99569">
        <ele>148</ele>
        <time>2012-01-22T08:14:57Z</time>
      </trkpt>
      <trkpt lat="44.59017" lon="0.99572">
        <ele>147</ele>
        <time>2012-01-22T08:14:58Z</time>
      </trkpt>
      <trkpt lat="44.59015" lon="0.99574">
        <ele>146</ele>
        <time>2012-01-22T08:15:00Z</time>
      </trkpt>
      <trkpt lat="44.59013" lon="0.99576">
        <ele>145</ele>
        <time>2012-01-22T08:15:01Z</time>
      </trkpt>
      <trkpt lat="44.59013" lon="0.99582">
        <ele>144</ele>
        <time>2012-01-22T08:15:06Z</time>
      </trkpt>
      <trkpt lat="44.59017" lon="0.99593">
        <ele>143</ele>
        <time>2012-01-22T08:15:07Z</time>
      </trkpt>
      <trkpt lat="44.59018" lon="0.99596">
        <ele>142</ele>
        <time>2012-01-22T08:15:07Z</time>
      </trkpt>
      <trkpt lat="44.5902" lon="0.99599">
        <ele>141</ele>
        <time>2012-01-22T08:15:09Z</time>
      </trkpt>
      <trkpt lat="44.59022" lon="0.99606">
        <ele>140</ele>
        <time>2012-01-22T08:15:14Z</time>
      </trkpt>
      <trkpt lat="44.59026" lon="0.9962">
        <ele>140</ele>
        <time>2012-01-22T08:15:14Z</time>
      </trkpt>
      <trkpt lat="44.59027" lon="0.99624">
        <ele>140</ele>
        <time>2012-01-22T08:15:15Z</time>
      </trkpt>
      <trkpt lat="44.59029" lon="0.99631">
        <ele>140</ele>
        <time>2012-01-22T08:15:21Z</time>
      </trkpt>
      <trkpt lat="44.59032" lon="0.99639">
        <ele>140</ele>
        <time>2012-01-22T08:15:21Z</time>
      </trkpt>
      <trkpt lat="44.59032" lon="0.99641">
        <ele>140</ele>
        <time>2012-01-22T08:15:22Z</time>
      </trkpt>
      <trkpt lat="44.59032" lon="0.99642">
        <ele>140</ele>
        <time>2012-01-22T08:15:23Z</time>
      </trkpt>
      <trkpt lat="44.59032" lon="0.99645">
        <ele>140</ele>
        <time>2012-01-22T08:15:30Z</time>
      </trkpt>
      <trkpt lat="44.59034" lon="0.99649">
        <ele>136</ele>
        <time>2012-01-22T08:16:14Z</time>
      </trkpt>
      <trkpt lat="44.59034" lon="0.99651">
        <ele>133</ele>
        <time>2012-01-22T08:16:18Z</time>
      </trkpt>
      <trkpt lat="44.59035" lon="0.99654">
        <ele>132</ele>
        <time>2012-01-22T08:16:24Z</time>
      </trkpt>
      <trkpt lat="44.59043" lon="0.99663">
        <ele>131</ele>
        <time>2012-01-22T08:16:25Z</time>
      </trkpt>
      <trkpt lat="44.59046" lon="0.99663">
        <ele>131</ele>
        <time>2012-01-22T08:16:26Z</time>
      </trkpt>
      <trkpt lat="44.59051" lon="0.99665">
        <ele>131</ele>
        <time>2012-01-22T08:16:32Z</time>
      </trkpt>
      <trkpt lat="44.59062" lon="0.99662">
        <ele>131</ele>
        <time>2012-01-22T08:16:32Z</time>
      </trkpt>
      <trkpt lat="44.59064" lon="0.99661">
        <ele>131</ele>
        <time>2012-01-22T08:16:33Z</time>
      </trkpt>
      <trkpt lat="44.59067" lon="0.9966">
        <ele>132</ele>
        <time>2012-01-22T08:16:34Z</time>
      </trkpt>
      <trkpt lat="44.59077" lon="0.99653">
        <ele>133</ele>
        <time>2012-01-22T08:16:39Z</time>
      </trkpt>
      <trkpt lat="44.59078" lon="0.99651">
        <ele>134</ele>
        <time>2012-01-22T08:16:41Z</time>
      </trkpt>
      <trkpt lat="44.5908" lon="0.99651">
        <ele>135</ele>
        <time>2012-01-22T08:16:42Z</time>
      </trkpt>
      <trkpt lat="44.59083" lon="0.99647">
        <ele>136</ele>
        <time>2012-01-22T08:16:47Z</time>
      </trkpt>
      <trkpt lat="44.5909" lon="0.99642">
        <ele>137</ele>
        <time>2012-01-22T08:16:47Z</time>
      </trkpt>
      <trkpt lat="44.59092" lon="0.99641">
        <ele>138</ele>
        <time>2012-01-22T08:16:48Z</time>
      </trkpt>
      <trkpt lat="44.59097" lon="0.99639">
        <ele>140</ele>
        <time>2012-01-22T08:16:54Z</time>
      </trkpt>
      <trkpt lat="44.59105" lon="0.99635">
        <ele>142</ele>
        <time>2012-01-22T08:16:55Z</time>
      </trkpt>
      <trkpt lat="44.59107" lon="0.99634">
        <ele>144</ele>
        <time>2012-01-22T08:16:55Z</time>
      </trkpt>
      <trkpt lat="44.59111" lon="0.99632">
        <ele>146</ele>
        <time>2012-01-22T08:17:01Z</time>
      </trkpt>
      <trkpt lat="44.59118" lon="0.99631">
        <ele>148</ele>
        <time>2012-01-22T08:17:01Z</time>
      </trkpt>
      <trkpt lat="44.59119" lon="0.9963">
        <ele>150</ele>
        <time>2012-01-22T08:17:02Z</time>
      </trkpt>
      <trkpt lat="44.59123" lon="0.9963">
        <ele>152</ele>
        <time>2012-01-22T08:17:08Z</time>
      </trkpt>
      <trkpt lat="44.59131" lon="0.99628">
        <ele>153</ele>
        <time>2012-01-22T08:17:08Z</time>
      </trkpt>
      <trkpt lat="44.59133" lon="0.99628">
        <ele>154</ele>
        <time>2012-01-22T08:17:09Z</time>
      </trkpt>
      <trkpt lat="44.59149" lon="0.9963">
        <ele>155</ele>
        <time>2012-01-22T08:17:14Z</time>
      </trkpt>
      <trkpt lat="44.59151" lon="0.9963">
        <ele>156</ele>
        <time>2012-01-22T08:17:15Z</time>
      </trkpt>
      <trkpt lat="44.59154" lon="0.99629">
        <ele>157</ele>
        <time>2012-01-22T08:17:16Z</time>
      </trkpt>
      <trkpt lat="44.59159" lon="0.99627">
        <ele>158</ele>
        <time>2012-01-22T08:17:21Z</time>
      </trkpt>
      <trkpt lat="44.59172" lon="0.99622">
        <ele>158</ele>
        <time>2012-01-22T08:17:22Z</time>
      </trkpt>
      <trkpt lat="44.59175" lon="0.99621">
        <ele>158</ele>
        <time>2012-01-22T08:17:23Z</time>
      </trkpt>
      <trkpt lat="44.5918" lon="0.99618">
        <ele>158</ele>
        <time>2012-01-22T08:17:28Z</time>
      </trkpt>
      <trkpt lat="44.59192" lon="0.99615">
        <ele>158</ele>
        <time>2012-01-22T08:17:29Z</time>
      </trkpt>
      <trkpt lat="44.59195" lon="0.99613">
        <ele>157</ele>
        <time>2012-01-22T08:17:30Z</time>
      </trkpt>
      <trkpt lat="44.59201" lon="0.99611">
        <ele>157</ele>
        <time>2012-01-22T08:17:35Z</time>
      </trkpt>
      <trkpt lat="44.59215" lon="0.99601">
        <ele>157</ele>
        <time>2012-01-22T08:17:36Z</time>
      </trkpt>
      <trkpt lat="44.59218" lon="0.99599">
        <ele>157</ele>
        <time>2012-01-22T08:17:37Z</time>
      </trkpt>
      <trkpt lat="44.59232" lon="0.99587">
        <ele>157</ele>
        <time>2012-01-22T08:17:42Z</time>
      </trkpt>
      <trkpt lat="44.59234" lon="0.99585">
        <ele>157</ele>
        <time>2012-01-22T08:17:43Z</time>
      </trkpt>
      <trkpt lat="44.59237" lon="0.99583">
        <ele>157</ele>
        <time>2012-01-22T08:17:44Z</time>
      </trkpt>
      <trkpt lat="44.59243" lon="0.99578">
        <ele>157</ele>
        <time>2012-01-22T08:17:49Z</time>
      </trkpt>
      <trkpt lat="44.59254" lon="0.99566">
        <ele>157</ele>
        <time>2012-01-22T08:17:50Z</time>
      </trkpt>
      <trkpt lat="44.59256" lon="0.99563">
        <ele>157</ele>
        <time>2012-01-22T08:17:52Z</time>
      </trkpt>
      <trkpt lat="44.59261" lon="0.99559">
        <ele>157</ele>
        <time>2012-01-22T08:17:57Z</time>
      </trkpt>
      <trkpt lat="44.59268" lon="0.99544">
        <ele>157</ele>
        <time>2012-01-22T08:17:57Z</time>
      </trkpt>
      <trkpt lat="44.5927" lon="0.9954">
        <ele>157</ele>
        <time>2012-01-22T08:17:59Z</time>
      </trkpt>
      <trkpt lat="44.59272" lon="0.99537">
        <ele>157</ele>
        <time>2012-01-22T08:17:59Z</time>
      </trkpt>
      <trkpt lat="44.59274" lon="0.99533">
        <ele>157</ele>
        <time>2012-01-22T08:18:01Z</time>
      </trkpt>
      <trkpt lat="44.59277" lon="0.99525">
        <ele>156</ele>
        <time>2012-01-22T08:18:06Z</time>
      </trkpt>
      <trkpt lat="44.59288" lon="0.99512">
        <ele>155</ele>
        <time>2012-01-22T08:18:06Z</time>
      </trkpt>
      <trkpt lat="44.59289" lon="0.99508">
        <ele>155</ele>
        <time>2012-01-22T08:18:07Z</time>
      </trkpt>
      <trkpt lat="44.59295" lon="0.99502">
        <ele>154</ele>
        <time>2012-01-22T08:18:13Z</time>
      </trkpt>
      <trkpt lat="44.59306" lon="0.99491">
        <ele>154</ele>
        <time>2012-01-22T08:18:13Z</time>
      </trkpt>
      <trkpt lat="44.59309" lon="0.9949">
        <ele>154</ele>
        <time>2012-01-22T08:18:14Z</time>
      </trkpt>
      <trkpt lat="44.59313" lon="0.99489">
        <ele>153</ele>
        <time>2012-01-22T08:18:15Z</time>
      </trkpt>
      <trkpt lat="44.59319" lon="0.99484">
        <ele>153</ele>
        <time>2012-01-22T08:18:20Z</time>
      </trkpt>
      <trkpt lat="44.59333" lon="0.99475">
        <ele>153</ele>
        <time>2012-01-22T08:18:21Z</time>
      </trkpt>
      <trkpt lat="44.59335" lon="0.99473">
        <ele>153</ele>
        <time>2012-01-22T08:18:22Z</time>
      </trkpt>
      <trkpt lat="44.59342" lon="0.99469">
        <ele>153</ele>
        <time>2012-01-22T08:18:28Z</time>
      </trkpt>
      <trkpt lat="44.59356" lon="0.99461">
        <ele>153</ele>
        <time>2012-01-22T08:18:28Z</time>
      </trkpt>
      <trkpt lat="44.59359" lon="0.99459">
        <ele>153</ele>
        <time>2012-01-22T08:18:29Z</time>
      </trkpt>
      <trkpt lat="44.59364" lon="0.99455">
        <ele>153</ele>
        <time>2012-01-22T08:18:35Z</time>
      </trkpt>
      <trkpt lat="44.59373" lon="0.99446">
        <ele>154</ele>
        <time>2012-01-22T08:18:35Z</time>
      </trkpt>
      <trkpt lat="44.59375" lon="0.99444">
        <ele>155</ele>
        <time>2012-01-22T08:18:36Z</time>
      </trkpt>
      <trkpt lat="44.59379" lon="0.99439">
        <ele>156</ele>
        <time>2012-01-22T08:18:41Z</time>
      </trkpt>
      <trkpt lat="44.59387" lon="0.99429">
        <ele>157</ele>
        <time>2012-01-22T08:18:42Z</time>
      </trkpt>
      <trkpt lat="44.59388" lon="0.99425">
        <ele>158</ele>
        <time>2012-01-22T08:18:43Z</time>
      </trkpt>
      <trkpt lat="44.59392" lon="0.99418">
        <ele>159</ele>
        <time>2012-01-22T08:18:49Z</time>
      </trkpt>
      <trkpt lat="44.594" lon="0.99401">
        <ele>160</ele>
        <time>2012-01-22T08:18:49Z</time>
      </trkpt>
      <trkpt lat="44.59401" lon="0.99397">
        <ele>160</ele>
        <time>2012-01-22T08:18:51Z</time>
      </trkpt>
      <trkpt lat="44.59402" lon="0.99393">
        <ele>160</ele>
        <time>2012-01-22T08:18:52Z</time>
      </trkpt>
      <trkpt lat="44.59411" lon="0.99372">
        <ele>160</ele>
        <time>2012-01-22T08:18:57Z</time>
      </trkpt>
      <trkpt lat="44.59412" lon="0.99368">
        <ele>160</ele>
        <time>2012-01-22T08:18:58Z</time>
      </trkpt>
      <trkpt lat="44.59414" lon="0.99365">
        <ele>160</ele>
        <time>2012-01-22T08:18:59Z</time>
      </trkpt>
      <trkpt lat="44.59418" lon="0.99359">
        <ele>160</ele>
        <time>2012-01-22T08:19:05Z</time>
      </trkpt>
      <trkpt lat="44.59428" lon="0.99345">
        <ele>160</ele>
        <time>2012-01-22T08:19:05Z</time>
      </trkpt>
      <trkpt lat="44.5943" lon="0.99342">
        <ele>160</ele>
        <time>2012-01-22T08:19:06Z</time>
      </trkpt>
      <trkpt lat="44.59433" lon="0.9934">
        <ele>160</ele>
        <time>2012-01-22T08:19:07Z</time>
      </trkpt>
      <trkpt lat="44.5944" lon="0.99336">
        <ele>160</ele>
        <time>2012-01-22T08:19:13Z</time>
      </trkpt>
      <trkpt lat="44.59454" lon="0.99332">
        <ele>159</ele>
        <time>2012-01-22T08:19:13Z</time>
      </trkpt>
      <trkpt lat="44.59457" lon="0.99331">
        <ele>159</ele>
        <time>2012-01-22T08:19:14Z</time>
      </trkpt>
      <trkpt lat="44.59464" lon="0.99327">
        <ele>159</ele>
        <time>2012-01-22T08:19:20Z</time>
      </trkpt>
      <trkpt lat="44.59478" lon="0.99321">
        <ele>159</ele>
        <time>2012-01-22T08:19:20Z</time>
      </trkpt>
      <trkpt lat="44.59481" lon="0.99321">
        <ele>159</ele>
        <time>2012-01-22T08:19:21Z</time>
      </trkpt>
      <trkpt lat="44.59488" lon="0.99318">
        <ele>159</ele>
        <time>2012-01-22T08:19:27Z</time>
      </trkpt>
      <trkpt lat="44.59497" lon="0.99318">
        <ele>159</ele>
        <time>2012-01-22T08:19:27Z</time>
      </trkpt>
      <trkpt lat="44.59499" lon="0.99319">
        <ele>159</ele>
        <time>2012-01-22T08:19:28Z</time>
      </trkpt>
      <trkpt lat="44.59501" lon="0.99319">
        <ele>159</ele>
        <time>2012-01-22T08:19:30Z</time>
      </trkpt>
      <trkpt lat="44.59504" lon="0.9932">
        <ele>159</ele>
        <time>2012-01-22T08:19:36Z</time>
      </trkpt>
      <trkpt lat="44.59511" lon="0.99323">
        <ele>159</ele>
        <time>2012-01-22T08:19:37Z</time>
      </trkpt>
      <trkpt lat="44.59513" lon="0.99324">
        <ele>159</ele>
        <time>2012-01-22T08:19:39Z</time>
      </trkpt>
      <trkpt lat="44.59515" lon="0.99324">
        <ele>159</ele>
        <time>2012-01-22T08:19:40Z</time>
      </trkpt>
      <trkpt lat="44.59519" lon="0.99324">
        <ele>159</ele>
        <time>2012-01-22T08:19:46Z</time>
      </trkpt>
      <trkpt lat="44.59531" lon="0.99326">
        <ele>160</ele>
        <time>2012-01-22T08:19:47Z</time>
      </trkpt>
      <trkpt lat="44.59533" lon="0.99327">
        <ele>161</ele>
        <time>2012-01-22T08:19:48Z</time>
      </trkpt>
      <trkpt lat="44.59544" lon="0.99331">
        <ele>162</ele>
        <time>2012-01-22T08:19:53Z</time>
      </trkpt>
      <trkpt lat="44.59547" lon="0.99332">
        <ele>163</ele>
        <time>2012-01-22T08:19:54Z</time>
      </trkpt>
      <trkpt lat="44.59559" lon="0.99337">
        <ele>164</ele>
        <time>2012-01-22T08:20:00Z</time>
      </trkpt>
      <trkpt lat="44.59561" lon="0.99337">
        <ele>166</ele>
        <time>2012-01-22T08:20:01Z</time>
      </trkpt>
      <trkpt lat="44.59574" lon="0.99343">
        <ele>168</ele>
        <time>2012-01-22T08:20:07Z</time>
      </trkpt>
      <trkpt lat="44.59577" lon="0.99344">
        <ele>170</ele>
        <time>2012-01-22T08:20:08Z</time>
      </trkpt>
      <trkpt lat="44.59591" lon="0.99353">
        <ele>171</ele>
        <time>2012-01-22T08:20:14Z</time>
      </trkpt>
      <trkpt lat="44.59594" lon="0.99355">
        <ele>172</ele>
        <time>2012-01-22T08:20:15Z</time>
      </trkpt>
      <trkpt lat="44.59595" lon="0.99356">
        <ele>173</ele>
        <time>2012-01-22T08:20:16Z</time>
      </trkpt>
      <trkpt lat="44.59598" lon="0.99358">
        <ele>174</ele>
        <time>2012-01-22T08:20:22Z</time>
      </trkpt>
      <trkpt lat="44.59606" lon="0.99365">
        <ele>175</ele>
        <time>2012-01-22T08:20:22Z</time>
      </trkpt>
      <trkpt lat="44.59608" lon="0.99366">
        <ele>175</ele>
        <time>2012-01-22T08:20:24Z</time>
      </trkpt>
      <trkpt lat="44.59611" lon="0.99368">
        <ele>175</ele>
        <time>2012-01-22T08:20:25Z</time>
      </trkpt>
      <trkpt lat="44.59615" lon="0.9937">
        <ele>175</ele>
        <time>2012-01-22T08:20:30Z</time>
      </trkpt>
      <trkpt lat="44.59623" lon="0.99376">
        <ele>175</ele>
        <time>2012-01-22T08:20:30Z</time>
      </trkpt>
      <trkpt lat="44.59625" lon="0.99378">
        <ele>175</ele>
        <time>2012-01-22T08:20:31Z</time>
      </trkpt>
      <trkpt lat="44.59626" lon="0.99379">
        <ele>175</ele>
        <time>2012-01-22T08:20:33Z</time>
      </trkpt>
      <trkpt lat="44.59629" lon="0.99382">
        <ele>176</ele>
        <time>2012-01-22T08:20:38Z</time>
      </trkpt>
      <trkpt lat="44.59642" lon="0.99384">
        <ele>176</ele>
        <time>2012-01-22T08:20:38Z</time>
      </trkpt>
      <trkpt lat="44.59644" lon="0.99385">
        <ele>177</ele>
        <time>2012-01-22T08:20:40Z</time>
      </trkpt>
      <trkpt lat="44.59646" lon="0.99386">
        <ele>177</ele>
        <time>2012-01-22T08:20:40Z</time>
      </trkpt>
      <trkpt lat="44.59651" lon="0.99386">
        <ele>177</ele>
        <time>2012-01-22T08:20:46Z</time>
      </trkpt>
      <trkpt lat="44.59661" lon="0.99387">
        <ele>177</ele>
        <time>2012-01-22T08:20:46Z</time>
      </trkpt>
      <trkpt lat="44.59664" lon="0.99387">
        <ele>177</ele>
        <time>2012-01-22T08:20:48Z</time>
      </trkpt>
      <trkpt lat="44.59666" lon="0.99387">
        <ele>177</ele>
        <time>2012-01-22T08:20:48Z</time>
      </trkpt>
      <trkpt lat="44.5967" lon="0.99387">
        <ele>177</ele>
        <time>2012-01-22T08:20:54Z</time>
      </trkpt>
      <trkpt lat="44.59681" lon="0.99387">
        <ele>177</ele>
        <time>2012-01-22T08:20:55Z</time>
      </trkpt>
      <trkpt lat="44.59685" lon="0.99387">
        <ele>177</ele>
        <time>2012-01-22T08:20:56Z</time>
      </trkpt>
      <trkpt lat="44.59701" lon="0.99388">
        <ele>177</ele>
        <time>2012-01-22T08:21:03Z</time>
      </trkpt>
      <trkpt lat="44.59703" lon="0.99387">
        <ele>177</ele>
        <time>2012-01-22T08:21:04Z</time>
      </trkpt>
      <trkpt lat="44.59705" lon="0.99385">
        <ele>177</ele>
        <time>2012-01-22T08:21:05Z</time>
      </trkpt>
      <trkpt lat="44.59707" lon="0.99383">
        <ele>177</ele>
        <time>2012-01-22T08:21:11Z</time>
      </trkpt>
      <trkpt lat="44.5971" lon="0.99377">
        <ele>177</ele>
        <time>2012-01-22T08:21:11Z</time>
      </trkpt>
      <trkpt lat="44.59712" lon="0.99375">
        <ele>177</ele>
        <time>2012-01-22T08:21:14Z</time>
      </trkpt>
      <trkpt lat="44.59718" lon="0.99364">
        <ele>177</ele>
        <time>2012-01-22T08:21:19Z</time>
      </trkpt>
      <trkpt lat="44.59719" lon="0.99362">
        <ele>177</ele>
        <time>2012-01-22T08:21:21Z</time>
      </trkpt>
      <trkpt lat="44.5972" lon="0.9936">
        <ele>177</ele>
        <time>2012-01-22T08:21:21Z</time>
      </trkpt>
      <trkpt lat="44.59722" lon="0.99356">
        <ele>177</ele>
        <time>2012-01-22T08:21:27Z</time>
      </trkpt>
      <trkpt lat="44.59726" lon="0.99345">
        <ele>177</ele>
        <time>2012-01-22T08:21:27Z</time>
      </trkpt>
      <trkpt lat="44.59726" lon="0.99343">
        <ele>178</ele>
        <time>2012-01-22T08:21:28Z</time>
      </trkpt>
      <trkpt lat="44.59727" lon="0.99338">
        <ele>179</ele>
        <time>2012-01-22T08:21:34Z</time>
      </trkpt>
      <trkpt lat="44.5973" lon="0.99331">
        <ele>180</ele>
        <time>2012-01-22T08:21:34Z</time>
      </trkpt>
      <trkpt lat="44.5973" lon="0.99329">
        <ele>181</ele>
        <time>2012-01-22T08:21:36Z</time>
      </trkpt>
      <trkpt lat="44.59732" lon="0.99328">
        <ele>183</ele>
        <time>2012-01-22T08:21:43Z</time>
      </trkpt>
      <trkpt lat="44.59739" lon="0.99324">
        <ele>184</ele>
        <time>2012-01-22T08:21:44Z</time>
      </trkpt>
      <trkpt lat="44.59741" lon="0.99324">
        <ele>185</ele>
        <time>2012-01-22T08:21:44Z</time>
      </trkpt>
      <trkpt lat="44.59744" lon="0.99323">
        <ele>186</ele>
        <time>2012-01-22T08:21:50Z</time>
      </trkpt>
      <trkpt lat="44.59748" lon="0.99327">
        <ele>187</ele>
        <time>2012-01-22T08:21:50Z</time>
      </trkpt>
      <trkpt lat="44.5975" lon="0.99327">
        <ele>188</ele>
        <time>2012-01-22T08:21:51Z</time>
      </trkpt>
      <trkpt lat="44.59752" lon="0.99327">
        <ele>189</ele>
        <time>2012-01-22T08:21:52Z</time>
      </trkpt>
      <trkpt lat="44.59755" lon="0.99329">
        <ele>189</ele>
        <time>2012-01-22T08:21:58Z</time>
      </trkpt>
      <trkpt lat="44.59761" lon="0.99331">
        <ele>189</ele>
        <time>2012-01-22T08:21:58Z</time>
      </trkpt>
      <trkpt lat="44.59763" lon="0.99332">
        <ele>189</ele>
        <time>2012-01-22T08:21:59Z</time>
      </trkpt>
      <trkpt lat="44.59766" lon="0.99334">
        <ele>189</ele>
        <time>2012-01-22T08:22:00Z</time>
      </trkpt>
      <trkpt lat="44.59771" lon="0.99336">
        <ele>189</ele>
        <time>2012-01-22T08:22:06Z</time>
      </trkpt>
      <trkpt lat="44.59781" lon="0.99344">
        <ele>189</ele>
        <time>2012-01-22T08:22:06Z</time>
      </trkpt>
      <trkpt lat="44.59783" lon="0.99345">
        <ele>189</ele>
        <time>2012-01-22T08:22:07Z</time>
      </trkpt>
      <trkpt lat="44.59786" lon="0.99347">
        <ele>188</ele>
        <time>2012-01-22T08:22:08Z</time>
      </trkpt>
      <trkpt lat="44.59791" lon="0.99349">
        <ele>187</ele>
        <time>2012-01-22T08:22:14Z</time>
      </trkpt>
      <trkpt lat="44.59804" lon="0.99355">
        <ele>186</ele>
        <time>2012-01-22T08:22:14Z</time>
      </trkpt>
      <trkpt lat="44.59806" lon="0.99356">
        <ele>185</ele>
        <time>2012-01-22T08:22:15Z</time>
      </trkpt>
      <trkpt lat="44.59811" lon="0.99357">
        <ele>184</ele>
        <time>2012-01-22T08:22:21Z</time>
      </trkpt>
      <trkpt lat="44.59819" lon="0.99358">
        <ele>184</ele>
        <time>2012-01-22T08:22:21Z</time>
      </trkpt>
      <trkpt lat="44.59822" lon="0.99359">
        <ele>184</ele>
        <time>2012-01-22T08:22:22Z</time>
      </trkpt>
      <trkpt lat="44.59828" lon="0.9936">
        <ele>184</ele>
        <time>2012-01-22T08:22:28Z</time>
      </trkpt>
      <trkpt lat="44.59835" lon="0.99358">
        <ele>184</ele>
        <time>2012-01-22T08:22:28Z</time>
      </trkpt>
      <trkpt lat="44.59837" lon="0.99358">
        <ele>184</ele>
        <time>2012-01-22T08:22:29Z</time>
      </trkpt>
      <trkpt lat="44.59841" lon="0.99358">
        <ele>184</ele>
        <time>2012-01-22T08:22:35Z</time>
      </trkpt>
      <trkpt lat="44.59848" lon="0.99358">
        <ele>184</ele>
        <time>2012-01-22T08:22:35Z</time>
      </trkpt>
      <trkpt lat="44.5985" lon="0.99358">
        <ele>186</ele>
        <time>2012-01-22T08:22:37Z</time>
      </trkpt>
      <trkpt lat="44.59853" lon="0.99357">
        <ele>187</ele>
        <time>2012-01-22T08:22:43Z</time>
      </trkpt>
      <trkpt lat="44.5986" lon="0.99354">
        <ele>187</ele>
        <time>2012-01-22T08:22:43Z</time>
      </trkpt>
      <trkpt lat="44.59863" lon="0.99354">
        <ele>188</ele>
        <time>2012-01-22T08:22:44Z</time>
      </trkpt>
      <trkpt lat="44.5987" lon="0.99353">
        <ele>188</ele>
        <time>2012-01-22T08:22:50Z</time>
      </trkpt>
      <trkpt lat="44.59893" lon="0.99347">
        <ele>188</ele>
        <time>2012-01-22T08:22:50Z</time>
      </trkpt>
      <trkpt lat="44.59898" lon="0.99349">
        <ele>188</ele>
        <time>2012-01-22T08:22:51Z</time>
      </trkpt>
      <trkpt lat="44.59901" lon="0.99353">
        <ele>188</ele>
        <time>2012-01-22T08:22:52Z</time>
      </trkpt>
      <trkpt lat="44.59904" lon="0.99357">
        <ele>188</ele>
        <time>2012-01-22T08:22:53Z</time>
      </trkpt>
      <trkpt lat="44.59906" lon="0.99373">
        <ele>188</ele>
        <time>2012-01-22T08:22:59Z</time>
      </trkpt>
      <trkpt lat="44.59909" lon="0.99404">
        <ele>187</ele>
        <time>2012-01-22T08:23:00Z</time>
      </trkpt>
      <trkpt lat="44.59912" lon="0.99409">
        <ele>186</ele>
        <time>2012-01-22T08:23:02Z</time>
      </trkpt>
      <trkpt lat="44.59915" lon="0.99411">
        <ele>185</ele>
        <time>2012-01-22T08:23:03Z</time>
      </trkpt>
      <trkpt lat="44.59921" lon="0.99414">
        <ele>184</ele>
        <time>2012-01-22T08:23:09Z</time>
      </trkpt>
      <trkpt lat="44.59933" lon="0.99414">
        <ele>183</ele>
        <time>2012-01-22T08:23:10Z</time>
      </trkpt>
      <trkpt lat="44.59937" lon="0.99413">
        <ele>183</ele>
        <time>2012-01-22T08:23:11Z</time>
      </trkpt>
      <trkpt lat="44.59942" lon="0.99412">
        <ele>183</ele>
        <time>2012-01-22T08:23:17Z</time>
      </trkpt>
      <trkpt lat="44.59952" lon="0.99408">
        <ele>183</ele>
        <time>2012-01-22T08:23:17Z</time>
      </trkpt>
      <trkpt lat="44.59964" lon="0.99405">
        <ele>183</ele>
        <time>2012-01-22T08:23:23Z</time>
      </trkpt>
      <trkpt lat="44.59967" lon="0.99404">
        <ele>183</ele>
        <time>2012-01-22T08:23:24Z</time>
      </trkpt>
      <trkpt lat="44.59978" lon="0.99402">
        <ele>184</ele>
        <time>2012-01-22T08:23:30Z</time>
      </trkpt>
      <trkpt lat="44.5998" lon="0.99402">
        <ele>185</ele>
        <time>2012-01-22T08:23:31Z</time>
      </trkpt>
      <trkpt lat="44.59981" lon="0.99401">
        <ele>186</ele>
        <time>2012-01-22T08:23:32Z</time>
      </trkpt>
      <trkpt lat="44.59984" lon="0.99402">
        <ele>188</ele>
        <time>2012-01-22T08:23:38Z</time>
      </trkpt>
      <trkpt lat="44.5999" lon="0.99402">
        <ele>190</ele>
        <time>2012-01-22T08:23:38Z</time>
      </trkpt>
      <trkpt lat="44.59992" lon="0.99403">
        <ele>192</ele>
        <time>2012-01-22T08:23:39Z</time>
      </trkpt>
      <trkpt lat="44.59993" lon="0.99403">
        <ele>194</ele>
        <time>2012-01-22T08:23:40Z</time>
      </trkpt>
      <trkpt lat="44.59994" lon="0.99403">
        <ele>195</ele>
        <time>2012-01-22T08:23:41Z</time>
      </trkpt>
      <trkpt lat="44.59997" lon="0.99405">
        <ele>197</ele>
        <time>2012-01-22T08:23:47Z</time>
      </trkpt>
      <trkpt lat="44.60003" lon="0.99406">
        <ele>198</ele>
        <time>2012-01-22T08:23:47Z</time>
      </trkpt>
      <trkpt lat="44.60005" lon="0.99406">
        <ele>199</ele>
        <time>2012-01-22T08:23:49Z</time>
      </trkpt>
      <trkpt lat="44.60006" lon="0.99407">
        <ele>200</ele>
        <time>2012-01-22T08:23:50Z</time>
      </trkpt>
      <trkpt lat="44.60008" lon="0.99408">
        <ele>201</ele>
        <time>2012-01-22T08:23:50Z</time>
      </trkpt>
      <trkpt lat="44.6001" lon="0.9941">
        <ele>202</ele>
        <time>2012-01-22T08:23:56Z</time>
      </trkpt>
      <trkpt lat="44.60015" lon="0.99414">
        <ele>203</ele>
        <time>2012-01-22T08:23:56Z</time>
      </trkpt>
      <trkpt lat="44.60017" lon="0.99415">
        <ele>205</ele>
        <time>2012-01-22T08:23:58Z</time>
      </trkpt>
      <trkpt lat="44.60019" lon="0.99416">
        <ele>206</ele>
        <time>2012-01-22T08:23:59Z</time>
      </trkpt>
      <trkpt lat="44.60027" lon="0.99424">
        <ele>207</ele>
        <time>2012-01-22T08:24:05Z</time>
      </trkpt>
      <trkpt lat="44.60028" lon="0.99424">
        <ele>208</ele>
        <time>2012-01-22T08:24:06Z</time>
      </trkpt>
      <trkpt lat="44.6003" lon="0.99425">
        <ele>209</ele>
        <time>2012-01-22T08:24:07Z</time>
      </trkpt>
      <trkpt lat="44.60035" lon="0.99425">
        <ele>210</ele>
        <time>2012-01-22T08:24:13Z</time>
      </trkpt>
      <trkpt lat="44.60045" lon="0.99428">
        <ele>210</ele>
        <time>2012-01-22T08:24:13Z</time>
      </trkpt>
      <trkpt lat="44.60047" lon="0.99428">
        <ele>210</ele>
        <time>2012-01-22T08:24:14Z</time>
      </trkpt>
      <trkpt lat="44.60051" lon="0.99428">
        <ele>210</ele>
        <time>2012-01-22T08:24:20Z</time>
      </trkpt>
      <trkpt lat="44.60059" lon="0.9943">
        <ele>210</ele>
        <time>2012-01-22T08:24:20Z</time>
      </trkpt>
      <trkpt lat="44.60062" lon="0.9943">
        <ele>210</ele>
        <time>2012-01-22T08:24:21Z</time>
      </trkpt>
      <trkpt lat="44.60066" lon="0.9943">
        <ele>210</ele>
        <time>2012-01-22T08:24:27Z</time>
      </trkpt>
      <trkpt lat="44.60074" lon="0.99429">
        <ele>210</ele>
        <time>2012-01-22T08:24:27Z</time>
      </trkpt>
      <trkpt lat="44.60075" lon="0.99429">
        <ele>210</ele>
        <time>2012-01-22T08:24:28Z</time>
      </trkpt>
      <trkpt lat="44.60078" lon="0.99429">
        <ele>210</ele>
        <time>2012-01-22T08:24:30Z</time>
      </trkpt>
      <trkpt lat="44.60081" lon="0.99429">
        <ele>210</ele>
        <time>2012-01-22T08:24:35Z</time>
      </trkpt>
      <trkpt lat="44.60089" lon="0.99428">
        <ele>210</ele>
        <time>2012-01-22T08:24:36Z</time>
      </trkpt>
      <trkpt lat="44.60091" lon="0.99428">
        <ele>210</ele>
        <time>2012-01-22T08:24:36Z</time>
      </trkpt>
      <trkpt lat="44.60093" lon="0.99428">
        <ele>209</ele>
        <time>2012-01-22T08:24:37Z</time>
      </trkpt>
      <trkpt lat="44.60098" lon="0.99427">
        <ele>208</ele>
        <time>2012-01-22T08:24:43Z</time>
      </trkpt>
      <trkpt lat="44.60107" lon="0.99426">
        <ele>208</ele>
        <time>2012-01-22T08:24:43Z</time>
      </trkpt>
      <trkpt lat="44.60109" lon="0.99425">
        <ele>208</ele>
        <time>2012-01-22T08:24:44Z</time>
      </trkpt>
      <trkpt lat="44.60113" lon="0.99423">
        <ele>208</ele>
        <time>2012-01-22T08:24:50Z</time>
      </trkpt>
      <trkpt lat="44.60123" lon="0.99423">
        <ele>208</ele>
        <time>2012-01-22T08:24:50Z</time>
      </trkpt>
      <trkpt lat="44.60126" lon="0.99423">
        <ele>208</ele>
        <time>2012-01-22T08:24:51Z</time>
      </trkpt>
      <trkpt lat="44.60141" lon="0.99421">
        <ele>208</ele>
        <time>2012-01-22T08:24:57Z</time>
      </trkpt>
      <trkpt lat="44.60144" lon="0.99421">
        <ele>208</ele>
        <time>2012-01-22T08:24:58Z</time>
      </trkpt>
      <trkpt lat="44.60147" lon="0.99421">
        <ele>208</ele>
        <time>2012-01-22T08:25:04Z</time>
      </trkpt>
      <trkpt lat="44.60152" lon="0.99423">
        <ele>209</ele>
        <time>2012-01-22T08:25:05Z</time>
      </trkpt>
      <trkpt lat="44.60153" lon="0.99423">
        <ele>210</ele>
        <time>2012-01-22T08:25:06Z</time>
      </trkpt>
      <trkpt lat="44.60159" lon="0.99423">
        <ele>211</ele>
        <time>2012-01-22T08:25:12Z</time>
      </trkpt>
      <trkpt lat="44.60168" lon="0.99425">
        <ele>212</ele>
        <time>2012-01-22T08:25:12Z</time>
      </trkpt>
      <trkpt lat="44.60171" lon="0.99425">
        <ele>213</ele>
        <time>2012-01-22T08:25:13Z</time>
      </trkpt>
      <trkpt lat="44.60175" lon="0.99427">
        <ele>214</ele>
        <time>2012-01-22T08:25:19Z</time>
      </trkpt>
      <trkpt lat="44.60182" lon="0.99428">
        <ele>215</ele>
        <time>2012-01-22T08:25:19Z</time>
      </trkpt>
      <trkpt lat="44.60184" lon="0.99429">
        <ele>215</ele>
        <time>2012-01-22T08:25:20Z</time>
      </trkpt>
      <trkpt lat="44.60185" lon="0.9943">
        <ele>215</ele>
        <time>2012-01-22T08:25:21Z</time>
      </trkpt>
      <trkpt lat="44.60189" lon="0.99429">
        <ele>215</ele>
        <time>2012-01-22T08:25:27Z</time>
      </trkpt>
      <trkpt lat="44.60194" lon="0.99429">
        <ele>215</ele>
        <time>2012-01-22T08:25:28Z</time>
      </trkpt>
      <trkpt lat="44.60196" lon="0.99428">
        <ele>216</ele>
        <time>2012-01-22T08:25:28Z</time>
      </trkpt>
      <trkpt lat="44.60199" lon="0.99428">
        <ele>217</ele>
        <time>2012-01-22T08:25:34Z</time>
      </trkpt>
      <trkpt lat="44.60208" lon="0.99425">
        <ele>218</ele>
        <time>2012-01-22T08:25:34Z</time>
      </trkpt>
      <trkpt lat="44.60215" lon="0.99415">
        <ele>220</ele>
        <time>2012-01-22T08:25:41Z</time>
      </trkpt>
      <trkpt lat="44.60217" lon="0.99414">
        <ele>221</ele>
        <time>2012-01-22T08:25:42Z</time>
      </trkpt>
      <trkpt lat="44.60219" lon="0.99412">
        <ele>222</ele>
        <time>2012-01-22T08:25:43Z</time>
      </trkpt>
      <trkpt lat="44.60223" lon="0.9941">
        <ele>223</ele>
        <time>2012-01-22T08:25:49Z</time>
      </trkpt>
      <trkpt lat="44.60231" lon="0.99406">
        <ele>224</ele>
        <time>2012-01-22T08:25:49Z</time>
      </trkpt>
      <trkpt lat="44.60233" lon="0.99405">
        <ele>225</ele>
        <time>2012-01-22T08:25:50Z</time>
      </trkpt>
      <trkpt lat="44.60235" lon="0.99404">
        <ele>226</ele>
        <time>2012-01-22T08:25:52Z</time>
      </trkpt>
      <trkpt lat="44.60246" lon="0.99397">
        <ele>227</ele>
        <time>2012-01-22T08:25:57Z</time>
      </trkpt>
      <trkpt lat="44.60247" lon="0.99397">
        <ele>228</ele>
        <time>2012-01-22T08:25:58Z</time>
      </trkpt>
      <trkpt lat="44.60249" lon="0.99396">
        <ele>229</ele>
        <time>2012-01-22T08:25:59Z</time>
      </trkpt>
      <trkpt lat="44.60253" lon="0.99395">
        <ele>229</ele>
        <time>2012-01-22T08:26:05Z</time>
      </trkpt>
      <trkpt lat="44.60259" lon="0.99392">
        <ele>230</ele>
        <time>2012-01-22T08:26:05Z</time>
      </trkpt>
      <trkpt lat="44.60261" lon="0.99393">
        <ele>230</ele>
        <time>2012-01-22T08:26:07Z</time>
      </trkpt>
      <trkpt lat="44.60263" lon="0.99387">
        <ele>231</ele>
        <time>2012-01-22T08:26:15Z</time>
      </trkpt>
      <trkpt lat="44.60265" lon="0.99388">
        <ele>231</ele>
        <time>2012-01-22T08:26:24Z</time>
      </trkpt>
      <trkpt lat="44.60263" lon="0.99387">
        <ele>231</ele>
        <time>2012-01-22T08:26:33Z</time>
      </trkpt>
      <trkpt lat="44.60262" lon="0.99386">
        <ele>231</ele>
        <time>2012-01-22T08:26:35Z</time>
      </trkpt>
      <trkpt lat="44.60259" lon="0.99382">
        <ele>229</ele>
        <time>2012-01-22T08:26:43Z</time>
      </trkpt>
      <trkpt lat="44.60262" lon="0.99384">
        <ele>226</ele>
        <time>2012-01-22T08:26:52Z</time>
      </trkpt>
      <trkpt lat="44.60264" lon="0.99384">
        <ele>226</ele>
        <time>2012-01-22T08:27:02Z</time>
      </trkpt>
      <trkpt lat="44.60265" lon="0.99384">
        <ele>226</ele>
        <time>2012-01-22T08:27:10Z</time>
      </trkpt>
      <trkpt lat="44.60265" lon="0.99387">
        <ele>226</ele>
        <time>2012-01-22T08:27:11Z</time>
      </trkpt>
      <trkpt lat="44.60267" lon="0.99388">
        <ele>224</ele>
        <time>2012-01-22T08:27:19Z</time>
      </trkpt>
      <trkpt lat="44.60262" lon="0.99389">
        <ele>223</ele>
        <time>2012-01-22T08:27:28Z</time>
      </trkpt>
      <trkpt lat="44.60261" lon="0.9939">
        <ele>223</ele>
        <time>2012-01-22T08:27:30Z</time>
      </trkpt>
      <trkpt lat="44.60261" lon="0.99387">
        <ele>223</ele>
        <time>2012-01-22T08:27:38Z</time>
      </trkpt>
      <trkpt lat="44.60262" lon="0.99387">
        <ele>223</ele>
        <time>2012-01-22T08:27:46Z</time>
      </trkpt>
      <trkpt lat="44.6026" lon="0.99388">
        <ele>223</ele>
        <time>2012-01-22T08:27:46Z</time>
      </trkpt>
      <trkpt lat="44.60259" lon="0.99388">
        <ele>223</ele>
        <time>2012-01-22T08:27:48Z</time>
      </trkpt>
      <trkpt lat="44.60256" lon="0.99391">
        <ele>223</ele>
        <time>2012-01-22T08:27:56Z</time>
      </trkpt>
      <trkpt lat="44.60255" lon="0.99391">
        <ele>223</ele>
        <time>2012-01-22T08:27:58Z</time>
      </trkpt>
      <trkpt lat="44.60253" lon="0.99392">
        <ele>223</ele>
        <time>2012-01-22T08:28:05Z</time>
      </trkpt>
      <trkpt lat="44.60252" lon="0.99391">
        <ele>224</ele>
        <time>2012-01-22T08:28:14Z</time>
      </trkpt>
      <trkpt lat="44.6025" lon="0.99389">
        <ele>227</ele>
        <time>2012-01-22T08:28:16Z</time>
      </trkpt>
      <trkpt lat="44.60252" lon="0.9939">
        <ele>229</ele>
        <time>2012-01-22T08:28:24Z</time>
      </trkpt>
      <trkpt lat="44.60253" lon="0.99386">
        <ele>232</ele>
        <time>2012-01-22T08:28:33Z</time>
      </trkpt>
      <trkpt lat="44.6025" lon="0.99386">
        <ele>236</ele>
        <time>2012-01-22T08:28:42Z</time>
      </trkpt>
      <trkpt lat="44.60248" lon="0.99384">
        <ele>239</ele>
        <time>2012-01-22T08:28:50Z</time>
      </trkpt>
      <trkpt lat="44.60247" lon="0.9938">
        <ele>240</ele>
        <time>2012-01-22T08:28:51Z</time>
      </trkpt>
      <trkpt lat="44.60246" lon="0.99379">
        <ele>244</ele>
        <time>2012-01-22T08:28:59Z</time>
      </trkpt>
      <trkpt lat="44.60256" lon="0.99385">
        <ele>245</ele>
        <time>2012-01-22T08:29:00Z</time>
      </trkpt>
      <trkpt lat="44.60258" lon="0.99385">
        <ele>245</ele>
        <time>2012-01-22T08:29:02Z</time>
      </trkpt>
      <trkpt lat="44.60259" lon="0.99384">
        <ele>242</ele>
        <time>2012-01-22T08:29:08Z</time>
      </trkpt>
      <trkpt lat="44.60259" lon="0.99383">
        <ele>236</ele>
        <time>2012-01-22T08:29:18Z</time>
      </trkpt>
      <trkpt lat="44.6026" lon="0.99384">
        <ele>233</ele>
        <time>2012-01-22T08:29:26Z</time>
      </trkpt>
      <trkpt lat="44.60258" lon="0.99385">
        <ele>233</ele>
        <time>2012-01-22T08:29:37Z</time>
      </trkpt>
      <trkpt lat="44.60257" lon="0.99385">
        <ele>233</ele>
        <time>2012-01-22T08:29:38Z</time>
      </trkpt>
      <trkpt lat="44.60256" lon="0.99386">
        <ele>233</ele>
        <time>2012-01-22T08:29:44Z</time>
      </trkpt>
      <trkpt lat="44.60256" lon="0.99385">
        <ele>230</ele>
        <time>2012-01-22T08:29:56Z</time>
      </trkpt>
      <trkpt lat="44.60257" lon="0.99382">
        <ele>228</ele>
        <time>2012-01-22T08:30:03Z</time>
      </trkpt>
      <trkpt lat="44.60258" lon="0.99382">
        <ele>225</ele>
        <time>2012-01-22T08:30:15Z</time>
      </trkpt>
      <trkpt lat="44.60259" lon="0.99383">
        <ele>225</ele>
        <time>2012-01-22T08:30:22Z</time>
      </trkpt>
      <trkpt lat="44.60259" lon="0.99385">
        <ele>224</ele>
        <time>2012-01-22T08:30:30Z</time>
      </trkpt>
      <trkpt lat="44.6026" lon="0.99387">
        <ele>224</ele>
        <time>2012-01-22T08:30:31Z</time>
      </trkpt>
      <trkpt lat="44.60262" lon="0.99385">
        <ele>224</ele>
        <time>2012-01-22T08:30:40Z</time>
      </trkpt>
      <trkpt lat="44.60263" lon="0.99384">
        <ele>222</ele>
        <time>2012-01-22T08:30:48Z</time>
      </trkpt>
      <trkpt lat="44.60265" lon="0.99384">
        <ele>221</ele>
        <time>2012-01-22T08:30:49Z</time>
      </trkpt>
      <trkpt lat="44.60266" lon="0.99384">
        <ele>218</ele>
        <time>2012-01-22T08:30:57Z</time>
      </trkpt>
      <trkpt lat="44.60268" lon="0.99385">
        <ele>217</ele>
        <time>2012-01-22T08:30:59Z</time>
      </trkpt>
      <trkpt lat="44.60269" lon="0.99385">
        <ele>214</ele>
        <time>2012-01-22T08:31:08Z</time>
      </trkpt>
      <trkpt lat="44.6027" lon="0.99383">
        <ele>212</ele>
        <time>2012-01-22T08:31:16Z</time>
      </trkpt>
      <trkpt lat="44.60269" lon="0.99383">
        <ele>212</ele>
        <time>2012-01-22T08:31:19Z</time>
      </trkpt>
      <trkpt lat="44.60268" lon="0.99383">
        <ele>212</ele>
        <time>2012-01-22T08:31:25Z</time>
      </trkpt>
      <trkpt lat="44.60267" lon="0.99385">
        <ele>213</ele>
        <time>2012-01-22T08:31:27Z</time>
      </trkpt>
      <trkpt lat="44.60267" lon="0.99387">
        <ele>215</ele>
        <time>2012-01-22T08:31:34Z</time>
      </trkpt>
      <trkpt lat="44.60268" lon="0.99389">
        <ele>216</ele>
        <time>2012-01-22T08:31:34Z</time>
      </trkpt>
      <trkpt lat="44.60268" lon="0.99391">
        <ele>220</ele>
        <time>2012-01-22T08:31:43Z</time>
      </trkpt>
      <trkpt lat="44.60269" lon="0.99391">
        <ele>222</ele>
        <time>2012-01-22T08:31:46Z</time>
      </trkpt>
      <trkpt lat="44.60271" lon="0.99392">
        <ele>223</ele>
        <time>2012-01-22T08:31:52Z</time>
      </trkpt>
      <trkpt lat="44.60273" lon="0.99391">
        <ele>224</ele>
        <time>2012-01-22T08:32:01Z</time>
      </trkpt>
      <trkpt lat="44.60273" lon="0.99389">
        <ele>224</ele>
        <time>2012-01-22T08:32:02Z</time>
      </trkpt>
      <trkpt lat="44.60275" lon="0.99388">
        <ele>224</ele>
        <time>2012-01-22T08:32:11Z</time>
      </trkpt>
      <trkpt lat="44.60275" lon="0.99385">
        <ele>224</ele>
        <time>2012-01-22T08:32:19Z</time>
      </trkpt>
      <trkpt lat="44.60276" lon="0.99383">
        <ele>224</ele>
        <time>2012-01-22T08:32:20Z</time>
      </trkpt>
      <trkpt lat="44.60275" lon="0.99383">
        <ele>223</ele>
        <time>2012-01-22T08:32:28Z</time>
      </trkpt>
      <trkpt lat="44.60274" lon="0.99386">
        <ele>219</ele>
        <time>2012-01-22T08:32:47Z</time>
      </trkpt>
      <trkpt lat="44.60274" lon="0.99387">
        <ele>218</ele>
        <time>2012-01-22T08:33:04Z</time>
      </trkpt>
      <trkpt lat="44.60273" lon="0.99388">
        <ele>218</ele>
        <time>2012-01-22T08:33:15Z</time>
      </trkpt>
      <trkpt lat="44.6027" lon="0.99387">
        <ele>218</ele>
        <time>2012-01-22T08:33:24Z</time>
      </trkpt>
      <trkpt lat="44.60268" lon="0.99387">
        <ele>218</ele>
        <time>2012-01-22T08:33:32Z</time>
      </trkpt>
      <trkpt lat="44.60266" lon="0.99388">
        <ele>221</ele>
        <time>2012-01-22T08:33:42Z</time>
      </trkpt>
      <trkpt lat="44.60268" lon="0.99389">
        <ele>221</ele>
        <time>2012-01-22T08:33:54Z</time>
      </trkpt>
      <trkpt lat="44.60269" lon="0.99388">
        <ele>219</ele>
        <time>2012-01-22T08:34:13Z</time>
      </trkpt>
      <trkpt lat="44.6027" lon="0.99388">
        <ele>214</ele>
        <time>2012-01-22T08:34:30Z</time>
      </trkpt>
      <trkpt lat="44.60272" lon="0.99388">
        <ele>212</ele>
        <time>2012-01-22T08:34:38Z</time>
      </trkpt>
      <trkpt lat="44.60271" lon="0.99391">
        <ele>208</ele>
        <time>2012-01-22T08:34:48Z</time>
      </trkpt>
      <trkpt lat="44.60272" lon="0.99392">
        <ele>207</ele>
        <time>2012-01-22T08:34:49Z</time>
      </trkpt>
      <trkpt lat="44.60275" lon="0.99391">
        <ele>207</ele>
        <time>2012-01-22T08:34:56Z</time>
      </trkpt>
      <trkpt lat="44.60271" lon="0.9939">
        <ele>207</ele>
        <time>2012-01-22T08:34:57Z</time>
      </trkpt>
      <trkpt lat="44.60269" lon="0.9939">
        <ele>207</ele>
        <time>2012-01-22T08:34:59Z</time>
      </trkpt>
      <trkpt lat="44.60266" lon="0.9939">
        <ele>208</ele>
        <time>2012-01-22T08:35:06Z</time>
      </trkpt>
      <trkpt lat="44.60263" lon="0.99392">
        <ele>209</ele>
        <time>2012-01-22T08:35:07Z</time>
      </trkpt>
      <trkpt lat="44.60262" lon="0.99392">
        <ele>211</ele>
        <time>2012-01-22T08:35:08Z</time>
      </trkpt>
      <trkpt lat="44.60261" lon="0.99391">
        <ele>212</ele>
        <time>2012-01-22T08:35:09Z</time>
      </trkpt>
      <trkpt lat="44.6026" lon="0.99391">
        <ele>213</ele>
        <time>2012-01-22T08:35:16Z</time>
      </trkpt>
      <trkpt lat="44.60257" lon="0.99391">
        <ele>214</ele>
        <time>2012-01-22T08:35:16Z</time>
      </trkpt>
      <trkpt lat="44.60258" lon="0.99388">
        <ele>218</ele>
        <time>2012-01-22T08:35:24Z</time>
      </trkpt>
      <trkpt lat="44.60259" lon="0.9939">
        <ele>227</ele>
        <time>2012-01-22T08:35:42Z</time>
      </trkpt>
      <trkpt lat="44.60257" lon="0.9939">
        <ele>231</ele>
        <time>2012-01-22T08:35:53Z</time>
      </trkpt>
      <trkpt lat="44.60257" lon="0.99392">
        <ele>232</ele>
        <time>2012-01-22T08:35:56Z</time>
      </trkpt>
      <trkpt lat="44.60256" lon="0.99393">
        <ele>232</ele>
        <time>2012-01-22T08:36:03Z</time>
      </trkpt>
      <trkpt lat="44.60257" lon="0.99395">
        <ele>232</ele>
        <time>2012-01-22T08:36:13Z</time>
      </trkpt>
      <trkpt lat="44.60258" lon="0.99393">
        <ele>232</ele>
        <time>2012-01-22T08:36:14Z</time>
      </trkpt>
      <trkpt lat="44.60258" lon="0.9939">
        <ele>232</ele>
        <time>2012-01-22T08:36:23Z</time>
      </trkpt>
      <trkpt lat="44.6026" lon="0.99389">
        <ele>229</ele>
        <time>2012-01-22T08:36:32Z</time>
      </trkpt>
      <trkpt lat="44.60265" lon="0.99389">
        <ele>228</ele>
        <time>2012-01-22T08:36:39Z</time>
      </trkpt>
      <trkpt lat="44.60268" lon="0.9939">
        <ele>227</ele>
        <time>2012-01-22T08:36:42Z</time>
      </trkpt>
      <trkpt lat="44.60272" lon="0.9939">
        <ele>227</ele>
        <time>2012-01-22T08:36:48Z</time>
      </trkpt>
      <trkpt lat="44.6028" lon="0.99394">
        <ele>226</ele>
        <time>2012-01-22T08:36:48Z</time>
      </trkpt>
      <trkpt lat="44.60282" lon="0.99394">
        <ele>226</ele>
        <time>2012-01-22T08:36:49Z</time>
      </trkpt>
      <trkpt lat="44.60285" lon="0.99393">
        <ele>226</ele>
        <time>2012-01-22T08:36:55Z</time>
      </trkpt>
      <trkpt lat="44.60285" lon="0.99384">
        <ele>225</ele>
        <time>2012-01-22T08:36:56Z</time>
      </trkpt>
      <trkpt lat="44.60285" lon="0.9938">
        <ele>225</ele>
        <time>2012-01-22T08:36:57Z</time>
      </trkpt>
      <trkpt lat="44.60284" lon="0.99376">
        <ele>225</ele>
        <time>2012-01-22T08:36:58Z</time>
      </trkpt>
      <trkpt lat="44.60284" lon="0.99369">
        <ele>224</ele>
        <time>2012-01-22T08:37:03Z</time>
      </trkpt>
      <trkpt lat="44.6028" lon="0.99352">
        <ele>224</ele>
        <time>2012-01-22T08:37:04Z</time>
      </trkpt>
      <trkpt lat="44.60279" lon="0.99347">
        <ele>224</ele>
        <time>2012-01-22T08:37:05Z</time>
      </trkpt>
      <trkpt lat="44.60278" lon="0.99339">
        <ele>224</ele>
        <time>2012-01-22T08:37:11Z</time>
      </trkpt>
      <trkpt lat="44.60275" lon="0.99328">
        <ele>224</ele>
        <time>2012-01-22T08:37:11Z</time>
      </trkpt>
      <trkpt lat="44.60273" lon="0.99326">
        <ele>224</ele>
        <time>2012-01-22T08:37:12Z</time>
      </trkpt>
      <trkpt lat="44.60272" lon="0.99323">
        <ele>224</ele>
        <time>2012-01-22T08:37:14Z</time>
      </trkpt>
      <trkpt lat="44.60271" lon="0.99313">
        <ele>224</ele>
        <time>2012-01-22T08:37:20Z</time>
      </trkpt>
      <trkpt lat="44.60268" lon="0.99301">
        <ele>225</ele>
        <time>2012-01-22T08:37:21Z</time>
      </trkpt>
      <trkpt lat="44.60267" lon="0.99299">
        <ele>225</ele>
        <time>2012-01-22T08:37:22Z</time>
      </trkpt>
      <trkpt lat="44.60259" lon="0.99281">
        <ele>226</ele>
        <time>2012-01-22T08:37:27Z</time>
      </trkpt>
      <trkpt lat="44.60258" lon="0.99276">
        <ele>227</ele>
        <time>2012-01-22T08:37:28Z</time>
      </trkpt>
      <trkpt lat="44.60257" lon="0.99272">
        <ele>228</ele>
        <time>2012-01-22T08:37:29Z</time>
      </trkpt>
      <trkpt lat="44.60254" lon="0.99263">
        <ele>229</ele>
        <time>2012-01-22T08:37:35Z</time>
      </trkpt>
      <trkpt lat="44.6025" lon="0.99248">
        <ele>230</ele>
        <time>2012-01-22T08:37:35Z</time>
      </trkpt>
      <trkpt lat="44.60249" lon="0.99244">
        <ele>231</ele>
        <time>2012-01-22T08:37:36Z</time>
      </trkpt>
      <trkpt lat="44.60242" lon="0.9921">
        <ele>232</ele>
        <time>2012-01-22T08:37:42Z</time>
      </trkpt>
      <trkpt lat="44.60241" lon="0.99204">
        <ele>233</ele>
        <time>2012-01-22T08:37:43Z</time>
      </trkpt>
      <trkpt lat="44.60238" lon="0.99194">
        <ele>234</ele>
        <time>2012-01-22T08:37:50Z</time>
      </trkpt>
      <trkpt lat="44.60228" lon="0.99176">
        <ele>235</ele>
        <time>2012-01-22T08:37:50Z</time>
      </trkpt>
      <trkpt lat="44.60226" lon="0.99172">
        <ele>236</ele>
        <time>2012-01-22T08:37:52Z</time>
      </trkpt>
      <trkpt lat="44.60223" lon="0.99169">
        <ele>237</ele>
        <time>2012-01-22T08:37:53Z</time>
      </trkpt>
      <trkpt lat="44.60217" lon="0.99165">
        <ele>238</ele>
        <time>2012-01-22T08:37:58Z</time>
      </trkpt>
      <trkpt lat="44.60197" lon="0.9915">
        <ele>238</ele>
        <time>2012-01-22T08:37:59Z</time>
      </trkpt>
      <trkpt lat="44.60193" lon="0.99146">
        <ele>238</ele>
        <time>2012-01-22T08:38:00Z</time>
      </trkpt>
      <trkpt lat="44.60185" lon="0.99138">
        <ele>238</ele>
        <time>2012-01-22T08:38:06Z</time>
      </trkpt>
      <trkpt lat="44.60168" lon="0.99127">
        <ele>238</ele>
        <time>2012-01-22T08:38:06Z</time>
      </trkpt>
      <trkpt lat="44.60164" lon="0.99122">
        <ele>238</ele>
        <time>2012-01-22T08:38:07Z</time>
      </trkpt>
      <trkpt lat="44.60145" lon="0.99102">
        <ele>238</ele>
        <time>2012-01-22T08:38:13Z</time>
      </trkpt>
      <trkpt lat="44.60142" lon="0.991">
        <ele>238</ele>
        <time>2012-01-22T08:38:14Z</time>
      </trkpt>
      <trkpt lat="44.6014" lon="0.99098">
        <ele>238</ele>
        <time>2012-01-22T08:38:15Z</time>
      </trkpt>
      <trkpt lat="44.60133" lon="0.99094">
        <ele>238</ele>
        <time>2012-01-22T08:38:21Z</time>
      </trkpt>
      <trkpt lat="44.60117" lon="0.99087">
        <ele>237</ele>
        <time>2012-01-22T08:38:21Z</time>
      </trkpt>
      <trkpt lat="44.60113" lon="0.99085">
        <ele>236</ele>
        <time>2012-01-22T08:38:22Z</time>
      </trkpt>
      <trkpt lat="44.60093" lon="0.99071">
        <ele>235</ele>
        <time>2012-01-22T08:38:28Z</time>
      </trkpt>
      <trkpt lat="44.60089" lon="0.99069">
        <ele>234</ele>
        <time>2012-01-22T08:38:29Z</time>
      </trkpt>
      <trkpt lat="44.60086" lon="0.99067">
        <ele>233</ele>
        <time>2012-01-22T08:38:30Z</time>
      </trkpt>
      <trkpt lat="44.60079" lon="0.99063">
        <ele>232</ele>
        <time>2012-01-22T08:38:36Z</time>
      </trkpt>
      <trkpt lat="44.60064" lon="0.99054">
        <ele>231</ele>
        <time>2012-01-22T08:38:36Z</time>
      </trkpt>
      <trkpt lat="44.6006" lon="0.99052">
        <ele>230</ele>
        <time>2012-01-22T08:38:37Z</time>
      </trkpt>
      <trkpt lat="44.60051" lon="0.99049">
        <ele>229</ele>
        <time>2012-01-22T08:38:43Z</time>
      </trkpt>
      <trkpt lat="44.60029" lon="0.99045">
        <ele>228</ele>
        <time>2012-01-22T08:38:44Z</time>
      </trkpt>
      <trkpt lat="44.60024" lon="0.99045">
        <ele>226</ele>
        <time>2012-01-22T08:38:45Z</time>
      </trkpt>
      <trkpt lat="44.60019" lon="0.99044">
        <ele>224</ele>
        <time>2012-01-22T08:38:46Z</time>
      </trkpt>
      <trkpt lat="44.60009" lon="0.99041">
        <ele>222</ele>
        <time>2012-01-22T08:38:52Z</time>
      </trkpt>
      <trkpt lat="44.59991" lon="0.99033">
        <ele>221</ele>
        <time>2012-01-22T08:38:52Z</time>
      </trkpt>
      <trkpt lat="44.59987" lon="0.9903">
        <ele>220</ele>
        <time>2012-01-22T08:38:53Z</time>
      </trkpt>
      <trkpt lat="44.59983" lon="0.99025">
        <ele>219</ele>
        <time>2012-01-22T08:38:54Z</time>
      </trkpt>
      <trkpt lat="44.59979" lon="0.9902">
        <ele>218</ele>
        <time>2012-01-22T08:38:56Z</time>
      </trkpt>
      <trkpt lat="44.59977" lon="0.99001">
        <ele>218</ele>
        <time>2012-01-22T08:39:02Z</time>
      </trkpt>
      <trkpt lat="44.59982" lon="0.98977">
        <ele>218</ele>
        <time>2012-01-22T08:39:03Z</time>
      </trkpt>
      <trkpt lat="44.59984" lon="0.9897">
        <ele>218</ele>
        <time>2012-01-22T08:39:04Z</time>
      </trkpt>
      <trkpt lat="44.59986" lon="0.98962">
        <ele>218</ele>
        <time>2012-01-22T08:39:05Z</time>
      </trkpt>
      <trkpt lat="44.59996" lon="0.98919">
        <ele>218</ele>
        <time>2012-01-22T08:39:09Z</time>
      </trkpt>
      <trkpt lat="44.59997" lon="0.9891">
        <ele>218</ele>
        <time>2012-01-22T08:39:10Z</time>
      </trkpt>
      <trkpt lat="44.59997" lon="0.989">
        <ele>217</ele>
        <time>2012-01-22T08:39:11Z</time>
      </trkpt>
      <trkpt lat="44.59999" lon="0.98879">
        <ele>216</ele>
        <time>2012-01-22T08:39:16Z</time>
      </trkpt>
      <trkpt lat="44.60002" lon="0.98846">
        <ele>215</ele>
        <time>2012-01-22T08:39:16Z</time>
      </trkpt>
      <trkpt lat="44.60003" lon="0.98836">
        <ele>213</ele>
        <time>2012-01-22T08:39:17Z</time>
      </trkpt>
      <trkpt lat="44.60004" lon="0.98817">
        <ele>212</ele>
        <time>2012-01-22T08:39:22Z</time>
      </trkpt>
      <trkpt lat="44.60007" lon="0.98786">
        <ele>210</ele>
        <time>2012-01-22T08:39:22Z</time>
      </trkpt>
      <trkpt lat="44.60008" lon="0.98776">
        <ele>208</ele>
        <time>2012-01-22T08:39:23Z</time>
      </trkpt>
      <trkpt lat="44.60001" lon="0.98727">
        <ele>207</ele>
        <time>2012-01-22T08:39:28Z</time>
      </trkpt>
      <trkpt lat="44.6" lon="0.98718">
        <ele>206</ele>
        <time>2012-01-22T08:39:29Z</time>
      </trkpt>
      <trkpt lat="44.59999" lon="0.98706">
        <ele>205</ele>
        <time>2012-01-22T08:39:30Z</time>
      </trkpt>
      <trkpt lat="44.60001" lon="0.98684">
        <ele>204</ele>
        <time>2012-01-22T08:39:35Z</time>
      </trkpt>
      <trkpt lat="44.60005" lon="0.98656">
        <ele>203</ele>
        <time>2012-01-22T08:39:35Z</time>
      </trkpt>
      <trkpt lat="44.60006" lon="0.98647">
        <ele>202</ele>
        <time>2012-01-22T08:39:37Z</time>
      </trkpt>
      <trkpt lat="44.60009" lon="0.98641">
        <ele>201</ele>
        <time>2012-01-22T08:39:38Z</time>
      </trkpt>
      <trkpt lat="44.6001" lon="0.98632">
        <ele>200</ele>
        <time>2012-01-22T08:39:39Z</time>
      </trkpt>
      <trkpt lat="44.6002" lon="0.986">
        <ele>200</ele>
        <time>2012-01-22T08:39:43Z</time>
      </trkpt>
      <trkpt lat="44.60023" lon="0.98594">
        <ele>200</ele>
        <time>2012-01-22T08:39:44Z</time>
      </trkpt>
      <trkpt lat="44.60026" lon="0.98586">
        <ele>200</ele>
        <time>2012-01-22T08:39:45Z</time>
      </trkpt>
      <trkpt lat="44.60033" lon="0.9857">
        <ele>200</ele>
        <time>2012-01-22T08:39:50Z</time>
      </trkpt>
      <trkpt lat="44.60042" lon="0.98543">
        <ele>200</ele>
        <time>2012-01-22T08:39:50Z</time>
      </trkpt>
      <trkpt lat="44.60045" lon="0.98532">
        <ele>200</ele>
        <time>2012-01-22T08:39:51Z</time>
      </trkpt>
      <trkpt lat="44.60048" lon="0.9852">
        <ele>200</ele>
        <time>2012-01-22T08:39:53Z</time>
      </trkpt>
      <trkpt lat="44.60058" lon="0.98491">
        <ele>199</ele>
        <time>2012-01-22T08:39:58Z</time>
      </trkpt>
      <trkpt lat="44.60072" lon="0.98468">
        <ele>198</ele>
        <time>2012-01-22T08:39:58Z</time>
      </trkpt>
      <trkpt lat="44.60075" lon="0.98461">
        <ele>197</ele>
        <time>2012-01-22T08:39:59Z</time>
      </trkpt>
      <trkpt lat="44.60077" lon="0.98453">
        <ele>196</ele>
        <time>2012-01-22T08:40:00Z</time>
      </trkpt>
      <trkpt lat="44.60079" lon="0.98445">
        <ele>195</ele>
        <time>2012-01-22T08:40:02Z</time>
      </trkpt>
      <trkpt lat="44.6008" lon="0.98429">
        <ele>194</ele>
        <time>2012-01-22T08:40:07Z</time>
      </trkpt>
      <trkpt lat="44.60083" lon="0.98394">
        <ele>193</ele>
        <time>2012-01-22T08:40:08Z</time>
      </trkpt>
      <trkpt lat="44.60085" lon="0.98377">
        <ele>192</ele>
        <time>2012-01-22T08:40:13Z</time>
      </trkpt>
      <trkpt lat="44.6009" lon="0.98348">
        <ele>191</ele>
        <time>2012-01-22T08:40:13Z</time>
      </trkpt>
      <trkpt lat="44.60092" lon="0.98339">
        <ele>190</ele>
        <time>2012-01-22T08:40:14Z</time>
      </trkpt>
      <trkpt lat="44.60095" lon="0.98319">
        <ele>188</ele>
        <time>2012-01-22T08:40:19Z</time>
      </trkpt>
      <trkpt lat="44.60101" lon="0.98292">
        <ele>186</ele>
        <time>2012-01-22T08:40:19Z</time>
      </trkpt>
      <trkpt lat="44.60103" lon="0.98283">
        <ele>184</ele>
        <time>2012-01-22T08:40:20Z</time>
      </trkpt>
      <trkpt lat="44.6011" lon="0.98269">
        <ele>182</ele>
        <time>2012-01-22T08:40:25Z</time>
      </trkpt>
      <trkpt lat="44.60136" lon="0.98251">
        <ele>180</ele>
        <time>2012-01-22T08:40:27Z</time>
      </trkpt>
      <trkpt lat="44.60144" lon="0.98246">
        <ele>178</ele>
        <time>2012-01-22T08:40:27Z</time>
      </trkpt>
      <trkpt lat="44.60151" lon="0.98242">
        <ele>177</ele>
        <time>2012-01-22T08:40:28Z</time>
      </trkpt>
      <trkpt lat="44.60164" lon="0.98228">
        <ele>175</ele>
        <time>2012-01-22T08:40:33Z</time>
      </trkpt>
      <trkpt lat="44.60182" lon="0.98207">
        <ele>174</ele>
        <time>2012-01-22T08:40:33Z</time>
      </trkpt>
      <trkpt lat="44.60183" lon="0.98195">
        <ele>173</ele>
        <time>2012-01-22T08:40:35Z</time>
      </trkpt>
      <trkpt lat="44.60184" lon="0.98185">
        <ele>172</ele>
        <time>2012-01-22T08:40:36Z</time>
      </trkpt>
      <trkpt lat="44.60183" lon="0.98174">
        <ele>171</ele>
        <time>2012-01-22T08:40:37Z</time>
      </trkpt>
      <trkpt lat="44.60175" lon="0.9815">
        <ele>170</ele>
        <time>2012-01-22T08:40:42Z</time>
      </trkpt>
      <trkpt lat="44.60158" lon="0.98085">
        <ele>170</ele>
        <time>2012-01-22T08:40:44Z</time>
      </trkpt>
      <trkpt lat="44.60159" lon="0.98064">
        <ele>170</ele>
        <time>2012-01-22T08:40:49Z</time>
      </trkpt>
      <trkpt lat="44.60162" lon="0.98025">
        <ele>170</ele>
        <time>2012-01-22T08:40:49Z</time>
      </trkpt>
      <trkpt lat="44.60163" lon="0.98013">
        <ele>170</ele>
        <time>2012-01-22T08:40:50Z</time>
      </trkpt>
      <trkpt lat="44.6017" lon="0.97967">
        <ele>169</ele>
        <time>2012-01-22T08:40:55Z</time>
      </trkpt>
      <trkpt lat="44.6017" lon="0.9796">
        <ele>168</ele>
        <time>2012-01-22T08:40:56Z</time>
      </trkpt>
      <trkpt lat="44.60172" lon="0.97952">
        <ele>167</ele>
        <time>2012-01-22T08:40:57Z</time>
      </trkpt>
      <trkpt lat="44.60176" lon="0.97937">
        <ele>165</ele>
        <time>2012-01-22T08:41:02Z</time>
      </trkpt>
      <trkpt lat="44.60181" lon="0.97911">
        <ele>163</ele>
        <time>2012-01-22T08:41:02Z</time>
      </trkpt>
      <trkpt lat="44.60183" lon="0.97903">
        <ele>161</ele>
        <time>2012-01-22T08:41:03Z</time>
      </trkpt>
      <trkpt lat="44.60198" lon="0.97858">
        <ele>160</ele>
        <time>2012-01-22T08:41:08Z</time>
      </trkpt>
      <trkpt lat="44.60202" lon="0.97849">
        <ele>159</ele>
        <time>2012-01-22T08:41:09Z</time>
      </trkpt>
      <trkpt lat="44.60206" lon="0.9784">
        <ele>158</ele>
        <time>2012-01-22T08:41:10Z</time>
      </trkpt>
      <trkpt lat="44.60214" lon="0.97823">
        <ele>157</ele>
        <time>2012-01-22T08:41:15Z</time>
      </trkpt>
      <trkpt lat="44.6023" lon="0.97797">
        <ele>156</ele>
        <time>2012-01-22T08:41:15Z</time>
      </trkpt>
      <trkpt lat="44.60234" lon="0.97787">
        <ele>155</ele>
        <time>2012-01-22T08:41:16Z</time>
      </trkpt>
      <trkpt lat="44.60238" lon="0.97763">
        <ele>154</ele>
        <time>2012-01-22T08:41:21Z</time>
      </trkpt>
      <trkpt lat="44.60245" lon="0.97729">
        <ele>153</ele>
        <time>2012-01-22T08:41:22Z</time>
      </trkpt>
      <trkpt lat="44.60246" lon="0.97717">
        <ele>152</ele>
        <time>2012-01-22T08:41:23Z</time>
      </trkpt>
      <trkpt lat="44.60247" lon="0.97704">
        <ele>151</ele>
        <time>2012-01-22T08:41:23Z</time>
      </trkpt>
      <trkpt lat="44.60247" lon="0.97683">
        <ele>150</ele>
        <time>2012-01-22T08:41:28Z</time>
      </trkpt>
      <trkpt lat="44.60244" lon="0.97649">
        <ele>149</ele>
        <time>2012-01-22T08:41:28Z</time>
      </trkpt>
      <trkpt lat="44.60243" lon="0.97639">
        <ele>148</ele>
        <time>2012-01-22T08:41:29Z</time>
      </trkpt>
      <trkpt lat="44.60243" lon="0.97586">
        <ele>148</ele>
        <time>2012-01-22T08:41:34Z</time>
      </trkpt>
      <trkpt lat="44.60244" lon="0.97579">
        <ele>148</ele>
        <time>2012-01-22T08:41:35Z</time>
      </trkpt>
      <trkpt lat="44.60246" lon="0.97563">
        <ele>148</ele>
        <time>2012-01-22T08:41:41Z</time>
      </trkpt>
      <trkpt lat="44.60252" lon="0.9754">
        <ele>148</ele>
        <time>2012-01-22T08:41:41Z</time>
      </trkpt>
      <trkpt lat="44.60254" lon="0.97535">
        <ele>149</ele>
        <time>2012-01-22T08:41:42Z</time>
      </trkpt>
      <trkpt lat="44.60256" lon="0.9753">
        <ele>149</ele>
        <time>2012-01-22T08:41:44Z</time>
      </trkpt>
      <trkpt lat="44.60259" lon="0.9752">
        <ele>149</ele>
        <time>2012-01-22T08:41:48Z</time>
      </trkpt>
      <trkpt lat="44.60269" lon="0.97505">
        <ele>149</ele>
        <time>2012-01-22T08:41:49Z</time>
      </trkpt>
      <trkpt lat="44.60272" lon="0.97501">
        <ele>149</ele>
        <time>2012-01-22T08:41:50Z</time>
      </trkpt>
      <trkpt lat="44.60278" lon="0.97492">
        <ele>149</ele>
        <time>2012-01-22T08:41:55Z</time>
      </trkpt>
      <trkpt lat="44.60284" lon="0.97482">
        <ele>149</ele>
        <time>2012-01-22T08:41:55Z</time>
      </trkpt>
      <trkpt lat="44.60283" lon="0.97479">
        <ele>149</ele>
        <time>2012-01-22T08:41:57Z</time>
      </trkpt>
      <trkpt lat="44.60282" lon="0.97475">
        <ele>149</ele>
        <time>2012-01-22T08:41:58Z</time>
      </trkpt>
      <trkpt lat="44.6028" lon="0.97472">
        <ele>149</ele>
        <time>2012-01-22T08:41:58Z</time>
      </trkpt>
      <trkpt lat="44.60274" lon="0.97466">
        <ele>148</ele>
        <time>2012-01-22T08:42:04Z</time>
      </trkpt>
      <trkpt lat="44.60263" lon="0.97455">
        <ele>147</ele>
        <time>2012-01-22T08:42:05Z</time>
      </trkpt>
      <trkpt lat="44.6026" lon="0.9745">
        <ele>146</ele>
        <time>2012-01-22T08:42:09Z</time>
      </trkpt>
      <trkpt lat="44.6025" lon="0.97436">
        <ele>145</ele>
        <time>2012-01-22T08:42:10Z</time>
      </trkpt>
      <trkpt lat="44.60246" lon="0.97433">
        <ele>145</ele>
        <time>2012-01-22T08:42:11Z</time>
      </trkpt>
      <trkpt lat="44.60242" lon="0.97425">
        <ele>145</ele>
        <time>2012-01-22T08:42:16Z</time>
      </trkpt>
      <trkpt lat="44.6024" lon="0.97418">
        <ele>145</ele>
        <time>2012-01-22T08:42:17Z</time>
      </trkpt>
      <trkpt lat="44.60239" lon="0.97416">
        <ele>145</ele>
        <time>2012-01-22T08:42:18Z</time>
      </trkpt>
      <trkpt lat="44.60239" lon="0.97414">
        <ele>145</ele>
        <time>2012-01-22T08:42:19Z</time>
      </trkpt>
      <trkpt lat="44.60236" lon="0.97405">
        <ele>145</ele>
        <time>2012-01-22T08:42:23Z</time>
      </trkpt>
      <trkpt lat="44.60235" lon="0.97403">
        <ele>146</ele>
        <time>2012-01-22T08:42:24Z</time>
      </trkpt>
      <trkpt lat="44.60234" lon="0.97399">
        <ele>147</ele>
        <time>2012-01-22T08:42:26Z</time>
      </trkpt>
      <trkpt lat="44.60231" lon="0.97385">
        <ele>147</ele>
        <time>2012-01-22T08:42:32Z</time>
      </trkpt>
      <trkpt lat="44.6023" lon="0.97383">
        <ele>147</ele>
        <time>2012-01-22T08:42:33Z</time>
      </trkpt>
      <trkpt lat="44.60229" lon="0.97377">
        <ele>147</ele>
        <time>2012-01-22T08:42:38Z</time>
      </trkpt>
      <trkpt lat="44.60228" lon="0.97368">
        <ele>147</ele>
        <time>2012-01-22T08:42:38Z</time>
      </trkpt>
      <trkpt lat="44.60227" lon="0.97364">
        <ele>147</ele>
        <time>2012-01-22T08:42:39Z</time>
      </trkpt>
      <trkpt lat="44.60226" lon="0.97361">
        <ele>147</ele>
        <time>2012-01-22T08:42:40Z</time>
      </trkpt>
      <trkpt lat="44.60224" lon="0.97356">
        <ele>147</ele>
        <time>2012-01-22T08:42:45Z</time>
      </trkpt>
      <trkpt lat="44.60221" lon="0.97348">
        <ele>147</ele>
        <time>2012-01-22T08:42:45Z</time>
      </trkpt>
      <trkpt lat="44.60221" lon="0.97346">
        <ele>147</ele>
        <time>2012-01-22T08:42:46Z</time>
      </trkpt>
      <trkpt lat="44.60218" lon="0.97342">
        <ele>147</ele>
        <time>2012-01-22T08:42:51Z</time>
      </trkpt>
      <trkpt lat="44.60216" lon="0.97339">
        <ele>147</ele>
        <time>2012-01-22T08:42:52Z</time>
      </trkpt>
      <trkpt lat="44.60215" lon="0.97336">
        <ele>147</ele>
        <time>2012-01-22T08:42:54Z</time>
      </trkpt>
      <trkpt lat="44.60216" lon="0.97332">
        <ele>146</ele>
        <time>2012-01-22T08:42:59Z</time>
      </trkpt>
      <trkpt lat="44.60214" lon="0.97327">
        <ele>146</ele>
        <time>2012-01-22T08:43:00Z</time>
      </trkpt>
      <trkpt lat="44.60214" lon="0.97325">
        <ele>146</ele>
        <time>2012-01-22T08:43:07Z</time>
      </trkpt>
      <trkpt lat="44.60216" lon="0.97325">
        <ele>144</ele>
        <time>2012-01-22T08:43:17Z</time>
      </trkpt>
      <trkpt lat="44.60215" lon="0.9732">
        <ele>143</ele>
        <time>2012-01-22T08:43:24Z</time>
      </trkpt>
      <trkpt lat="44.60204" lon="0.97309">
        <ele>142</ele>
        <time>2012-01-22T08:43:25Z</time>
      </trkpt>
      <trkpt lat="44.60197" lon="0.97302">
        <ele>142</ele>
        <time>2012-01-22T08:43:31Z</time>
      </trkpt>
      <trkpt lat="44.60173" lon="0.97283">
        <ele>142</ele>
        <time>2012-01-22T08:43:32Z</time>
      </trkpt>
      <trkpt lat="44.60162" lon="0.97274">
        <ele>142</ele>
        <time>2012-01-22T08:43:37Z</time>
      </trkpt>
      <trkpt lat="44.60146" lon="0.97258">
        <ele>141</ele>
        <time>2012-01-22T08:43:37Z</time>
      </trkpt>
      <trkpt lat="44.60141" lon="0.97252">
        <ele>141</ele>
        <time>2012-01-22T08:43:38Z</time>
      </trkpt>
      <trkpt lat="44.6013" lon="0.97239">
        <ele>141</ele>
        <time>2012-01-22T08:43:44Z</time>
      </trkpt>
      <trkpt lat="44.60114" lon="0.97214">
        <ele>140</ele>
        <time>2012-01-22T08:43:44Z</time>
      </trkpt>
      <trkpt lat="44.60109" lon="0.97208">
        <ele>140</ele>
        <time>2012-01-22T08:43:45Z</time>
      </trkpt>
      <trkpt lat="44.60102" lon="0.97196">
        <ele>140</ele>
        <time>2012-01-22T08:43:50Z</time>
      </trkpt>
      <trkpt lat="44.60095" lon="0.97184">
        <ele>139</ele>
        <time>2012-01-22T08:43:50Z</time>
      </trkpt>
      <trkpt lat="44.60094" lon="0.97181">
        <ele>138</ele>
        <time>2012-01-22T08:43:52Z</time>
      </trkpt>
      <trkpt lat="44.60091" lon="0.97176">
        <ele>137</ele>
        <time>2012-01-22T08:43:57Z</time>
      </trkpt>
      <trkpt lat="44.60076" lon="0.97167">
        <ele>136</ele>
        <time>2012-01-22T08:43:57Z</time>
      </trkpt>
      <trkpt lat="44.60072" lon="0.97167">
        <ele>135</ele>
        <time>2012-01-22T08:43:59Z</time>
      </trkpt>
      <trkpt lat="44.60067" lon="0.97168">
        <ele>134</ele>
        <time>2012-01-22T08:44:00Z</time>
      </trkpt>
      <trkpt lat="44.60064" lon="0.97171">
        <ele>133</ele>
        <time>2012-01-22T08:44:01Z</time>
      </trkpt>
      <trkpt lat="44.60057" lon="0.97179">
        <ele>133</ele>
        <time>2012-01-22T08:44:07Z</time>
      </trkpt>
      <trkpt lat="44.60045" lon="0.97191">
        <ele>133</ele>
        <time>2012-01-22T08:44:07Z</time>
      </trkpt>
      <trkpt lat="44.60043" lon="0.97192">
        <ele>133</ele>
        <time>2012-01-22T08:44:09Z</time>
      </trkpt>
      <trkpt lat="44.6004" lon="0.97192">
        <ele>133</ele>
        <time>2012-01-22T08:44:09Z</time>
      </trkpt>
      <trkpt lat="44.60033" lon="0.97193">
        <ele>133</ele>
        <time>2012-01-22T08:44:15Z</time>
      </trkpt>
      <trkpt lat="44.60016" lon="0.97188">
        <ele>133</ele>
        <time>2012-01-22T08:44:15Z</time>
      </trkpt>
      <trkpt lat="44.60013" lon="0.97185">
        <ele>133</ele>
        <time>2012-01-22T08:44:16Z</time>
      </trkpt>
      <trkpt lat="44.6001" lon="0.97181">
        <ele>133</ele>
        <time>2012-01-22T08:44:17Z</time>
      </trkpt>
      <trkpt lat="44.60003" lon="0.97174">
        <ele>133</ele>
        <time>2012-01-22T08:44:22Z</time>
      </trkpt>
      <trkpt lat="44.5999" lon="0.97167">
        <ele>133</ele>
        <time>2012-01-22T08:44:22Z</time>
      </trkpt>
      <trkpt lat="44.59987" lon="0.97165">
        <ele>133</ele>
        <time>2012-01-22T08:44:24Z</time>
      </trkpt>
      <trkpt lat="44.59983" lon="0.97163">
        <ele>132</ele>
        <time>2012-01-22T08:44:24Z</time>
      </trkpt>
      <trkpt lat="44.59975" lon="0.97158">
        <ele>132</ele>
        <time>2012-01-22T08:44:29Z</time>
      </trkpt>
      <trkpt lat="44.59965" lon="0.97147">
        <ele>131</ele>
        <time>2012-01-22T08:44:30Z</time>
      </trkpt>
      <trkpt lat="44.59963" lon="0.97144">
        <ele>130</ele>
        <time>2012-01-22T08:44:31Z</time>
      </trkpt>
      <trkpt lat="44.59961" lon="0.97141">
        <ele>130</ele>
        <time>2012-01-22T08:44:32Z</time>
      </trkpt>
      <trkpt lat="44.59956" lon="0.97129">
        <ele>129</ele>
        <time>2012-01-22T08:44:37Z</time>
      </trkpt>
      <trkpt lat="44.5995" lon="0.97109">
        <ele>129</ele>
        <time>2012-01-22T08:44:37Z</time>
      </trkpt>
      <trkpt lat="44.59949" lon="0.97103">
        <ele>129</ele>
        <time>2012-01-22T08:44:38Z</time>
      </trkpt>
      <trkpt lat="44.59946" lon="0.97092">
        <ele>129</ele>
        <time>2012-01-22T08:44:43Z</time>
      </trkpt>
      <trkpt lat="44.59945" lon="0.97074">
        <ele>129</ele>
        <time>2012-01-22T08:44:44Z</time>
      </trkpt>
      <trkpt lat="44.59946" lon="0.9707">
        <ele>129</ele>
        <time>2012-01-22T08:44:45Z</time>
      </trkpt>
      <trkpt lat="44.59948" lon="0.97067">
        <ele>129</ele>
        <time>2012-01-22T08:44:46Z</time>
      </trkpt>
      <trkpt lat="44.5995" lon="0.97065">
        <ele>129</ele>
        <time>2012-01-22T08:44:47Z</time>
      </trkpt>
      <trkpt lat="44.59956" lon="0.9706">
        <ele>129</ele>
        <time>2012-01-22T08:44:53Z</time>
      </trkpt>
      <trkpt lat="44.59971" lon="0.9704">
        <ele>129</ele>
        <time>2012-01-22T08:44:53Z</time>
      </trkpt>
      <trkpt lat="44.59975" lon="0.97035">
        <ele>128</ele>
        <time>2012-01-22T08:44:54Z</time>
      </trkpt>
      <trkpt lat="44.59982" lon="0.97025">
        <ele>128</ele>
        <time>2012-01-22T08:44:59Z</time>
      </trkpt>
      <trkpt lat="44.59993" lon="0.97014">
        <ele>128</ele>
        <time>2012-01-22T08:44:59Z</time>
      </trkpt>
      <trkpt lat="44.59996" lon="0.97011">
        <ele>128</ele>
        <time>2012-01-22T08:45:00Z</time>
      </trkpt>
      <trkpt lat="44.60003" lon="0.97006">
        <ele>128</ele>
        <time>2012-01-22T08:45:06Z</time>
      </trkpt>
      <trkpt lat="44.60009" lon="0.96991">
        <ele>128</ele>
        <time>2012-01-22T08:45:06Z</time>
      </trkpt>
      <trkpt lat="44.6001" lon="0.96985">
        <ele>128</ele>
        <time>2012-01-22T08:45:07Z</time>
      </trkpt>
      <trkpt lat="44.60011" lon="0.96979">
        <ele>127</ele>
        <time>2012-01-22T08:45:09Z</time>
      </trkpt>
      <trkpt lat="44.60012" lon="0.96973">
        <ele>127</ele>
        <time>2012-01-22T08:45:09Z</time>
      </trkpt>
      <trkpt lat="44.60012" lon="0.9696">
        <ele>127</ele>
        <time>2012-01-22T08:45:14Z</time>
      </trkpt>
      <trkpt lat="44.60013" lon="0.96943">
        <ele>127</ele>
        <time>2012-01-22T08:45:14Z</time>
      </trkpt>
      <trkpt lat="44.60012" lon="0.96937">
        <ele>127</ele>
        <time>2012-01-22T08:45:15Z</time>
      </trkpt>
      <trkpt lat="44.60006" lon="0.96928">
        <ele>127</ele>
        <time>2012-01-22T08:45:17Z</time>
      </trkpt>
      <trkpt lat="44.60003" lon="0.96925">
        <ele>127</ele>
        <time>2012-01-22T08:45:19Z</time>
      </trkpt>
      <trkpt lat="44.59995" lon="0.96917">
        <ele>127</ele>
        <time>2012-01-22T08:45:24Z</time>
      </trkpt>
      <trkpt lat="44.59979" lon="0.96906">
        <ele>126</ele>
        <time>2012-01-22T08:45:24Z</time>
      </trkpt>
      <trkpt lat="44.59974" lon="0.96904">
        <ele>125</ele>
        <time>2012-01-22T08:45:26Z</time>
      </trkpt>
      <trkpt lat="44.59969" lon="0.96903">
        <ele>125</ele>
        <time>2012-01-22T08:45:27Z</time>
      </trkpt>
      <trkpt lat="44.59958" lon="0.969">
        <ele>125</ele>
        <time>2012-01-22T08:45:32Z</time>
      </trkpt>
      <trkpt lat="44.59937" lon="0.96897">
        <ele>125</ele>
        <time>2012-01-22T08:45:32Z</time>
      </trkpt>
      <trkpt lat="44.59932" lon="0.96896">
        <ele>125</ele>
        <time>2012-01-22T08:45:33Z</time>
      </trkpt>
      <trkpt lat="44.59921" lon="0.96895">
        <ele>125</ele>
        <time>2012-01-22T08:45:38Z</time>
      </trkpt>
      <trkpt lat="44.599" lon="0.96892">
        <ele>125</ele>
        <time>2012-01-22T08:45:39Z</time>
      </trkpt>
      <trkpt lat="44.59895" lon="0.96891">
        <ele>125</ele>
        <time>2012-01-22T08:45:40Z</time>
      </trkpt>
      <trkpt lat="44.59887" lon="0.96888">
        <ele>125</ele>
        <time>2012-01-22T08:45:45Z</time>
      </trkpt>
      <trkpt lat="44.59874" lon="0.96882">
        <ele>125</ele>
        <time>2012-01-22T08:45:45Z</time>
      </trkpt>
      <trkpt lat="44.59869" lon="0.96879">
        <ele>125</ele>
        <time>2012-01-22T08:45:47Z</time>
      </trkpt>
      <trkpt lat="44.59865" lon="0.96875">
        <ele>125</ele>
        <time>2012-01-22T08:45:48Z</time>
      </trkpt>
      <trkpt lat="44.59857" lon="0.96867">
        <ele>125</ele>
        <time>2012-01-22T08:45:53Z</time>
      </trkpt>
      <trkpt lat="44.59841" lon="0.96847">
        <ele>125</ele>
        <time>2012-01-22T08:45:53Z</time>
      </trkpt>
      <trkpt lat="44.59837" lon="0.96841">
        <ele>125</ele>
        <time>2012-01-22T08:45:54Z</time>
      </trkpt>
      <trkpt lat="44.59833" lon="0.96834">
        <ele>125</ele>
        <time>2012-01-22T08:45:56Z</time>
      </trkpt>
      <trkpt lat="44.59824" lon="0.96823">
        <ele>125</ele>
        <time>2012-01-22T08:46:01Z</time>
      </trkpt>
      <trkpt lat="44.59807" lon="0.96795">
        <ele>125</ele>
        <time>2012-01-22T08:46:01Z</time>
      </trkpt>
      <trkpt lat="44.59803" lon="0.96788">
        <ele>125</ele>
        <time>2012-01-22T08:46:02Z</time>
      </trkpt>
      <trkpt lat="44.59784" lon="0.96752">
        <ele>124</ele>
        <time>2012-01-22T08:46:07Z</time>
      </trkpt>
      <trkpt lat="44.5978" lon="0.96744">
        <ele>123</ele>
        <time>2012-01-22T08:46:08Z</time>
      </trkpt>
      <trkpt lat="44.59773" lon="0.96728">
        <ele>122</ele>
        <time>2012-01-22T08:46:14Z</time>
      </trkpt>
      <trkpt lat="44.59761" lon="0.96694">
        <ele>121</ele>
        <time>2012-01-22T08:46:14Z</time>
      </trkpt>
      <trkpt lat="44.59758" lon="0.96687">
        <ele>120</ele>
        <time>2012-01-22T08:46:15Z</time>
      </trkpt>
      <trkpt lat="44.59751" lon="0.9667">
        <ele>120</ele>
        <time>2012-01-22T08:46:20Z</time>
      </trkpt>
      <trkpt lat="44.59737" lon="0.96641">
        <ele>120</ele>
        <time>2012-01-22T08:46:21Z</time>
      </trkpt>
      <trkpt lat="44.59734" lon="0.96635">
        <ele>120</ele>
        <time>2012-01-22T08:46:22Z</time>
      </trkpt>
      <trkpt lat="44.59725" lon="0.96624">
        <ele>120</ele>
        <time>2012-01-22T08:46:27Z</time>
      </trkpt>
      <trkpt lat="44.59708" lon="0.96609">
        <ele>120</ele>
        <time>2012-01-22T08:46:27Z</time>
      </trkpt>
      <trkpt lat="44.59703" lon="0.96604">
        <ele>120</ele>
        <time>2012-01-22T08:46:28Z</time>
      </trkpt>
      <trkpt lat="44.59698" lon="0.966">
        <ele>120</ele>
        <time>2012-01-22T08:46:29Z</time>
      </trkpt>
      <trkpt lat="44.59669" lon="0.96587">
        <ele>120</ele>
        <time>2012-01-22T08:46:34Z</time>
      </trkpt>
      <trkpt lat="44.59663" lon="0.96586">
        <ele>120</ele>
        <time>2012-01-22T08:46:35Z</time>
      </trkpt>
      <trkpt lat="44.59657" lon="0.96585">
        <ele>120</ele>
        <time>2012-01-22T08:46:37Z</time>
      </trkpt>
      <trkpt lat="44.59644" lon="0.96585">
        <ele>120</ele>
        <time>2012-01-22T08:46:41Z</time>
      </trkpt>
      <trkpt lat="44.59621" lon="0.96589">
        <ele>120</ele>
        <time>2012-01-22T08:46:42Z</time>
      </trkpt>
      <trkpt lat="44.59616" lon="0.96591">
        <ele>120</ele>
        <time>2012-01-22T08:46:43Z</time>
      </trkpt>
      <trkpt lat="44.59605" lon="0.96594">
        <ele>120</ele>
        <time>2012-01-22T08:46:48Z</time>
      </trkpt>
      <trkpt lat="44.59588" lon="0.96602">
        <ele>120</ele>
        <time>2012-01-22T08:46:48Z</time>
      </trkpt>
      <trkpt lat="44.59582" lon="0.96606">
        <ele>120</ele>
        <time>2012-01-22T08:46:49Z</time>
      </trkpt>
      <trkpt lat="44.5957" lon="0.96615">
        <ele>120</ele>
        <time>2012-01-22T08:46:55Z</time>
      </trkpt>
      <trkpt lat="44.59549" lon="0.96641">
        <ele>120</ele>
        <time>2012-01-22T08:46:55Z</time>
      </trkpt>
      <trkpt lat="44.59544" lon="0.96648">
        <ele>120</ele>
        <time>2012-01-22T08:46:56Z</time>
      </trkpt>
      <trkpt lat="44.59539" lon="0.96655">
        <ele>120</ele>
        <time>2012-01-22T08:46:57Z</time>
      </trkpt>
      <trkpt lat="44.59515" lon="0.96688">
        <ele>120</ele>
        <time>2012-01-22T08:47:02Z</time>
      </trkpt>
      <trkpt lat="44.59509" lon="0.96693">
        <ele>120</ele>
        <time>2012-01-22T08:47:03Z</time>
      </trkpt>
      <trkpt lat="44.59504" lon="0.96698">
        <ele>120</ele>
        <time>2012-01-22T08:47:04Z</time>
      </trkpt>
      <trkpt lat="44.59491" lon="0.96706">
        <ele>120</ele>
        <time>2012-01-22T08:47:09Z</time>
      </trkpt>
      <trkpt lat="44.59472" lon="0.9672">
        <ele>120</ele>
        <time>2012-01-22T08:47:09Z</time>
      </trkpt>
      <trkpt lat="44.59466" lon="0.96723">
        <ele>121</ele>
        <time>2012-01-22T08:47:10Z</time>
      </trkpt>
      <trkpt lat="44.59455" lon="0.96728">
        <ele>121</ele>
        <time>2012-01-22T08:47:16Z</time>
      </trkpt>
      <trkpt lat="44.59428" lon="0.96742">
        <ele>121</ele>
        <time>2012-01-22T08:47:16Z</time>
      </trkpt>
      <trkpt lat="44.59421" lon="0.96746">
        <ele>121</ele>
        <time>2012-01-22T08:47:17Z</time>
      </trkpt>
      <trkpt lat="44.59408" lon="0.96754">
        <ele>121</ele>
        <time>2012-01-22T08:47:22Z</time>
      </trkpt>
      <trkpt lat="44.59381" lon="0.96775">
        <ele>121</ele>
        <time>2012-01-22T08:47:23Z</time>
      </trkpt>
      <trkpt lat="44.59374" lon="0.9678">
        <ele>121</ele>
        <time>2012-01-22T08:47:24Z</time>
      </trkpt>
      <trkpt lat="44.59361" lon="0.9679">
        <ele>121</ele>
        <time>2012-01-22T08:47:29Z</time>
      </trkpt>
      <trkpt lat="44.59341" lon="0.96806">
        <ele>121</ele>
        <time>2012-01-22T08:47:29Z</time>
      </trkpt>
      <trkpt lat="44.59333" lon="0.96811">
        <ele>121</ele>
        <time>2012-01-22T08:47:30Z</time>
      </trkpt>
      <trkpt lat="44.59319" lon="0.96819">
        <ele>121</ele>
        <time>2012-01-22T08:47:36Z</time>
      </trkpt>
      <trkpt lat="44.59288" lon="0.96833">
        <ele>121</ele>
        <time>2012-01-22T08:47:36Z</time>
      </trkpt>
      <trkpt lat="44.5928" lon="0.96836">
        <ele>121</ele>
        <time>2012-01-22T08:47:37Z</time>
      </trkpt>
      <trkpt lat="44.59264" lon="0.96843">
        <ele>121</ele>
        <time>2012-01-22T08:47:42Z</time>
      </trkpt>
      <trkpt lat="44.59236" lon="0.96855">
        <ele>120</ele>
        <time>2012-01-22T08:47:43Z</time>
      </trkpt>
      <trkpt lat="44.5923" lon="0.96855">
        <ele>119</ele>
        <time>2012-01-22T08:47:44Z</time>
      </trkpt>
      <trkpt lat="44.59225" lon="0.96852">
        <ele>118</ele>
        <time>2012-01-22T08:47:45Z</time>
      </trkpt>
      <trkpt lat="44.59215" lon="0.96839">
        <ele>117</ele>
        <time>2012-01-22T08:47:52Z</time>
      </trkpt>
      <trkpt lat="44.59217" lon="0.96785">
        <ele>116</ele>
        <time>2012-01-22T08:47:52Z</time>
      </trkpt>
      <trkpt lat="44.59218" lon="0.96773">
        <ele>115</ele>
        <time>2012-01-22T08:47:53Z</time>
      </trkpt>
      <trkpt lat="44.5922" lon="0.96761">
        <ele>115</ele>
        <time>2012-01-22T08:47:54Z</time>
      </trkpt>
      <trkpt lat="44.59225" lon="0.96703">
        <ele>114</ele>
        <time>2012-01-22T08:47:59Z</time>
      </trkpt>
      <trkpt lat="44.59227" lon="0.96691">
        <ele>114</ele>
        <time>2012-01-22T08:48:00Z</time>
      </trkpt>
      <trkpt lat="44.59229" lon="0.96669">
        <ele>114</ele>
        <time>2012-01-22T08:48:06Z</time>
      </trkpt>
      <trkpt lat="44.59231" lon="0.96627">
        <ele>114</ele>
        <time>2012-01-22T08:48:06Z</time>
      </trkpt>
      <trkpt lat="44.59232" lon="0.96618">
        <ele>114</ele>
        <time>2012-01-22T08:48:07Z</time>
      </trkpt>
      <trkpt lat="44.59233" lon="0.96601">
        <ele>114</ele>
        <time>2012-01-22T08:48:13Z</time>
      </trkpt>
      <trkpt lat="44.59237" lon="0.96569">
        <ele>114</ele>
        <time>2012-01-22T08:48:13Z</time>
      </trkpt>
      <trkpt lat="44.59238" lon="0.96561">
        <ele>114</ele>
        <time>2012-01-22T08:48:14Z</time>
      </trkpt>
      <trkpt lat="44.59245" lon="0.96522">
        <ele>114</ele>
        <time>2012-01-22T08:48:19Z</time>
      </trkpt>
      <trkpt lat="44.59247" lon="0.96515">
        <ele>114</ele>
        <time>2012-01-22T08:48:20Z</time>
      </trkpt>
      <trkpt lat="44.59249" lon="0.96508">
        <ele>114</ele>
        <time>2012-01-22T08:48:21Z</time>
      </trkpt>
      <trkpt lat="44.59259" lon="0.96478">
        <ele>114</ele>
        <time>2012-01-22T08:48:26Z</time>
      </trkpt>
      <trkpt lat="44.59263" lon="0.96474">
        <ele>114</ele>
        <time>2012-01-22T08:48:27Z</time>
      </trkpt>
      <trkpt lat="44.59269" lon="0.96466">
        <ele>114</ele>
        <time>2012-01-22T08:48:33Z</time>
      </trkpt>
      <trkpt lat="44.59263" lon="0.96445">
        <ele>115</ele>
        <time>2012-01-22T08:48:33Z</time>
      </trkpt>
      <trkpt lat="44.59259" lon="0.96441">
        <ele>116</ele>
        <time>2012-01-22T08:48:34Z</time>
      </trkpt>
      <trkpt lat="44.59256" lon="0.96438">
        <ele>116</ele>
        <time>2012-01-22T08:48:35Z</time>
      </trkpt>
      <trkpt lat="44.59252" lon="0.96435">
        <ele>117</ele>
        <time>2012-01-22T08:48:36Z</time>
      </trkpt>
      <trkpt lat="44.59245" lon="0.96432">
        <ele>118</ele>
        <time>2012-01-22T08:48:41Z</time>
      </trkpt>
      <trkpt lat="44.5923" lon="0.9643">
        <ele>118</ele>
        <time>2012-01-22T08:48:42Z</time>
      </trkpt>
      <trkpt lat="44.59226" lon="0.96431">
        <ele>118</ele>
        <time>2012-01-22T08:48:43Z</time>
      </trkpt>
      <trkpt lat="44.59223" lon="0.96431">
        <ele>118</ele>
        <time>2012-01-22T08:48:44Z</time>
      </trkpt>
      <trkpt lat="44.59218" lon="0.96432">
        <ele>119</ele>
        <time>2012-01-22T08:48:49Z</time>
      </trkpt>
      <trkpt lat="44.59209" lon="0.96439">
        <ele>119</ele>
        <time>2012-01-22T08:48:50Z</time>
      </trkpt>
      <trkpt lat="44.59206" lon="0.96441">
        <ele>119</ele>
        <time>2012-01-22T08:48:51Z</time>
      </trkpt>
      <trkpt lat="44.59203" lon="0.96443">
        <ele>119</ele>
        <time>2012-01-22T08:48:52Z</time>
      </trkpt>
      <trkpt lat="44.59193" lon="0.96455">
        <ele>120</ele>
        <time>2012-01-22T08:48:57Z</time>
      </trkpt>
      <trkpt lat="44.59192" lon="0.96459">
        <ele>120</ele>
        <time>2012-01-22T08:48:58Z</time>
      </trkpt>
      <trkpt lat="44.59191" lon="0.96463">
        <ele>121</ele>
        <time>2012-01-22T08:49:00Z</time>
      </trkpt>
      <trkpt lat="44.59189" lon="0.96469">
        <ele>121</ele>
        <time>2012-01-22T08:49:05Z</time>
      </trkpt>
      <trkpt lat="44.59184" lon="0.96483">
        <ele>122</ele>
        <time>2012-01-22T08:49:05Z</time>
      </trkpt>
      <trkpt lat="44.59182" lon="0.96487">
        <ele>123</ele>
        <time>2012-01-22T08:49:06Z</time>
      </trkpt>
      <trkpt lat="44.5918" lon="0.9649">
        <ele>124</ele>
        <time>2012-01-22T08:49:07Z</time>
      </trkpt>
      <trkpt lat="44.59177" lon="0.96496">
        <ele>124</ele>
        <time>2012-01-22T08:49:12Z</time>
      </trkpt>
      <trkpt lat="44.59168" lon="0.9651">
        <ele>124</ele>
        <time>2012-01-22T08:49:13Z</time>
      </trkpt>
      <trkpt lat="44.59166" lon="0.96514">
        <ele>124</ele>
        <time>2012-01-22T08:49:14Z</time>
      </trkpt>
      <trkpt lat="44.59163" lon="0.96517">
        <ele>124</ele>
        <time>2012-01-22T08:49:16Z</time>
      </trkpt>
      <trkpt lat="44.59159" lon="0.96523">
        <ele>124</ele>
        <time>2012-01-22T08:49:21Z</time>
      </trkpt>
      <trkpt lat="44.59149" lon="0.96535">
        <ele>125</ele>
        <time>2012-01-22T08:49:21Z</time>
      </trkpt>
      <trkpt lat="44.59146" lon="0.96537">
        <ele>125</ele>
        <time>2012-01-22T08:49:22Z</time>
      </trkpt>
      <trkpt lat="44.5914" lon="0.96541">
        <ele>126</ele>
        <time>2012-01-22T08:49:28Z</time>
      </trkpt>
      <trkpt lat="44.59132" lon="0.96551">
        <ele>127</ele>
        <time>2012-01-22T08:49:28Z</time>
      </trkpt>
      <trkpt lat="44.59129" lon="0.96553">
        <ele>128</ele>
        <time>2012-01-22T08:49:29Z</time>
      </trkpt>
      <trkpt lat="44.59124" lon="0.96556">
        <ele>128</ele>
        <time>2012-01-22T08:49:34Z</time>
      </trkpt>
      <trkpt lat="44.59114" lon="0.96563">
        <ele>129</ele>
        <time>2012-01-22T08:49:35Z</time>
      </trkpt>
      <trkpt lat="44.59111" lon="0.96565">
        <ele>129</ele>
        <time>2012-01-22T08:49:36Z</time>
      </trkpt>
      <trkpt lat="44.59098" lon="0.96573">
        <ele>129</ele>
        <time>2012-01-22T08:49:41Z</time>
      </trkpt>
      <trkpt lat="44.59095" lon="0.96574">
        <ele>130</ele>
        <time>2012-01-22T08:49:42Z</time>
      </trkpt>
      <trkpt lat="44.59092" lon="0.96575">
        <ele>130</ele>
        <time>2012-01-22T08:49:43Z</time>
      </trkpt>
      <trkpt lat="44.59078" lon="0.9658">
        <ele>131</ele>
        <time>2012-01-22T08:49:48Z</time>
      </trkpt>
      <trkpt lat="44.59075" lon="0.96581">
        <ele>131</ele>
        <time>2012-01-22T08:49:49Z</time>
      </trkpt>
      <trkpt lat="44.59072" lon="0.96582">
        <ele>132</ele>
        <time>2012-01-22T08:49:50Z</time>
      </trkpt>
      <trkpt lat="44.59058" lon="0.96584">
        <ele>132</ele>
        <time>2012-01-22T08:49:55Z</time>
      </trkpt>
      <trkpt lat="44.59055" lon="0.96584">
        <ele>133</ele>
        <time>2012-01-22T08:49:56Z</time>
      </trkpt>
      <trkpt lat="44.59053" lon="0.96585">
        <ele>133</ele>
        <time>2012-01-22T08:49:57Z</time>
      </trkpt>
      <trkpt lat="44.59038" lon="0.96586">
        <ele>134</ele>
        <time>2012-01-22T08:50:02Z</time>
      </trkpt>
      <trkpt lat="44.59035" lon="0.96585">
        <ele>135</ele>
        <time>2012-01-22T08:50:03Z</time>
      </trkpt>
      <trkpt lat="44.59032" lon="0.96585">
        <ele>135</ele>
        <time>2012-01-22T08:50:04Z</time>
      </trkpt>
      <trkpt lat="44.59018" lon="0.96583">
        <ele>136</ele>
        <time>2012-01-22T08:50:09Z</time>
      </trkpt>
      <trkpt lat="44.59014" lon="0.96582">
        <ele>137</ele>
        <time>2012-01-22T08:50:10Z</time>
      </trkpt>
      <trkpt lat="44.59011" lon="0.96581">
        <ele>138</ele>
        <time>2012-01-22T08:50:11Z</time>
      </trkpt>
      <trkpt lat="44.58997" lon="0.96575">
        <ele>138</ele>
        <time>2012-01-22T08:50:16Z</time>
      </trkpt>
      <trkpt lat="44.58995" lon="0.96574">
        <ele>139</ele>
        <time>2012-01-22T08:50:17Z</time>
      </trkpt>
      <trkpt lat="44.58992" lon="0.96572">
        <ele>140</ele>
        <time>2012-01-22T08:50:18Z</time>
      </trkpt>
      <trkpt lat="44.58978" lon="0.96565">
        <ele>141</ele>
        <time>2012-01-22T08:50:23Z</time>
      </trkpt>
      <trkpt lat="44.58976" lon="0.96564">
        <ele>142</ele>
        <time>2012-01-22T08:50:24Z</time>
      </trkpt>
      <trkpt lat="44.58973" lon="0.96562">
        <ele>143</ele>
        <time>2012-01-22T08:50:25Z</time>
      </trkpt>
      <trkpt lat="44.58968" lon="0.96559">
        <ele>144</ele>
        <time>2012-01-22T08:50:30Z</time>
      </trkpt>
      <trkpt lat="44.58958" lon="0.96552">
        <ele>145</ele>
        <time>2012-01-22T08:50:31Z</time>
      </trkpt>
      <trkpt lat="44.58955" lon="0.96551">
        <ele>146</ele>
        <time>2012-01-22T08:50:32Z</time>
      </trkpt>
      <trkpt lat="44.58942" lon="0.96541">
        <ele>147</ele>
        <time>2012-01-22T08:50:37Z</time>
      </trkpt>
      <trkpt lat="44.58939" lon="0.96539">
        <ele>148</ele>
        <time>2012-01-22T08:50:38Z</time>
      </trkpt>
      <trkpt lat="44.58937" lon="0.96536">
        <ele>149</ele>
        <time>2012-01-22T08:50:39Z</time>
      </trkpt>
      <trkpt lat="44.58929" lon="0.96524">
        <ele>150</ele>
        <time>2012-01-22T08:50:44Z</time>
      </trkpt>
      <trkpt lat="44.58927" lon="0.96521">
        <ele>151</ele>
        <time>2012-01-22T08:50:45Z</time>
      </trkpt>
      <trkpt lat="44.58926" lon="0.96519">
        <ele>151</ele>
        <time>2012-01-22T08:50:46Z</time>
      </trkpt>
      <trkpt lat="44.58922" lon="0.96508">
        <ele>151</ele>
        <time>2012-01-22T08:50:51Z</time>
      </trkpt>
      <trkpt lat="44.58921" lon="0.96505">
        <ele>152</ele>
        <time>2012-01-22T08:50:52Z</time>
      </trkpt>
      <trkpt lat="44.5892" lon="0.96503">
        <ele>152</ele>
        <time>2012-01-22T08:50:53Z</time>
      </trkpt>
      <trkpt lat="44.58916" lon="0.96488">
        <ele>153</ele>
        <time>2012-01-22T08:50:58Z</time>
      </trkpt>
      <trkpt lat="44.58915" lon="0.96485">
        <ele>154</ele>
        <time>2012-01-22T08:50:59Z</time>
      </trkpt>
      <trkpt lat="44.58914" lon="0.96482">
        <ele>154</ele>
        <time>2012-01-22T08:51:00Z</time>
      </trkpt>
      <trkpt lat="44.58911" lon="0.96468">
        <ele>155</ele>
        <time>2012-01-22T08:51:05Z</time>
      </trkpt>
      <trkpt lat="44.58911" lon="0.96465">
        <ele>156</ele>
        <time>2012-01-22T08:51:06Z</time>
      </trkpt>
      <trkpt lat="44.5891" lon="0.96462">
        <ele>157</ele>
        <time>2012-01-22T08:51:07Z</time>
      </trkpt>
      <trkpt lat="44.58907" lon="0.96449">
        <ele>157</ele>
        <time>2012-01-22T08:51:12Z</time>
      </trkpt>
      <trkpt lat="44.58907" lon="0.96446">
        <ele>158</ele>
        <time>2012-01-22T08:51:13Z</time>
      </trkpt>
      <trkpt lat="44.58906" lon="0.96443">
        <ele>158</ele>
        <time>2012-01-22T08:51:14Z</time>
      </trkpt>
      <trkpt lat="44.58904" lon="0.9643">
        <ele>158</ele>
        <time>2012-01-22T08:51:19Z</time>
      </trkpt>
      <trkpt lat="44.58903" lon="0.96427">
        <ele>158</ele>
        <time>2012-01-22T08:51:20Z</time>
      </trkpt>
      <trkpt lat="44.58902" lon="0.96425">
        <ele>158</ele>
        <time>2012-01-22T08:51:21Z</time>
      </trkpt>
      <trkpt lat="44.58902" lon="0.96419">
        <ele>158</ele>
        <time>2012-01-22T08:51:26Z</time>
      </trkpt>
      <trkpt lat="44.589" lon="0.9641">
        <ele>158</ele>
        <time>2012-01-22T08:51:27Z</time>
      </trkpt>
      <trkpt lat="44.58899" lon="0.96407">
        <ele>158</ele>
        <time>2012-01-22T08:51:28Z</time>
      </trkpt>
      <trkpt lat="44.58899" lon="0.96404">
        <ele>158</ele>
        <time>2012-01-22T08:51:29Z</time>
      </trkpt>
      <trkpt lat="44.58896" lon="0.96399">
        <ele>158</ele>
        <time>2012-01-22T08:51:35Z</time>
      </trkpt>
      <trkpt lat="44.58892" lon="0.96388">
        <ele>158</ele>
        <time>2012-01-22T08:51:35Z</time>
      </trkpt>
      <trkpt lat="44.58891" lon="0.96386">
        <ele>158</ele>
        <time>2012-01-22T08:51:36Z</time>
      </trkpt>
      <trkpt lat="44.58884" lon="0.96373">
        <ele>158</ele>
        <time>2012-01-22T08:51:41Z</time>
      </trkpt>
      <trkpt lat="44.58882" lon="0.96372">
        <ele>158</ele>
        <time>2012-01-22T08:51:42Z</time>
      </trkpt>
      <trkpt lat="44.58881" lon="0.96369">
        <ele>159</ele>
        <time>2012-01-22T08:51:43Z</time>
      </trkpt>
      <trkpt lat="44.5888" lon="0.96367">
        <ele>160</ele>
        <time>2012-01-22T08:51:44Z</time>
      </trkpt>
      <trkpt lat="44.58878" lon="0.9636">
        <ele>161</ele>
        <time>2012-01-22T08:51:49Z</time>
      </trkpt>
      <trkpt lat="44.58873" lon="0.96348">
        <ele>162</ele>
        <time>2012-01-22T08:51:50Z</time>
      </trkpt>
      <trkpt lat="44.58872" lon="0.96345">
        <ele>163</ele>
        <time>2012-01-22T08:51:52Z</time>
      </trkpt>
      <trkpt lat="44.58869" lon="0.96339">
        <ele>163</ele>
        <time>2012-01-22T08:51:57Z</time>
      </trkpt>
      <trkpt lat="44.58863" lon="0.96329">
        <ele>164</ele>
        <time>2012-01-22T08:51:57Z</time>
      </trkpt>
      <trkpt lat="44.58862" lon="0.96326">
        <ele>165</ele>
        <time>2012-01-22T08:51:58Z</time>
      </trkpt>
      <trkpt lat="44.58859" lon="0.9632">
        <ele>166</ele>
        <time>2012-01-22T08:52:04Z</time>
      </trkpt>
      <trkpt lat="44.58854" lon="0.96311">
        <ele>167</ele>
        <time>2012-01-22T08:52:04Z</time>
      </trkpt>
      <trkpt lat="44.58853" lon="0.96309">
        <ele>168</ele>
        <time>2012-01-22T08:52:05Z</time>
      </trkpt>
      <trkpt lat="44.58852" lon="0.96307">
        <ele>169</ele>
        <time>2012-01-22T08:52:07Z</time>
      </trkpt>
      <trkpt lat="44.58848" lon="0.96302">
        <ele>170</ele>
        <time>2012-01-22T08:52:12Z</time>
      </trkpt>
      <trkpt lat="44.5884" lon="0.96296">
        <ele>171</ele>
        <time>2012-01-22T08:52:12Z</time>
      </trkpt>
      <trkpt lat="44.58838" lon="0.96295">
        <ele>172</ele>
        <time>2012-01-22T08:52:13Z</time>
      </trkpt>
      <trkpt lat="44.58836" lon="0.96294">
        <ele>173</ele>
        <time>2012-01-22T08:52:14Z</time>
      </trkpt>
      <trkpt lat="44.58825" lon="0.96292">
        <ele>174</ele>
        <time>2012-01-22T08:52:19Z</time>
      </trkpt>
      <trkpt lat="44.58823" lon="0.96292">
        <ele>175</ele>
        <time>2012-01-22T08:52:20Z</time>
      </trkpt>
      <trkpt lat="44.5882" lon="0.96292">
        <ele>176</ele>
        <time>2012-01-22T08:52:21Z</time>
      </trkpt>
      <trkpt lat="44.58807" lon="0.96293">
        <ele>177</ele>
        <time>2012-01-22T08:52:26Z</time>
      </trkpt>
      <trkpt lat="44.58805" lon="0.96294">
        <ele>177</ele>
        <time>2012-01-22T08:52:27Z</time>
      </trkpt>
      <trkpt lat="44.58803" lon="0.96294">
        <ele>177</ele>
        <time>2012-01-22T08:52:28Z</time>
      </trkpt>
      <trkpt lat="44.58798" lon="0.96294">
        <ele>177</ele>
        <time>2012-01-22T08:52:33Z</time>
      </trkpt>
      <trkpt lat="44.58789" lon="0.96294">
        <ele>177</ele>
        <time>2012-01-22T08:52:34Z</time>
      </trkpt>
      <trkpt lat="44.58786" lon="0.96294">
        <ele>177</ele>
        <time>2012-01-22T08:52:35Z</time>
      </trkpt>
      <trkpt lat="44.58782" lon="0.96294">
        <ele>177</ele>
        <time>2012-01-22T08:52:40Z</time>
      </trkpt>
      <trkpt lat="44.58773" lon="0.96294">
        <ele>177</ele>
        <time>2012-01-22T08:52:41Z</time>
      </trkpt>
      <trkpt lat="44.58771" lon="0.96294">
        <ele>177</ele>
        <time>2012-01-22T08:52:42Z</time>
      </trkpt>
      <trkpt lat="44.58761" lon="0.96294">
        <ele>177</ele>
        <time>2012-01-22T08:52:47Z</time>
      </trkpt>
      <trkpt lat="44.58759" lon="0.96294">
        <ele>177</ele>
        <time>2012-01-22T08:52:48Z</time>
      </trkpt>
      <trkpt lat="44.58756" lon="0.96293">
        <ele>177</ele>
        <time>2012-01-22T08:52:49Z</time>
      </trkpt>
      <trkpt lat="44.58752" lon="0.96292">
        <ele>177</ele>
        <time>2012-01-22T08:52:54Z</time>
      </trkpt>
      <trkpt lat="44.58743" lon="0.9629">
        <ele>177</ele>
        <time>2012-01-22T08:52:55Z</time>
      </trkpt>
      <trkpt lat="44.58741" lon="0.96288">
        <ele>177</ele>
        <time>2012-01-22T08:52:56Z</time>
      </trkpt>
      <trkpt lat="44.58737" lon="0.96286">
        <ele>177</ele>
        <time>2012-01-22T08:53:01Z</time>
      </trkpt>
      <trkpt lat="44.58729" lon="0.96283">
        <ele>177</ele>
        <time>2012-01-22T08:53:02Z</time>
      </trkpt>
      <trkpt lat="44.58727" lon="0.96283">
        <ele>177</ele>
        <time>2012-01-22T08:53:03Z</time>
      </trkpt>
      <trkpt lat="44.58722" lon="0.96281">
        <ele>177</ele>
        <time>2012-01-22T08:53:08Z</time>
      </trkpt>
      <trkpt lat="44.58712" lon="0.96278">
        <ele>177</ele>
        <time>2012-01-22T08:53:09Z</time>
      </trkpt>
      <trkpt lat="44.5871" lon="0.96277">
        <ele>177</ele>
        <time>2012-01-22T08:53:10Z</time>
      </trkpt>
      <trkpt lat="44.58698" lon="0.96275">
        <ele>177</ele>
        <time>2012-01-22T08:53:15Z</time>
      </trkpt>
      <trkpt lat="44.58695" lon="0.96275">
        <ele>177</ele>
        <time>2012-01-22T08:53:16Z</time>
      </trkpt>
      <trkpt lat="44.58693" lon="0.96275">
        <ele>177</ele>
        <time>2012-01-22T08:53:17Z</time>
      </trkpt>
      <trkpt lat="44.58688" lon="0.96273">
        <ele>177</ele>
        <time>2012-01-22T08:53:22Z</time>
      </trkpt>
      <trkpt lat="44.58679" lon="0.9627">
        <ele>176</ele>
        <time>2012-01-22T08:53:23Z</time>
      </trkpt>
      <trkpt lat="44.58676" lon="0.96269">
        <ele>176</ele>
        <time>2012-01-22T08:53:24Z</time>
      </trkpt>
      <trkpt lat="44.58665" lon="0.96262">
        <ele>176</ele>
        <time>2012-01-22T08:53:29Z</time>
      </trkpt>
      <trkpt lat="44.58663" lon="0.96261">
        <ele>176</ele>
        <time>2012-01-22T08:53:30Z</time>
      </trkpt>
      <trkpt lat="44.58661" lon="0.96259">
        <ele>176</ele>
        <time>2012-01-22T08:53:31Z</time>
      </trkpt>
      <trkpt lat="44.58655" lon="0.96257">
        <ele>176</ele>
        <time>2012-01-22T08:53:36Z</time>
      </trkpt>
      <trkpt lat="44.58646" lon="0.9625">
        <ele>176</ele>
        <time>2012-01-22T08:53:37Z</time>
      </trkpt>
      <trkpt lat="44.58643" lon="0.96248">
        <ele>176</ele>
        <time>2012-01-22T08:53:38Z</time>
      </trkpt>
      <trkpt lat="44.58636" lon="0.96242">
        <ele>175</ele>
        <time>2012-01-22T08:53:43Z</time>
      </trkpt>
      <trkpt lat="44.58617" lon="0.96241">
        <ele>174</ele>
        <time>2012-01-22T08:53:44Z</time>
      </trkpt>
      <trkpt lat="44.58613" lon="0.96242">
        <ele>173</ele>
        <time>2012-01-22T08:53:45Z</time>
      </trkpt>
      <trkpt lat="44.58609" lon="0.96245">
        <ele>172</ele>
        <time>2012-01-22T08:53:46Z</time>
      </trkpt>
      <trkpt lat="44.58602" lon="0.96249">
        <ele>171</ele>
        <time>2012-01-22T08:53:51Z</time>
      </trkpt>
      <trkpt lat="44.58593" lon="0.96256">
        <ele>171</ele>
        <time>2012-01-22T08:53:52Z</time>
      </trkpt>
      <trkpt lat="44.58591" lon="0.96257">
        <ele>171</ele>
        <time>2012-01-22T08:53:53Z</time>
      </trkpt>
      <trkpt lat="44.58588" lon="0.96259">
        <ele>171</ele>
        <time>2012-01-22T08:53:54Z</time>
      </trkpt>
      <trkpt lat="44.58583" lon="0.96263">
        <ele>171</ele>
        <time>2012-01-22T08:53:59Z</time>
      </trkpt>
      <trkpt lat="44.58574" lon="0.96271">
        <ele>171</ele>
        <time>2012-01-22T08:54:00Z</time>
      </trkpt>
      <trkpt lat="44.58572" lon="0.96272">
        <ele>172</ele>
        <time>2012-01-22T08:54:01Z</time>
      </trkpt>
      <trkpt lat="44.58566" lon="0.96276">
        <ele>173</ele>
        <time>2012-01-22T08:54:06Z</time>
      </trkpt>
      <trkpt lat="44.58558" lon="0.96282">
        <ele>174</ele>
        <time>2012-01-22T08:54:07Z</time>
      </trkpt>
      <trkpt lat="44.58555" lon="0.96283">
        <ele>175</ele>
        <time>2012-01-22T08:54:08Z</time>
      </trkpt>
      <trkpt lat="44.58551" lon="0.96285">
        <ele>176</ele>
        <time>2012-01-22T08:54:13Z</time>
      </trkpt>
      <trkpt lat="44.5854" lon="0.96285">
        <ele>176</ele>
        <time>2012-01-22T08:54:14Z</time>
      </trkpt>
      <trkpt lat="44.58537" lon="0.96285">
        <ele>176</ele>
        <time>2012-01-22T08:54:15Z</time>
      </trkpt>
      <trkpt lat="44.58535" lon="0.96285">
        <ele>176</ele>
        <time>2012-01-22T08:54:16Z</time>
      </trkpt>
      <trkpt lat="44.58531" lon="0.96285">
        <ele>176</ele>
        <time>2012-01-22T08:54:21Z</time>
      </trkpt>
      <trkpt lat="44.58522" lon="0.96284">
        <ele>176</ele>
        <time>2012-01-22T08:54:22Z</time>
      </trkpt>
      <trkpt lat="44.5852" lon="0.96284">
        <ele>176</ele>
        <time>2012-01-22T08:54:23Z</time>
      </trkpt>
      <trkpt lat="44.58516" lon="0.96284">
        <ele>177</ele>
        <time>2012-01-22T08:54:28Z</time>
      </trkpt>
      <trkpt lat="44.58507" lon="0.96285">
        <ele>177</ele>
        <time>2012-01-22T08:54:29Z</time>
      </trkpt>
      <trkpt lat="44.58505" lon="0.96285">
        <ele>177</ele>
        <time>2012-01-22T08:54:30Z</time>
      </trkpt>
      <trkpt lat="44.58501" lon="0.96286">
        <ele>177</ele>
        <time>2012-01-22T08:54:35Z</time>
      </trkpt>
      <trkpt lat="44.58492" lon="0.96288">
        <ele>178</ele>
        <time>2012-01-22T08:54:36Z</time>
      </trkpt>
      <trkpt lat="44.5849" lon="0.96288">
        <ele>178</ele>
        <time>2012-01-22T08:54:37Z</time>
      </trkpt>
      <trkpt lat="44.58485" lon="0.96288">
        <ele>178</ele>
        <time>2012-01-22T08:54:42Z</time>
      </trkpt>
      <trkpt lat="44.58477" lon="0.9629">
        <ele>179</ele>
        <time>2012-01-22T08:54:43Z</time>
      </trkpt>
      <trkpt lat="44.58475" lon="0.9629">
        <ele>180</ele>
        <time>2012-01-22T08:54:44Z</time>
      </trkpt>
      <trkpt lat="44.58472" lon="0.96291">
        <ele>181</ele>
        <time>2012-01-22T08:54:49Z</time>
      </trkpt>
      <trkpt lat="44.58467" lon="0.96297">
        <ele>182</ele>
        <time>2012-01-22T08:54:50Z</time>
      </trkpt>
      <trkpt lat="44.58466" lon="0.96299">
        <ele>183</ele>
        <time>2012-01-22T08:54:51Z</time>
      </trkpt>
      <trkpt lat="44.58466" lon="0.96303">
        <ele>184</ele>
        <time>2012-01-22T08:54:52Z</time>
      </trkpt>
      <trkpt lat="44.58464" lon="0.96311">
        <ele>185</ele>
        <time>2012-01-22T08:54:57Z</time>
      </trkpt>
      <trkpt lat="44.58464" lon="0.96324">
        <ele>186</ele>
        <time>2012-01-22T08:54:59Z</time>
      </trkpt>
      <trkpt lat="44.58465" lon="0.96328">
        <ele>187</ele>
        <time>2012-01-22T08:55:00Z</time>
      </trkpt>
      <trkpt lat="44.58466" lon="0.9633">
        <ele>188</ele>
        <time>2012-01-22T08:55:01Z</time>
      </trkpt>
      <trkpt lat="44.58466" lon="0.96335">
        <ele>189</ele>
        <time>2012-01-22T08:55:06Z</time>
      </trkpt>
      <trkpt lat="44.58466" lon="0.96347">
        <ele>190</ele>
        <time>2012-01-22T08:55:06Z</time>
      </trkpt>
      <trkpt lat="44.58467" lon="0.9635">
        <ele>190</ele>
        <time>2012-01-22T08:55:07Z</time>
      </trkpt>
      <trkpt lat="44.58467" lon="0.96357">
        <ele>190</ele>
        <time>2012-01-22T08:55:13Z</time>
      </trkpt>
      <trkpt lat="44.58471" lon="0.96368">
        <ele>190</ele>
        <time>2012-01-22T08:55:13Z</time>
      </trkpt>
      <trkpt lat="44.58472" lon="0.96371">
        <ele>190</ele>
        <time>2012-01-22T08:55:14Z</time>
      </trkpt>
      <trkpt lat="44.58472" lon="0.96374">
        <ele>191</ele>
        <time>2012-01-22T08:55:16Z</time>
      </trkpt>
      <trkpt lat="44.58473" lon="0.9638">
        <ele>192</ele>
        <time>2012-01-22T08:55:21Z</time>
      </trkpt>
      <trkpt lat="44.58476" lon="0.96392">
        <ele>193</ele>
        <time>2012-01-22T08:55:21Z</time>
      </trkpt>
      <trkpt lat="44.58477" lon="0.96395">
        <ele>194</ele>
        <time>2012-01-22T08:55:22Z</time>
      </trkpt>
      <trkpt lat="44.58477" lon="0.96401">
        <ele>195</ele>
        <time>2012-01-22T08:55:28Z</time>
      </trkpt>
      <trkpt lat="44.5848" lon="0.96413">
        <ele>196</ele>
        <time>2012-01-22T08:55:28Z</time>
      </trkpt>
      <trkpt lat="44.5848" lon="0.96416">
        <ele>197</ele>
        <time>2012-01-22T08:55:29Z</time>
      </trkpt>
      <trkpt lat="44.5848" lon="0.96421">
        <ele>198</ele>
        <time>2012-01-22T08:55:35Z</time>
      </trkpt>
      <trkpt lat="44.58483" lon="0.96432">
        <ele>199</ele>
        <time>2012-01-22T08:55:35Z</time>
      </trkpt>
      <trkpt lat="44.58483" lon="0.96435">
        <ele>200</ele>
        <time>2012-01-22T08:55:36Z</time>
      </trkpt>
      <trkpt lat="44.58485" lon="0.96441">
        <ele>201</ele>
        <time>2012-01-22T08:55:42Z</time>
      </trkpt>
      <trkpt lat="44.58487" lon="0.96446">
        <ele>201</ele>
        <time>2012-01-22T08:55:42Z</time>
      </trkpt>
      <trkpt lat="44.58488" lon="0.96448">
        <ele>201</ele>
        <time>2012-01-22T08:56:00Z</time>
      </trkpt>
      <trkpt lat="44.5849" lon="0.96448">
        <ele>201</ele>
        <time>2012-01-22T08:56:10Z</time>
      </trkpt>
      <trkpt lat="44.58491" lon="0.96448">
        <ele>201</ele>
        <time>2012-01-22T08:56:12Z</time>
      </trkpt>
      <trkpt lat="44.58491" lon="0.96448">
        <ele>199</ele>
        <time>2012-01-22T08:56:17Z</time>
      </trkpt>
    </trkseg>
  </trk>
</gpx>